GFSMA_850_rhum_000.txt.gz
RH
50 50 49 55 52 41 40 56 50 38 45 29 26 27 26 30 29 28 26 22 22 24 24 24 25 25 26 26 26 26 27 28 28 30 30 31 33 36 39 46 60 71 86
42 48 50 46 45 46 42 43 44 37 31 37 35 33 29 26 23 23 22 22 21 21 22 23 24 24 25 25 25 26 27 29 31 32 29 30 38 48 44 48 73 94 97
45 46 50 50 46 43 39 39 39 54 58 51 46 52 48 39 30 25 22 22 21 21 22 23 24 24 25 25 25 25 26 28 31 35 32 33 38 43 50 56 71 95 96
48 52 53 51 53 51 50 49 45 46 49 50 53 59 63 53 44 39 35 27 25 24 23 22 23 24 25 26 26 26 28 30 33 35 37 38 39 43 45 60 81 93 93
36 38 43 47 55 61 60 55 56 58 60 63 68 67 58 59 61 59 52 46 39 33 29 25 25 25 26 27 28 29 30 31 34 37 38 37 41 43 60 74 85 94 95
30 36 37 44 58 62 66 66 65 68 68 70 76 78 74 69 64 63 61 64 63 58 51 43 33 27 27 29 30 28 26 30 35 40 38 38 41 60 64 72 81 96 96
31 34 40 48 62 69 70 73 75 75 75 80 86 87 83 76 76 76 74 70 60 60 58 54 45 40 36 34 34 31 31 32 31 34 37 57 61 62 66 76 83 93 94
39 50 51 52 63 74 78 82 88 86 83 87 92 94 93 86 80 72 66 60 54 63 69 73 70 62 52 42 39 38 45 52 54 58 61 63 65 75 74 71 86 94 99
73 78 79 85 84 89 85 88 92 94 90 90 96 93 90 83 72 65 62 60 61 73 76 69 69 65 54 45 61 65 64 68 66 66 67 71 75 72 71 82 95 93 99
59 57 63 75 88 96 98 97 99 98 98 92 90 91 92 88 80 78 73 71 67 68 67 57 54 53 57 61 68 66 70 70 68 67 70 72 72 71 74 99 95 89 80
68 66 65 75 78 92 100 100 100 100 100 98 90 90 92 94 95 98 94 87 82 77 77 77 75 71 70 64 70 69 66 65 64 66 70 73 74 74 81 87 74 66 70
69 71 74 74 76 85 95 99 100 100 100 98 89 86 90 96 91 98 100 98 95 86 82 79 79 80 75 69 67 69 67 65 67 70 74 75 76 76 75 79 69 65 66
78 77 78 80 80 82 86 97 100 100 99 100 98 90 82 86 92 97 99 97 98 92 89 84 80 76 78 76 73 66 66 66 68 71 73 77 78 74 79 78 72 64 62
73 78 80 84 88 90 92 93 99 100 100 100 100 97 96 92 98 100 99 98 97 95 96 91 86 79 77 77 75 72 71 66 68 71 73 79 80 81 81 82 72 61 56
38 39 56 68 75 79 86 92 95 97 99 99 98 97 97 100 100 100 100 100 98 94 91 86 91 87 80 75 78 78 75 71 72 73 76 84 88 89 86 88 69 63 54
47 45 44 43 44 53 64 74 82 88 91 92 96 97 97 99 100 100 100 100 100 99 97 94 92 89 85 81 84 84 81 77 77 80 84 89 97 95 90 90 67 60 39
56 58 60 60 58 52 47 47 51 65 81 89 92 94 93 96 99 100 100 99 100 100 100 97 98 98 94 90 88 90 87 89 88 88 90 92 97 90 92 82 62 46 17
35 34 37 44 50 56 65 64 58 54 60 65 74 88 89 87 90 95 98 100 99 99 100 100 99 98 97 97 95 96 94 95 95 93 95 97 89 90 94 70 53 24 11
40 37 34 35 40 51 61 60 65 64 66 73 82 84 78 84 92 91 92 98 100 100 99 99 99 100 99 99 99 100 99 100 100 99 99 96 93 93 90 58 31 14 8
46 46 42 38 38 44 55 66 71 72 76 77 77 73 68 66 74 89 99 99 95 98 100 97 100 100 100 98 100 100 90 100 100 100 100 95 98 95 64 42 20 8 11
49 52 50 51 60 66 60 72 70 72 80 82 81 80 75 68 70 75 93 97 98 100 96 100 99 100 100 100 91 97 96 100 99 100 100 100 95 76 48 24 12 10 18
63 57 60 67 62 69 69 53 75 84 83 85 82 78 77 74 65 70 85 81 97 98 100 97 100 98 100 93 81 99 100 100 100 99 100 99 86 53 24 16 13 17 21
60 65 67 73 74 63 67 76 81 82 87 89 87 87 81 94 95 86 76 81 87 93 94 99 99 100 100 97 78 94 99 100 93 99 96 88 50 26 18 18 17 23 33
62 61 60 67 71 71 72 73 74 74 72 67 78 90 95 97 98 100 93 76 92 94 92 95 91 99 97 100 92 96 94 100 100 100 88 52 34 24 22 18 21 26 42
54 48 51 54 66 66 62 57 56 42 36 46 96 100 100 95 83 94 100 97 78 96 97 90 95 87 96 98 98 100 99 100 100 97 63 42 21 25 23 21 24 18 22
38 48 43 44 50 57 49 42 23 52 58 58 33 30 57 72 83 91 100 100 88 88 99 99 99 98 99 100 100 100 96 99 99 77 67 44 30 33 24 21 18 16 18

GFSMA_850_rhum_003.txt.gz
RH
38 39 40 39 33 29 27 24 20 20 18 14 22 25 25 24 23 20 23 25 23 23 25 25 24 25 25 25 25 25 25 26 27 28 27 28 29 30 32 34 38 48 90
37 39 41 41 40 38 35 32 27 24 24 22 17 31 29 27 26 23 23 23 22 22 22 22 22 23 24 24 25 24 25 25 25 26 28 30 30 34 38 49 60 93 96
40 42 44 44 41 45 45 42 38 34 34 35 28 24 27 33 36 32 30 25 23 22 22 22 22 22 23 24 24 25 26 25 25 26 29 31 35 38 40 50 67 85 93
39 42 42 36 40 50 52 51 49 46 44 43 37 37 40 42 41 44 40 34 32 28 24 22 22 23 23 24 25 27 29 26 27 28 29 35 40 40 40 54 56 64 90
28 34 36 38 47 55 58 58 57 57 55 57 55 53 50 48 44 46 43 41 40 39 34 29 30 29 29 29 29 30 39 35 32 32 34 40 45 44 44 55 58 80 95
34 42 46 49 61 70 68 73 72 69 69 68 70 68 63 60 60 60 58 56 53 53 50 49 47 43 37 36 35 34 32 33 34 36 39 50 52 50 44 50 72 87 95
57 62 66 63 60 68 68 70 76 81 78 80 87 84 80 73 73 71 70 66 65 64 64 62 59 53 51 47 46 46 44 40 36 31 34 49 52 47 42 69 90 94 93
66 69 70 67 66 74 79 79 81 82 84 90 90 93 95 87 74 64 60 58 62 65 66 63 64 62 60 66 66 62 51 44 43 38 43 37 35 45 59 85 92 96 89
76 78 77 78 83 89 90 92 95 96 97 96 97 97 95 84 73 53 53 57 58 56 54 55 55 56 64 69 54 53 52 44 44 49 63 66 55 58 64 90 89 96 91
81 80 77 76 79 84 91 94 100 100 100 98 98 100 98 95 86 84 68 73 74 70 68 64 63 65 66 57 49 46 46 58 67 69 68 68 66 68 82 83 95 92 96
77 75 75 76 79 82 84 89 94 92 96 100 96 96 100 99 98 100 93 78 86 73 75 73 70 70 68 69 69 73 63 58 61 68 71 68 67 72 84 89 92 97 88
78 81 84 81 85 86 85 86 88 95 94 97 100 98 96 98 96 99 100 98 96 81 89 79 79 78 77 75 75 72 72 63 59 66 66 66 68 89 89 86 98 89 81
41 47 67 79 74 74 84 91 93 93 90 92 92 96 93 94 96 100 100 98 96 93 96 97 96 89 84 81 78 75 73 71 67 70 69 70 76 71 84 90 85 78 79
50 47 44 42 44 53 63 70 78 84 86 89 91 87 88 93 95 96 99 99 95 90 90 89 91 89 85 77 72 71 71 72 69 70 71 72 72 76 83 77 80 81 81
54 49 46 46 44 44 43 44 51 60 67 78 85 87 92 90 94 96 100 100 100 99 88 81 87 88 85 80 73 77 75 71 71 70 73 70 70 75 74 78 85 88 84
39 36 33 30 28 30 38 44 47 46 47 47 53 61 71 78 86 89 93 93 93 99 99 91 89 90 92 90 84 84 83 81 76 78 81 76 77 82 79 88 93 91 88
40 37 35 34 33 32 31 36 47 57 60 60 59 64 65 65 76 81 76 87 100 100 100 89 88 91 98 95 89 86 84 83 82 87 86 86 84 93 94 93 99 95 92
40 38 40 43 45 43 42 42 48 48 72 78 82 82 83 82 80 77 80 84 96 98 100 100 100 98 96 91 86 84 85 84 88 87 85 81 92 99 100 97 100 93 88
39 40 47 58 56 55 61 60 54 71 74 65 66 75 78 79 77 73 74 75 72 76 97 98 96 99 98 89 91 96 87 89 88 94 97 85 90 100 98 100 97 96 76
39 40 44 48 54 69 66 67 73 67 61 75 81 82 82 82 86 85 90 90 88 84 87 95 99 98 100 98 96 95 97 96 96 99 98 99 83 93 99 100 97 88 64
45 50 50 53 59 57 76 65 55 68 76 80 80 79 79 77 80 81 84 91 95 95 94 99 100 98 99 100 99 99 99 93 97 100 100 100 100 98 96 99 99 90 32
38 41 57 64 62 71 63 56 67 76 70 68 63 38 44 62 82 94 92 92 98 100 100 100 100 100 99 96 96 99 99 100 100 98 100 99 100 93 100 100 93 41 21
20 28 53 47 55 48 53 61 73 63 57 40 35 35 48 86 64 73 85 91 90 89 98 100 100 99 99 98 100 99 97 99 100 96 96 100 100 100 100 98 58 35 19
27 42 38 40 52 26 44 64 55 51 28 18 16 24 24 17 29 54 99 97 99 99 95 98 100 95 97 99 100 99 99 100 100 100 100 100 100 99 100 83 77 28 22
28 24 32 39 35 38 53 56 48 44 22 20 52 68 28 16 21 44 100 99 98 95 86 84 90 83 74 88 100 100 98 100 100 100 100 100 100 97 84 74 30 25 26
25 29 25 29 39 48 49 46 43 18 54 51 84 63 35 28 23 47 100 100 99 99 99 97 90 88 82 80 81 100 100 100 100 100 100 99 98 90 85 63 27 21 20

GFSMA_850_rhum_009.txt.gz
RH
33 39 41 44 46 48 50 53 53 52 50 46 39 33 28 17 16 22 23 24 22 25 31 37 85 93 94 90 61 36 28 27 26 26 27 27 27 28 28 30 34 42 48
38 41 44 47 47 53 56 59 62 63 61 60 55 51 45 41 33 26 25 27 31 30 24 32 40 86 91 93 94 91 80 52 33 30 29 28 29 29 29 30 35 52 75
37 41 43 46 49 54 58 60 61 64 64 65 62 62 63 60 55 48 40 33 31 33 35 37 39 39 45 74 88 90 91 88 86 83 65 46 42 40 36 35 40 47 81
46 48 51 52 56 60 62 62 64 66 68 69 68 68 70 71 69 68 64 58 53 47 41 41 41 39 37 40 70 76 84 89 87 82 80 76 72 69 58 50 46 50 54
58 65 67 70 74 79 82 83 83 83 82 80 80 80 80 79 79 79 76 73 70 68 65 59 54 53 56 55 52 61 62 65 70 78 81 77 74 72 72 74 78 77 76
66 74 80 84 88 90 90 91 95 96 96 95 96 93 92 91 87 82 80 82 79 78 77 73 71 68 67 66 66 65 62 58 54 56 63 76 77 70 67 71 70 73 80
74 84 90 92 89 92 92 95 96 97 96 97 100 91 88 86 81 78 80 77 74 71 72 59 61 71 73 74 71 70 70 68 67 66 65 63 62 72 72 77 76 74 77
88 91 90 90 92 94 92 90 92 97 98 90 91 98 99 88 81 79 76 77 76 77 72 67 73 70 58 55 54 54 57 64 70 74 75 72 70 76 81 79 74 73 81
76 79 81 83 85 86 85 86 89 92 85 83 85 98 98 93 85 78 71 72 74 75 77 74 74 74 80 78 74 67 63 60 60 62 65 78 78 78 80 79 78 74 73
71 71 71 71 73 76 77 80 80 87 96 98 96 99 100 100 99 96 92 86 79 83 78 73 66 67 67 73 80 84 81 67 62 65 67 70 83 88 92 90 86 81 75
49 49 49 50 50 52 56 60 62 67 92 100 100 100 100 99 99 100 98 92 94 97 94 89 86 81 79 70 67 67 68 71 66 56 68 73 74 94 95 92 91 84 84
46 45 44 42 40 37 35 35 40 48 56 60 67 74 80 86 95 97 100 100 100 97 85 95 89 93 94 90 86 77 73 70 68 64 58 69 79 92 93 91 90 89 88
33 38 41 41 39 37 34 32 30 29 29 33 41 51 60 65 67 69 80 86 93 83 94 89 84 89 80 79 80 75 80 78 56 53 60 53 66 80 90 85 87 89 88
44 44 44 43 41 38 36 36 36 35 35 36 37 38 49 68 73 78 86 95 98 95 92 89 86 89 89 84 76 75 76 71 60 57 65 61 63 70 81 86 84 77 72
47 46 45 42 37 34 35 37 39 40 46 52 58 62 78 79 74 72 78 84 97 97 89 88 89 86 87 89 90 83 84 77 78 71 68 70 64 64 77 79 81 82 76
42 39 34 28 26 26 28 34 40 44 51 68 78 73 65 64 67 76 83 84 83 92 99 92 95 94 89 85 78 75 74 80 81 81 82 74 71 77 64 78 84 79 80
24 15 8 5 5 6 11 23 33 46 85 86 66 62 66 83 92 82 75 73 66 73 99 84 95 96 96 97 97 93 82 79 74 73 83 86 83 82 84 76 84 85 80
2 2 3 3 3 4 6 13 19 47 65 42 49 66 76 76 50 40 39 46 43 67 98 100 88 96 100 98 93 93 95 94 89 78 78 82 81 87 92 86 88 86 86
3 3 3 4 4 5 5 7 13 32 35 33 48 73 79 49 40 33 26 80 80 32 36 72 93 90 90 98 97 92 93 93 84 96 93 89 90 87 85 97 86 93 91
5 5 6 6 6 6 7 9 12 24 32 45 64 81 63 54 46 28 62 100 71 34 63 88 86 94 93 93 98 100 97 100 98 86 82 72 85 85 92 86 79 86 100
7 7 7 7 7 7 8 10 14 35 75 76 63 52 44 44 38 40 82 80 80 70 90 94 96 98 98 95 99 99 98 99 99 99 95 78 71 87 91 88 93 86 99
8 9 9 9 9 11 12 15 33 65 79 57 47 41 35 31 30 56 67 65 87 100 97 98 94 100 97 100 100 100 100 100 99 96 100 98 94 85 85 84 82 83 98
11 11 11 12 13 15 18 26 49 69 56 46 49 51 43 53 64 84 84 91 98 100 91 98 99 95 99 100 100 100 100 100 100 98 100 100 100 94 91 88 93 95 98
13 14 14 17 19 20 25 43 65 66 70 73 75 69 82 91 87 91 89 92 97 82 54 82 100 100 98 96 100 100 99 100 99 98 100 100 100 98 98 95 100 100 100
16 17 21 23 25 28 41 61 85 88 84 80 79 91 95 92 92 90 85 90 88 87 90 95 99 96 97 98 100 100 100 100 99 100 99 99 100 100 99 100 100 100 100
21 24 26 31 36 46 60 90 91 90 92 98 96 94 85 93 91 92 90 93 98 96 99 95 93 98 100 99 100 100 100 100 100 100 97 100 98 100 99 99 100 100 100

GFSMA_850_rhum_012.txt.gz
RH
32 35 37 42 46 52 54 57 58 58 58 58 59 58 56 54 48 40 31 19 21 28 31 27 26 44 88 90 97 90 86 62 49 48 42 36 32 32 33 35 49 66 83
34 37 41 46 49 52 54 57 56 58 58 60 60 63 62 63 61 60 57 51 42 28 28 32 35 30 42 87 90 94 89 80 74 71 60 47 43 40 37 37 41 63 78
45 49 51 54 58 66 72 72 71 74 74 75 74 74 74 72 68 68 68 66 64 60 50 37 34 36 36 45 79 85 88 90 89 84 82 79 78 69 52 43 42 43 46
61 63 66 66 73 81 87 89 91 91 91 92 93 92 92 90 85 81 81 80 76 72 70 68 62 54 47 43 56 78 81 81 82 82 82 82 82 80 76 72 67 59 65
71 76 79 79 85 90 93 96 97 98 97 97 98 98 99 97 95 92 85 81 80 81 77 73 73 74 71 68 64 64 68 71 70 73 77 74 72 72 71 70 74 74 70
82 88 90 92 98 100 98 97 94 92 92 95 95 91 89 87 82 77 72 70 68 68 69 72 72 71 72 78 80 80 75 70 68 67 65 64 66 72 68 66 71 68 71
78 84 88 91 90 88 87 90 91 90 91 91 100 80 76 72 72 70 66 64 64 66 69 68 70 72 65 60 62 56 60 70 75 78 79 77 72 70 76 79 70 71 72
74 74 75 78 79 80 81 83 87 95 99 94 100 100 99 95 92 86 84 82 77 76 80 77 78 76 75 71 71 66 70 56 55 58 59 62 67 71 75 75 75 72 75
66 66 66 66 64 63 64 67 67 68 95 98 100 100 99 96 98 94 90 81 81 85 80 80 82 84 83 82 80 78 72 72 72 71 67 61 62 62 66 78 77 74 70
51 52 52 50 48 46 43 42 42 45 53 64 74 87 98 99 99 97 96 99 96 83 79 82 83 81 85 87 88 86 81 76 78 82 82 76 64 65 75 82 81 77 74
37 36 37 38 39 39 39 37 35 33 33 35 39 46 52 57 71 96 96 88 85 77 76 85 85 81 88 88 86 83 82 86 82 83 82 83 79 73 93 96 90 79 77
32 33 35 39 42 42 41 39 37 36 37 38 40 44 55 73 79 82 97 99 100 92 88 85 77 77 81 84 82 80 88 90 86 82 80 85 97 96 86 96 95 86 91
36 36 38 38 39 38 34 32 30 30 32 36 42 49 55 68 79 86 77 93 95 94 96 87 86 84 86 82 82 84 87 90 85 83 93 91 82 85 81 82 90 96 86
41 39 36 31 26 20 14 12 12 18 26 35 46 62 77 74 68 64 76 96 99 96 95 93 91 88 80 78 84 84 82 75 74 74 76 90 94 94 99 83 87 82 79
32 23 13 5 2 2 2 2 3 5 13 34 71 84 68 56 61 80 100 93 87 97 89 68 84 82 84 79 78 79 82 82 81 81 84 78 84 97 100 96 97 93 82
8 3 3 3 3 3 3 4 4 4 10 40 43 32 29 43 75 91 58 46 36 76 90 64 68 83 78 72 67 82 81 77 71 76 85 86 85 84 82 94 96 81 77
3 4 4 4 5 5 5 5 6 6 9 15 19 26 47 78 93 77 52 52 32 53 99 75 59 34 27 41 74 84 85 85 86 78 75 81 81 88 88 85 89 98 97
4 5 5 6 6 7 7 7 8 10 14 18 32 55 71 76 67 60 54 49 43 96 100 94 60 41 29 22 26 51 86 81 78 88 87 76 87 88 94 92 90 88 90
6 6 7 7 8 8 8 8 9 11 20 36 71 71 63 57 51 48 46 43 82 100 98 87 61 49 39 31 54 58 45 56 82 93 96 98 97 83 78 76 81 80 83
7 8 8 8 9 9 9 9 10 13 22 51 66 56 48 48 50 62 69 78 97 96 96 100 99 99 89 66 81 78 69 72 79 83 97 97 87 88 83 71 78 79 85
9 9 10 10 10 10 10 12 15 25 39 54 49 41 40 42 64 84 92 90 91 96 97 98 98 100 98 98 99 97 96 85 98 99 98 85 78 74 82 96 86 69 80
11 11 12 12 11 11 11 15 48 69 68 64 60 59 60 70 85 94 92 90 88 84 81 90 98 99 98 100 99 98 100 100 99 98 98 96 98 96 80 68 68 64 73
13 13 13 12 12 14 19 28 77 85 82 76 74 75 75 93 95 90 89 89 90 89 87 86 94 98 99 88 99 96 100 100 100 98 96 95 100 100 98 99 90 76 81
15 15 15 16 18 22 29 54 91 89 86 81 82 80 99 89 81 92 96 97 96 74 76 100 100 98 98 98 99 96 100 100 99 98 99 100 100 98 99 99 96 82 78
18 17 19 21 25 23 39 88 93 91 86 87 79 90 100 92 92 96 96 96 90 87 79 87 100 100 99 98 100 100 98 99 99 100 85 98 99 100 97 98 94 87 88
22 19 20 24 28 37 50 95 93 91 95 88 93 91 90 92 90 93 89 96 98 84 87 95 91 84 86 99 100 99 97 98 99 99 93 100 100 100 99 98 98 99 98

GFSMA_850_rhum_018.txt.gz
RH
53 56 62 67 63 76 80 85 85 94 94 96 95 94 90 89 88 91 86 73 62 61 63 64 63 57 41 24 27 28 30 62 80 82 81 79 62 38 33 33 37 50 62
68 73 74 77 76 80 83 85 86 85 84 89 88 87 92 97 96 96 95 90 78 69 68 68 65 64 65 64 55 44 39 43 58 70 78 80 82 81 67 40 34 34 37
73 76 76 75 81 89 79 83 88 95 98 98 98 97 94 93 94 94 97 97 95 80 68 68 72 74 74 74 71 69 64 51 34 33 47 65 72 77 81 76 65 46 37
73 73 75 81 87 80 87 92 98 98 99 100 100 99 100 98 97 96 97 94 94 92 80 70 67 67 71 76 80 96 98 87 74 64 54 52 65 76 82 84 78 75 74
74 76 80 83 87 93 93 92 86 90 87 96 94 88 94 87 94 94 94 95 94 83 77 73 74 72 70 70 73 76 91 96 97 94 86 74 59 61 72 76 74 73 72
79 79 78 73 68 67 73 67 72 80 86 87 90 88 85 83 84 85 86 86 89 98 97 97 96 88 73 75 76 81 80 80 82 90 93 93 90 82 67 65 67 68 69
57 52 47 45 44 45 44 43 52 52 58 64 60 60 65 69 74 63 77 88 72 75 78 86 85 94 96 99 85 75 76 84 86 86 83 85 93 95 93 87 81 76 72
44 39 35 32 31 33 34 35 37 39 56 60 61 64 52 52 47 62 52 51 58 54 66 77 80 82 88 89 95 97 80 81 85 90 89 88 85 85 85 91 92 87 82
33 34 37 38 38 37 35 33 37 46 63 56 59 62 58 58 65 56 52 52 51 60 58 57 67 72 69 72 80 84 87 72 58 62 74 84 92 95 91 87 85 87 90
40 41 41 38 34 28 22 17 15 15 48 54 53 52 63 65 64 63 50 58 56 64 62 61 61 63 64 65 71 83 91 86 69 69 94 96 82 99 100 100 99 96 92
45 42 36 30 23 15 8 4 4 6 41 49 52 58 65 65 63 66 72 49 48 47 49 52 58 60 62 69 69 71 90 99 97 100 100 99 100 98 95 98 100 97 92
38 35 30 22 11 6 4 5 5 6 8 8 27 58 69 68 62 58 49 48 50 45 48 53 60 65 76 76 77 82 85 90 93 86 92 98 99 99 97 98 94 98 97
38 34 25 12 6 5 6 6 7 8 9 9 14 62 63 48 48 46 48 58 60 60 62 62 58 60 60 63 63 69 72 82 71 62 76 86 92 94 99 99 97 88 82
32 22 10 6 6 6 7 8 9 10 26 38 37 52 57 48 53 60 70 75 84 85 63 51 53 52 48 53 59 68 78 71 63 73 91 70 64 91 91 95 97 95 94
19 8 6 6 7 8 8 10 13 21 24 36 38 46 48 52 60 62 68 70 78 72 73 55 54 40 37 43 41 74 82 72 67 72 61 51 36 36 35 50 82 80 79
10 7 6 7 8 10 12 15 21 22 32 37 43 49 53 56 64 58 56 52 58 59 60 57 58 52 56 60 70 74 70 67 72 82 83 50 65 86 36 33 41 76 73
7 7 8 9 12 15 17 20 24 30 40 44 48 52 56 64 59 54 54 55 57 60 67 71 69 66 63 65 67 64 66 68 72 72 76 93 84 41 36 56 42 62 84
8 9 11 14 18 19 18 19 28 37 46 50 52 55 57 56 60 59 58 61 67 68 73 92 75 73 69 68 71 72 69 69 68 70 73 78 85 85 65 34 56 70 51
10 13 17 20 20 20 20 24 38 47 52 54 57 60 63 65 64 64 68 71 71 77 81 80 83 82 79 77 73 73 78 72 66 70 78 77 80 82 85 82 63 60 65
14 20 22 22 22 22 22 34 33 54 58 61 65 69 69 69 70 74 76 73 86 88 80 84 92 90 86 76 76 75 73 71 81 83 83 90 91 93 94 73 76 74 95
22 24 25 24 24 24 31 20 28 64 70 70 71 69 70 76 85 85 88 92 96 83 88 95 96 82 72 72 78 79 90 80 77 79 87 91 93 98 89 83 69 82 82
26 27 27 27 27 29 22 20 30 82 79 74 70 70 69 72 73 84 88 84 85 96 93 98 93 82 81 84 86 82 83 94 95 66 92 92 85 86 77 83 73 80 84
29 30 33 31 28 29 26 26 84 90 82 73 71 69 69 68 82 91 79 80 88 91 96 93 90 83 92 88 92 98 99 100 96 84 94 94 74 95 81 83 74 80 84
33 37 41 34 36 44 48 81 94 88 77 73 72 72 71 80 91 86 80 91 98 89 79 79 82 92 94 96 98 99 97 92 82 86 95 97 93 85 80 82 97 99 89
34 39 41 50 50 52 69 86 94 84 77 74 73 75 88 88 80 81 94 96 95 87 73 82 91 93 90 93 98 96 95 100 97 95 96 96 94 96 98 93 66 65 75
40 42 47 51 57 60 76 93 93 86 80 80 80 90 85 84 82 97 97 83 96 82 90 94 91 89 98 99 100 96 96 98 99 98 96 96 97 86 97 87 98 99 97

GFSMA_850_rhum_021.txt.gz
RH
83 79 82 84 86 89 89 90 91 91 91 89 89 88 88 90 91 92 92 90 92 92 90 83 83 81 71 64 61 53 36 22 22 26 52 76 80 70 55 34 30 28 28
94 94 93 94 94 93 93 93 93 95 95 93 90 89 88 87 86 85 86 88 87 88 89 86 78 78 82 88 91 80 69 65 53 30 28 66 74 78 76 73 64 45 31
96 92 95 98 97 95 96 97 98 98 97 96 94 93 91 86 84 84 86 88 89 90 90 91 90 79 76 76 98 100 99 98 92 80 67 45 53 66 77 83 84 79 70
99 98 100 98 99 98 98 98 96 93 89 88 86 84 80 85 84 82 78 84 85 87 86 90 92 92 86 79 78 85 95 99 100 99 97 91 81 68 66 73 72 76 80
95 97 99 97 91 90 85 82 73 73 72 66 67 67 68 71 69 64 72 78 79 80 86 85 85 87 83 82 81 79 79 80 82 90 98 100 99 93 84 73 72 76 76
73 70 60 47 41 51 51 42 48 47 46 54 54 55 50 52 47 63 72 64 74 79 71 66 72 77 84 87 81 87 90 87 84 83 82 84 91 99 100 97 87 73 71
42 36 31 33 34 38 49 42 44 44 44 54 57 56 51 46 49 45 58 71 71 58 53 54 53 62 72 84 82 67 80 82 82 84 83 86 90 92 93 99 99 98 94
31 35 38 39 39 38 38 36 38 41 45 46 52 51 48 46 46 42 32 36 41 46 54 56 61 60 55 54 65 72 72 76 76 85 89 88 85 90 95 100 96 98 99
38 41 40 35 32 30 30 25 25 23 38 32 46 50 48 46 56 48 45 44 48 43 48 59 58 46 52 46 57 63 64 67 80 92 96 97 98 99 100 90 98 100 90
43 36 35 34 30 26 18 10 14 12 36 46 36 40 40 52 60 58 43 42 41 36 24 35 36 36 44 54 61 66 67 72 83 85 98 100 99 97 99 100 99 92 88
39 39 36 32 26 17 9 7 8 9 16 41 30 38 47 54 56 50 47 40 41 36 36 41 46 46 42 54 63 76 79 73 73 92 98 100 97 95 98 99 99 99 96
42 39 35 26 16 10 7 7 8 8 9 16 23 27 47 61 59 48 47 48 50 53 54 51 56 55 59 53 58 56 58 58 62 85 88 89 89 89 98 99 99 100 99
41 39 33 20 10 7 7 8 9 10 13 23 22 42 36 45 53 47 50 56 59 64 66 59 56 44 45 50 49 46 49 51 55 70 82 83 86 86 89 87 85 85 89
39 34 25 14 8 7 9 11 12 20 31 32 38 40 42 47 45 49 54 60 65 64 51 47 48 50 46 45 46 40 42 32 46 74 77 87 82 77 84 88 69 76 89
33 24 14 8 8 10 14 18 21 27 31 32 35 38 42 45 50 51 61 61 59 58 54 50 52 50 58 57 59 63 57 70 72 77 75 68 76 89 82 85 87 94 97
22 11 8 8 10 13 19 21 23 26 32 34 38 42 46 48 50 54 59 57 56 57 59 58 58 63 66 75 67 66 70 67 62 64 66 69 72 73 78 80 96 99 96
9 8 9 10 15 19 22 25 28 32 34 39 43 47 49 51 54 54 58 60 60 62 64 66 67 75 77 69 71 74 72 76 70 63 64 68 71 70 69 79 82 87 87
8 9 12 17 22 24 27 31 34 36 38 44 48 51 53 56 59 63 63 64 66 69 70 76 83 79 72 76 82 82 75 73 68 63 70 68 66 70 76 76 77 81 86
10 13 20 25 27 29 33 37 38 39 47 53 55 57 61 64 66 65 67 73 73 78 89 90 87 78 80 89 85 73 61 58 69 70 68 75 76 79 87 89 85 85 81
14 22 27 30 33 37 39 39 38 44 56 63 66 66 67 66 65 69 72 80 91 95 86 92 84 89 91 89 82 74 69 75 82 74 72 72 77 80 83 84 96 97 99
23 29 34 39 40 39 37 41 48 64 70 76 74 70 65 64 67 72 74 85 94 94 92 89 99 98 91 85 80 77 75 82 82 86 87 87 91 90 82 88 82 78 68
30 37 41 42 41 40 44 56 69 79 85 83 78 70 67 65 64 68 79 80 91 95 91 100 99 98 94 82 76 84 89 96 92 90 92 89 88 89 87 87 88 95 94
38 41 42 42 42 42 50 60 75 89 91 81 74 69 68 68 71 76 79 87 87 84 96 92 96 98 83 79 92 100 100 100 95 87 97 98 93 96 93 93 92 91 99
42 42 41 42 46 46 52 64 83 91 85 80 75 73 73 77 75 88 92 96 87 91 84 78 84 90 90 95 98 98 97 97 99 94 100 98 98 84 93 87 80 68 74
39 39 41 44 46 46 54 70 86 88 86 83 81 80 84 94 86 89 95 96 93 85 77 82 89 85 85 87 90 95 95 100 97 97 96 94 94 98 92 73 72 71 98
39 42 46 45 44 50 61 76 83 88 89 89 90 90 85 83 88 96 95 92 95 84 97 93 89 86 89 88 97 94 96 98 100 97 89 99 98 98 97 94 88 97 90

GFSMA_850_rhum_024.txt.gz
RH
80 81 81 83 83 86 90 91 93 94 94 93 90 91 90 87 85 86 86 87 89 90 91 89 89 91 93 100 99 99 96 88 84 69 45 54 72 76 83 86 72 53 38
89 87 82 94 95 97 94 94 94 91 91 90 90 84 81 77 78 84 83 79 79 81 82 84 90 88 88 94 99 90 96 99 99 95 90 90 83 70 70 76 80 81 71
97 96 96 96 94 95 91 90 90 90 85 84 84 74 84 77 56 54 57 58 67 77 88 88 82 81 80 78 92 98 90 89 92 98 99 98 94 88 80 70 75 78 78
98 95 97 96 94 90 87 83 82 75 61 61 57 62 62 64 59 55 48 54 70 74 75 79 81 86 84 81 80 84 80 68 75 81 89 93 98 98 95 89 78 70 82
96 98 96 76 64 67 60 47 36 40 39 38 40 45 43 44 32 37 51 61 74 78 74 72 69 56 57 64 78 89 95 93 79 71 75 85 89 91 94 97 96 93 84
69 59 43 33 34 37 39 39 38 36 35 35 32 30 26 24 41 52 49 58 55 53 62 61 65 44 51 59 66 77 87 96 92 82 77 79 79 88 89 91 92 96 99
30 31 36 38 38 36 33 32 30 28 26 21 20 24 19 34 29 32 49 29 22 18 21 31 48 53 58 62 63 61 53 56 66 72 82 88 81 76 78 89 99 99 99
35 38 39 35 33 32 31 29 22 19 14 14 38 27 34 33 41 16 20 15 36 43 44 25 29 30 26 24 24 15 20 28 36 76 88 85 94 98 97 100 99 98 98
40 38 38 38 37 34 30 20 15 11 11 10 14 32 48 47 39 35 29 33 43 19 28 27 18 17 21 34 41 41 41 52 68 85 90 96 99 94 100 99 100 99 98
41 41 40 38 35 31 24 16 11 9 9 10 10 10 14 29 56 57 47 30 29 23 23 33 34 46 50 44 34 42 62 74 74 83 87 93 92 94 97 96 98 99 99
45 44 42 38 34 29 19 12 10 9 9 11 14 17 15 18 20 51 61 48 48 42 43 44 54 45 56 38 53 57 52 56 54 68 75 80 85 88 90 94 96 97 100
47 44 42 37 30 21 14 10 9 8 9 11 15 19 27 47 38 45 58 53 51 50 54 58 58 61 37 39 45 48 46 42 45 60 73 72 66 60 64 88 90 92 96
48 45 40 33 23 14 9 9 8 10 13 16 21 23 31 36 34 50 50 54 57 56 64 60 54 50 46 52 44 37 44 38 41 58 56 56 67 72 76 82 78 75 78
45 41 33 21 11 8 8 9 12 15 19 22 24 26 31 34 41 46 50 57 58 68 63 58 55 54 53 58 56 61 60 76 68 65 65 69 73 74 78 71 68 80 82
36 28 16 11 9 9 12 16 20 22 23 22 26 31 32 39 44 50 52 54 61 67 65 60 61 61 65 65 68 78 71 68 68 70 78 70 74 70 74 73 73 76 78
25 15 11 10 10 13 19 22 23 22 22 27 31 28 37 46 51 52 56 58 61 66 69 64 68 72 67 75 82 74 71 73 73 80 77 70 72 77 71 70 70 75 68
15 11 10 10 14 19 23 24 22 23 28 35 28 31 46 50 56 59 61 66 68 69 73 76 71 70 84 76 62 78 79 84 83 78 69 65 62 66 70 73 68 69 78
12 10 11 15 20 24 25 24 27 31 37 33 29 37 49 62 64 66 69 68 70 71 73 78 84 91 82 69 80 80 93 88 98 77 69 65 73 84 74 76 83 81 77
10 11 16 20 25 26 26 29 33 38 37 36 37 47 58 65 72 70 67 68 71 79 94 99 95 78 89 85 84 90 95 90 80 75 64 74 76 77 78 78 78 82 86
13 16 21 26 28 29 34 34 40 44 54 59 53 54 70 77 73 70 70 72 82 95 98 94 99 96 93 86 95 97 90 82 74 71 78 82 88 84 83 85 86 89 87
17 23 28 30 32 36 39 46 54 61 66 70 61 72 83 78 75 73 73 81 88 86 95 98 100 99 96 95 98 90 84 77 81 88 94 93 87 88 84 89 90 94 96
24 29 31 33 36 37 38 55 62 66 73 74 77 86 83 78 75 78 80 80 85 97 96 97 98 95 79 80 89 97 98 97 96 95 95 85 95 94 87 89 96 100 98
30 30 30 31 34 32 39 57 62 70 80 80 90 85 84 82 80 80 84 93 96 96 97 91 87 86 87 95 97 97 100 100 99 99 100 100 99 98 95 84 84 92 95
31 30 28 29 31 34 48 55 66 75 80 85 85 88 90 89 88 90 96 96 91 82 94 94 84 91 97 98 98 98 98 96 96 99 99 100 95 99 86 82 95 94 96
30 27 28 28 35 41 44 61 71 76 80 86 92 96 95 92 92 91 96 95 95 95 74 86 99 98 88 90 93 95 96 100 98 96 94 94 99 93 90 85 72 76 98
29 28 29 34 38 44 49 67 74 80 86 92 96 96 98 93 85 94 96 97 98 82 96 97 87 71 72 86 100 97 96 97 98 98 88 100 99 98 99 85 90 90 89

GFSMA_850_rhum_027.txt.gz
RH
82 80 83 82 85 90 94 92 90 90 89 89 91 94 91 87 82 78 78 78 82 84 81 82 90 84 92 88 88 86 82 90 95 98 98 91 81 68 70 71 74 76 81
86 87 86 86 92 90 91 88 90 89 88 90 84 73 56 45 50 49 46 52 63 58 60 76 75 95 95 91 86 76 70 78 79 88 92 96 97 92 84 76 73 73 77
91 94 97 96 94 90 89 84 84 84 72 45 44 39 37 40 40 41 43 47 47 57 71 74 81 80 94 93 94 92 84 76 77 70 66 80 91 94 98 93 90 87 77
96 98 96 92 91 89 85 75 53 34 35 37 36 34 34 33 31 38 32 38 52 63 74 79 73 66 67 59 57 68 83 85 93 95 91 84 80 81 87 96 96 95 92
98 96 94 86 66 44 34 35 37 35 31 28 25 24 23 22 22 29 44 53 53 58 59 57 49 49 49 49 50 51 62 74 78 85 91 93 91 81 77 84 89 92 96
88 66 37 33 37 36 34 32 30 29 26 23 22 22 20 21 28 37 36 36 37 20 19 21 29 29 30 30 46 46 42 46 48 48 53 60 74 88 77 69 90 90 91
31 36 37 36 35 35 34 33 30 28 25 20 19 19 18 18 21 29 25 20 15 15 23 20 18 14 15 19 18 16 11 15 24 58 73 76 88 89 93 91 95 93 98
38 38 38 38 36 36 34 30 25 20 17 12 17 18 24 21 32 14 21 14 16 26 21 13 7 6 8 8 17 28 29 25 28 66 69 75 80 82 83 84 86 86 99
40 41 42 42 40 38 33 26 19 14 12 12 10 23 34 41 22 25 15 27 39 22 19 11 9 10 19 42 45 46 31 21 77 83 88 90 90 90 92 86 95 94 89
44 45 45 45 43 36 28 20 15 12 10 10 10 13 22 28 46 53 38 17 25 25 16 18 22 29 54 33 39 51 43 61 70 76 80 83 80 74 73 76 80 92 93
48 48 48 44 37 31 23 16 12 10 10 11 14 15 16 19 23 52 51 42 39 34 25 37 30 51 46 54 35 27 44 55 64 68 68 69 68 72 84 71 69 69 76
50 48 44 37 32 22 14 11 10 11 12 14 17 21 26 28 36 35 40 48 57 51 57 56 56 60 55 50 46 40 42 42 57 68 73 72 74 71 71 72 91 98 85
49 43 33 29 20 13 11 11 11 12 16 19 20 20 22 26 30 32 45 52 53 60 56 61 60 63 60 58 58 64 61 68 75 82 78 73 72 74 76 79 71 72 77
45 35 27 20 14 12 11 12 15 19 21 20 19 20 27 26 22 32 47 53 61 58 63 62 63 65 64 68 71 69 67 79 77 72 74 71 72 75 74 84 79 72 74
39 29 22 16 12 10 14 18 22 23 21 19 20 23 24 20 20 32 49 52 62 74 68 66 70 68 73 74 71 77 76 69 70 74 75 76 76 82 80 73 68 69 80
34 25 17 11 11 15 20 24 24 21 19 18 20 26 28 24 23 32 61 65 64 71 79 71 71 72 70 77 84 80 72 77 73 75 78 79 78 95 76 75 72 68 74
25 16 11 11 15 20 24 24 22 21 22 24 29 35 35 30 36 51 59 72 73 74 75 71 72 71 73 71 75 74 93 84 84 86 87 87 84 79 79 74 68 92 83
14 10 12 15 22 24 23 22 22 22 28 38 42 45 45 38 53 68 76 75 75 73 78 83 79 83 82 73 88 87 94 93 91 92 91 84 81 75 74 70 77 80 77
11 12 17 24 26 23 21 19 23 39 46 52 60 60 56 59 70 81 82 82 80 86 96 98 94 85 87 96 89 98 91 82 88 78 73 75 71 73 79 83 90 90 81
13 19 26 26 23 20 20 23 39 48 58 61 61 64 63 67 88 89 83 84 95 91 88 87 91 97 89 99 93 85 74 76 87 92 84 84 88 90 90 84 84 88 89
20 27 28 24 20 19 22 38 53 63 63 64 67 72 71 84 88 84 84 86 88 93 97 98 100 96 97 84 83 84 89 92 98 98 96 96 98 92 89 90 88 94 96
28 28 25 21 21 23 25 41 64 64 65 71 75 78 79 87 88 85 86 87 90 97 95 98 98 98 89 90 94 92 98 98 94 90 94 100 98 96 90 89 98 97 98
30 26 22 23 25 22 21 52 63 68 72 74 78 81 87 89 92 93 87 92 91 97 98 96 96 98 100 93 94 97 97 100 99 98 100 100 99 100 97 91 93 98 96
29 24 24 26 24 23 32 58 68 74 76 79 82 90 95 95 93 94 96 98 96 92 90 96 94 96 97 97 97 98 98 100 100 95 98 100 99 100 90 84 96 98 97
25 25 26 24 28 33 43 69 81 84 78 85 80 89 100 94 91 89 94 97 95 89 71 88 100 98 92 92 95 96 96 100 97 98 73 100 95 95 99 92 68 68 92
27 27 26 29 35 44 51 87 92 88 90 80 85 83 94 89 85 97 97 97 96 76 96 97 86 70 68 82 100 98 96 98 100 98 66 98 97 97 98 85 78 85 93

GFSMA_850_rhum_030.txt.gz
RH
85 83 83 86 89 92 93 91 88 87 86 83 83 88 89 83 73 59 55 56 57 71 82 81 75 79 83 84 90 88 83 83 78 68 79 87 94 94 92 88 72 69 78
91 91 92 94 88 91 90 85 84 83 82 77 79 66 44 37 36 40 43 42 41 39 41 47 68 73 74 86 88 83 91 96 91 88 84 81 81 84 92 98 96 92 81
93 96 96 94 90 89 89 86 83 82 78 44 35 35 34 33 34 35 36 37 39 37 48 64 71 75 73 72 73 72 77 78 81 79 69 67 93 86 83 84 89 98 99
94 94 95 91 88 86 84 79 43 35 35 33 29 26 24 23 22 22 23 30 48 58 60 57 59 63 58 51 47 50 56 59 56 62 67 73 82 84 90 93 87 80 85
95 96 93 91 75 46 35 36 34 32 31 30 28 26 24 21 22 36 48 54 43 37 29 23 26 32 36 35 32 35 37 42 46 49 56 62 71 76 83 89 94 90 90
91 86 49 36 37 36 35 34 32 30 27 25 24 23 22 19 26 18 22 26 23 22 16 18 31 24 19 12 9 14 20 26 37 49 53 58 65 70 76 88 93 94 93
39 36 37 37 36 36 36 35 32 28 24 22 21 21 18 18 18 28 22 17 11 9 15 28 16 7 5 4 4 4 5 9 23 45 63 86 90 90 88 86 84 82 81
38 39 39 40 42 43 40 34 29 24 19 14 13 19 19 19 29 20 20 13 13 12 12 13 7 6 6 6 7 9 7 10 21 53 78 86 87 85 84 84 86 84 86
41 42 44 46 46 42 34 29 23 18 14 12 13 24 24 34 23 22 14 18 13 9 7 7 6 6 8 10 20 16 19 18 45 74 77 77 82 84 81 80 79 76 79
44 47 48 47 40 33 29 22 15 13 12 13 14 19 24 30 32 36 25 12 16 12 12 12 13 15 15 24 25 29 25 44 57 68 76 76 80 78 77 77 76 75 77
48 50 48 39 30 27 20 15 13 13 14 15 18 20 20 20 22 46 50 33 13 11 11 16 18 18 27 35 43 41 55 62 73 82 76 78 79 76 74 74 74 73 75
50 49 41 30 26 20 16 14 14 14 16 20 20 20 20 23 32 36 34 38 51 38 35 20 19 28 39 47 50 46 64 78 79 77 79 82 86 78 76 74 77 82 77
50 44 34 26 22 16 14 13 14 17 19 20 19 18 19 25 30 27 22 28 48 52 55 57 61 63 60 62 55 61 70 74 75 81 83 79 79 78 76 74 78 78 79
48 39 29 23 18 13 12 15 17 20 21 19 17 17 20 22 24 26 25 41 61 61 68 65 61 68 72 69 71 72 66 71 77 79 77 77 77 77 77 76 72 79 95
46 36 27 20 12 12 15 18 22 21 18 16 16 19 24 26 28 25 22 37 75 85 74 73 78 75 73 72 72 73 75 80 85 84 80 77 77 78 76 76 76 86 93
39 28 19 12 12 15 21 23 20 18 17 18 23 29 31 34 35 28 36 54 71 80 90 73 74 76 78 81 83 80 84 92 81 80 83 82 81 85 93 90 91 96 97
29 18 12 12 15 22 23 20 19 19 22 28 32 37 47 51 45 42 48 63 76 82 92 80 74 77 85 81 84 93 97 95 95 90 85 76 76 82 84 80 88 85 73
17 12 13 17 24 22 19 18 20 22 28 33 42 54 58 58 57 52 59 76 81 81 92 98 81 84 83 73 89 92 98 97 95 84 79 80 82 85 79 77 78 78 77
12 13 20 25 23 20 18 18 20 25 29 47 57 62 64 68 65 63 84 86 86 95 96 92 90 75 81 84 88 100 95 76 78 74 74 78 80 83 84 84 88 95 92
14 22 26 25 22 20 19 18 20 30 45 56 62 65 70 75 72 89 91 92 98 96 96 99 97 99 91 91 96 87 84 81 78 75 89 96 93 87 87 86 89 91 89
24 28 27 23 20 20 18 18 41 60 59 58 66 72 78 76 90 88 91 95 95 96 96 97 98 96 97 90 89 88 89 89 93 97 96 87 91 95 96 95 91 92 95
29 28 24 22 21 20 19 30 64 66 62 72 75 78 73 79 91 92 92 91 92 96 86 97 97 100 94 94 93 91 98 98 99 86 90 97 99 97 87 79 97 100 96
30 26 23 24 22 20 21 32 56 63 72 76 78 75 76 91 87 84 89 90 86 96 97 94 93 93 99 90 98 98 100 100 100 94 100 100 96 100 91 91 99 100 99
29 25 25 25 23 22 25 26 35 63 71 71 74 77 96 87 88 89 95 94 96 76 78 86 93 97 98 97 98 98 98 98 96 96 100 97 84 90 82 84 73 81 100
27 26 27 25 24 23 28 33 87 82 80 78 74 96 96 94 90 94 97 94 96 85 67 85 100 98 95 96 99 96 95 100 98 93 77 100 84 92 90 79 65 61 67
28 29 24 21 24 28 34 50 92 89 90 79 94 89 96 93 92 99 94 98 94 73 98 99 83 68 69 78 100 98 96 98 100 99 80 98 98 98 97 89 80 85 84

GFSMA_850_rhum_033.txt.gz
RH
87 86 85 85 89 90 90 88 88 86 84 84 82 78 82 82 66 51 45 51 52 52 49 48 50 54 61 66 74 94 100 99 95 96 90 83 79 78 79 86 98 97 91
91 95 95 96 95 89 89 89 84 83 79 79 79 72 47 38 37 36 37 39 43 42 43 40 43 59 67 73 79 83 84 88 97 98 92 88 80 69 57 75 79 81 94
88 89 96 93 88 87 87 86 83 83 78 55 37 35 32 28 26 24 23 23 26 31 38 46 55 61 64 64 66 66 64 65 66 65 63 65 68 65 70 79 85 86 86
85 87 89 91 88 85 84 78 44 36 35 33 32 30 28 26 24 22 22 28 39 49 48 40 34 31 37 41 46 48 48 47 48 51 53 53 57 62 70 77 78 87 89
86 93 94 91 76 43 36 36 34 33 31 29 28 25 23 22 21 24 37 50 44 30 25 24 22 23 27 28 24 21 16 17 22 28 33 39 47 48 53 68 66 78 95
87 92 79 38 37 36 35 35 36 33 29 27 26 24 22 19 19 29 21 22 21 16 10 12 18 26 23 9 5 4 4 6 7 11 18 30 41 70 69 87 93 91 90
85 39 37 38 37 38 40 40 32 29 27 24 22 21 18 18 17 18 26 20 16 8 9 7 6 6 5 4 4 4 4 5 13 34 46 72 91 89 91 89 89 87 88
35 38 40 40 44 43 37 29 29 26 21 17 17 20 17 16 20 25 13 12 10 11 8 6 5 5 5 4 4 4 4 6 12 48 74 81 85 90 88 88 88 85 84
39 42 44 47 45 34 27 27 25 20 17 15 15 24 20 26 19 16 14 13 15 10 8 6 5 5 6 6 6 7 8 9 36 76 77 84 88 87 88 86 85 84 83
43 46 48 47 36 28 26 23 20 17 15 14 15 19 22 25 26 28 21 13 13 10 7 7 7 7 7 8 12 17 16 23 50 77 85 90 90 90 88 84 81 79 79
47 49 49 41 31 26 24 20 17 15 14 17 20 22 21 20 24 43 43 26 12 10 8 9 8 9 12 16 23 27 46 68 73 81 88 88 89 88 85 84 90 86 77
50 51 46 38 29 24 20 17 14 14 17 20 22 21 21 26 32 37 41 37 39 23 15 8 10 13 13 20 30 37 46 72 83 84 84 85 86 87 84 81 83 80 82
52 50 43 34 25 21 17 13 14 18 21 21 20 18 18 22 29 31 34 30 40 28 37 50 43 35 27 30 35 37 48 79 76 79 81 85 86 85 82 82 79 78 76
53 49 39 28 21 15 13 14 17 21 20 18 17 17 21 27 31 35 42 42 51 59 57 63 52 55 64 72 74 77 71 69 76 81 82 84 84 84 80 79 77 79 78
53 42 29 21 14 13 14 18 21 19 16 15 16 21 26 31 38 39 40 43 62 88 74 71 73 72 79 80 82 82 80 79 83 82 82 82 79 79 84 87 87 94 90
46 32 22 14 13 15 20 22 18 16 16 15 18 24 30 41 45 45 50 49 55 74 98 61 71 77 84 90 87 85 76 91 82 84 82 84 91 84 81 83 77 78 78
36 24 15 13 14 20 22 18 16 15 15 16 18 33 41 51 54 62 63 59 72 81 96 76 66 70 68 72 74 82 89 95 91 97 97 91 78 77 79 85 90 92 86
26 16 14 15 22 22 18 17 16 15 15 20 30 44 51 59 68 72 71 78 81 81 99 96 82 70 69 64 74 97 100 96 95 84 73 76 76 76 79 83 93 92 92
16 14 17 24 23 20 17 17 16 16 21 32 45 52 63 72 75 76 83 84 92 99 100 100 98 94 90 95 92 99 89 83 77 77 79 82 84 87 86 92 92 93 95
14 19 26 25 22 18 18 17 17 24 33 44 50 62 69 74 73 89 90 94 98 96 90 97 100 100 100 97 88 83 80 81 78 85 91 93 96 91 91 90 89 89 91
20 28 27 23 20 19 18 18 22 35 49 52 64 61 60 64 83 90 91 88 92 95 98 100 98 98 97 83 83 85 95 96 97 97 94 95 97 95 93 94 94 95 97
30 29 26 22 20 19 17 16 23 47 50 51 50 52 60 67 79 91 93 93 93 93 97 97 91 90 86 90 87 100 100 98 97 93 96 84 96 97 81 85 88 100 100
32 29 25 23 21 19 17 20 33 67 47 52 59 65 70 84 82 84 88 94 97 96 95 96 91 90 97 93 98 96 100 100 100 99 100 94 88 90 75 74 86 99 100
34 29 25 24 21 17 20 25 46 42 54 64 69 76 93 85 89 94 95 98 81 79 75 83 96 96 98 97 98 100 99 99 99 98 100 97 85 83 79 77 69 68 95
35 30 27 24 18 18 26 26 29 62 77 79 81 97 97 95 94 96 96 96 95 78 70 90 100 99 91 95 100 96 94 100 100 98 94 100 87 98 98 78 69 78 80
36 30 26 19 20 23 24 26 80 86 87 83 99 93 96 95 93 99 96 97 96 77 97 97 78 71 70 76 95 97 96 98 100 98 85 98 98 100 96 89 83 82 90

GFSMA_850_rhum_039.txt.gz
RH
86 87 86 86 85 93 89 87 88 86 80 78 77 78 78 65 43 35 34 32 30 28 30 35 37 37 38 41 46 48 52 61 64 68 78 77 84 86 83 83 81 80 81
82 79 81 83 86 88 85 84 86 84 81 77 66 44 36 34 33 31 30 28 26 26 28 30 32 35 39 46 52 58 63 67 70 72 74 73 72 70 72 79 82 77 69
80 81 79 83 87 88 84 82 84 78 47 36 35 33 30 28 26 25 23 23 26 29 35 40 41 37 33 31 31 31 30 30 32 37 44 54 59 61 59 57 60 62 61
85 90 81 80 86 90 89 70 38 35 33 32 31 27 23 22 22 22 24 28 38 43 40 32 23 16 13 12 14 18 22 23 21 18 16 17 21 26 32 40 46 50 51
97 90 84 86 86 81 36 36 34 34 28 20 18 19 19 19 20 21 25 29 25 22 21 19 15 12 9 8 7 6 5 5 7 7 6 7 8 8 14 27 51 76 66
97 91 86 88 62 36 36 40 34 23 19 18 19 19 16 16 16 19 26 28 22 24 21 13 11 9 8 6 5 5 4 4 4 5 6 8 16 46 90 93 93 92 93
95 86 89 54 35 37 43 35 27 21 20 19 18 14 12 14 10 15 17 18 11 12 12 13 10 7 6 6 6 5 5 5 4 5 7 16 62 92 93 92 94 92 90
87 87 55 35 38 44 40 34 26 22 21 19 15 12 11 11 22 15 12 11 11 10 9 8 8 8 8 8 8 7 7 7 6 7 18 88 90 93 92 91 90 88 87
79 58 36 39 44 45 41 35 27 22 20 16 12 12 14 19 15 12 11 11 10 9 9 10 9 8 8 8 8 7 7 7 7 18 87 92 93 92 91 89 88 88 86
60 39 41 44 47 46 41 34 27 21 16 13 12 14 16 16 22 29 14 14 12 12 11 10 9 10 10 10 10 10 10 10 15 84 90 93 91 90 88 88 86 83 84
46 41 45 48 49 46 40 32 23 17 14 13 15 16 14 13 14 25 34 20 16 14 14 12 12 12 12 13 14 14 16 56 84 89 90 89 89 88 86 85 83 84 86
42 45 47 50 50 45 38 27 18 15 14 16 16 14 14 16 20 28 47 45 45 31 20 18 14 14 13 16 14 13 17 23 85 88 88 89 88 86 84 81 84 81 86
45 48 51 52 49 42 32 20 16 15 17 16 14 13 14 17 19 21 31 49 56 51 55 52 39 34 34 37 52 31 34 46 71 86 89 89 88 86 83 81 80 82 84
48 51 54 52 45 36 23 17 16 17 17 14 14 14 14 17 21 28 37 54 56 53 54 55 60 60 67 76 87 92 87 88 90 91 88 86 85 85 83 80 79 86 94
52 55 54 49 39 25 18 16 18 18 15 15 14 14 16 20 24 30 39 48 73 71 63 59 65 70 84 91 88 88 91 91 92 93 92 90 88 88 92 93 94 93 94
56 55 50 42 28 19 17 20 19 17 16 15 15 16 19 23 26 30 41 51 61 83 88 63 68 85 90 89 89 94 92 97 94 95 94 90 88 86 87 93 91 87 89
56 53 44 30 20 18 21 21 19 17 16 15 16 18 20 26 29 34 40 46 55 75 90 60 87 84 91 88 90 96 100 100 94 88 89 91 93 91 89 91 93 94 93
56 47 33 22 19 23 23 21 19 18 17 16 16 18 22 28 28 33 38 47 66 89 95 93 90 91 80 93 98 100 94 85 89 87 91 93 94 92 91 92 91 93 93
48 38 24 20 25 26 24 22 20 18 16 16 19 25 30 35 38 43 57 86 93 100 100 99 92 68 99 100 98 85 82 82 88 91 89 96 96 100 100 99 96 93 94
42 27 22 27 29 28 26 24 21 17 15 17 21 31 36 45 54 67 98 100 100 97 92 98 93 97 98 84 80 88 89 88 94 95 82 99 98 98 99 99 100 99 99
31 24 29 31 31 30 28 24 17 15 16 20 27 33 42 54 68 97 97 96 94 96 91 96 97 94 88 90 90 92 99 98 96 97 84 93 94 85 83 85 95 99 100
26 30 33 34 34 32 27 19 14 16 20 31 34 36 53 70 76 99 97 100 97 94 97 100 93 98 88 92 91 100 100 100 98 96 98 94 88 83 83 79 86 100 100
30 34 37 38 35 30 21 15 14 19 24 28 33 56 76 81 80 87 88 100 98 98 96 97 93 93 98 91 99 97 96 99 100 97 100 100 80 90 79 75 74 98 100
34 38 39 38 34 23 16 14 15 17 23 34 54 73 83 83 92 97 95 95 94 81 97 97 98 97 97 97 98 100 96 96 94 81 100 100 86 94 86 76 62 64 76
38 40 39 36 27 17 14 15 16 22 39 62 73 83 89 97 99 92 95 95 98 97 71 91 99 100 87 83 93 98 98 100 100 86 74 100 99 97 83 64 64 68 85
39 40 39 29 18 15 15 16 22 60 93 96 95 98 96 100 96 99 96 96 98 82 96 100 86 73 73 73 78 98 100 96 100 99 76 99 94 100 97 82 76 73 73

GFSMA_850_rhum_045.txt.gz
RH
85 85 86 87 88 90 89 85 82 82 81 76 72 64 47 36 33 34 37 30 30 28 29 29 30 28 27 28 30 32 36 39 43 48 50 53 55 57 63 68 68 66 72
86 85 90 81 76 77 81 82 81 81 76 67 48 33 31 30 27 26 28 30 26 24 24 24 26 28 33 36 35 28 20 16 14 14 16 18 23 27 29 29 33 48 61
77 73 72 72 71 77 81 82 80 78 59 33 32 26 18 17 18 21 23 43 30 25 26 29 34 34 29 22 16 13 10 8 8 7 7 7 6 7 10 12 13 14 17
74 74 73 76 76 79 80 81 71 37 35 30 21 17 16 16 18 24 27 32 28 37 28 24 23 20 19 18 13 9 8 7 6 6 6 6 6 6 6 6 7 7 9
73 73 77 80 82 81 81 64 34 38 33 26 19 16 16 15 19 23 37 26 23 25 26 18 12 13 12 10 8 7 7 7 7 7 7 7 8 8 10 13 19 54 64
78 79 82 87 83 84 72 35 39 38 34 27 19 16 15 13 16 22 29 28 30 20 18 14 12 10 8 8 8 8 8 8 8 7 8 9 14 22 60 83 91 94 94
81 86 88 89 84 82 36 37 40 39 35 27 19 18 24 18 16 25 26 32 36 26 20 18 13 10 11 9 9 9 8 8 8 8 8 10 22 60 92 94 92 94 92
88 92 96 87 84 41 37 41 42 40 37 27 17 22 29 27 32 25 36 25 19 24 28 19 13 12 11 11 11 10 9 8 8 8 9 14 21 79 91 94 93 92 90
91 99 96 87 59 38 40 43 44 41 34 26 16 14 29 28 25 23 22 30 21 32 22 20 18 16 15 13 13 14 13 11 10 9 15 58 91 94 94 92 91 90 90
99 100 92 70 41 41 43 46 46 42 32 20 18 16 14 15 30 27 26 29 30 26 31 32 27 19 17 18 22 24 28 24 15 39 86 91 93 93 92 90 88 87 84
99 97 75 50 42 43 46 47 46 40 28 18 15 15 16 23 31 38 40 30 28 32 34 37 39 40 34 38 38 43 57 70 82 90 92 93 93 90 89 87 88 87 93
98 76 55 45 44 46 48 48 45 35 22 16 16 15 15 22 29 39 39 35 36 31 36 34 37 33 42 43 46 49 61 71 80 92 91 94 94 92 91 93 94 91 96
92 64 50 44 46 48 49 47 38 25 18 16 16 16 16 19 26 32 42 44 45 34 36 36 35 38 38 43 46 56 59 76 82 83 88 91 91 90 89 91 91 92 93
71 70 46 46 48 50 49 42 29 20 18 18 18 17 17 18 24 32 45 52 54 49 44 41 39 39 40 45 49 60 68 72 76 81 85 87 88 88 89 90 96 92 89
58 46 46 48 50 49 43 32 22 19 20 20 20 20 21 22 26 32 38 49 62 64 58 49 45 41 44 50 58 69 71 70 74 80 84 86 86 86 86 88 94 98 98
58 48 49 50 50 44 35 25 21 21 22 21 22 22 22 24 28 32 42 54 59 62 64 57 56 56 60 66 70 73 71 73 79 79 83 83 80 85 88 93 96 98 99
48 50 50 50 45 37 27 22 23 24 24 24 25 26 24 27 33 41 48 53 58 62 65 65 71 74 76 78 79 74 79 74 77 77 75 82 86 88 93 94 95 96 97
51 50 49 46 38 30 25 24 26 27 27 27 26 27 30 41 42 46 53 59 63 67 74 76 78 82 83 80 80 84 83 89 69 71 76 82 88 89 92 96 96 95 99
52 49 47 41 33 26 26 28 30 30 28 30 32 36 36 42 50 57 61 69 73 78 78 79 82 81 81 85 91 95 78 75 72 73 79 83 89 93 95 92 92 92 94
51 49 43 35 29 27 30 32 31 30 30 32 39 44 46 50 57 67 69 83 87 84 88 90 83 84 96 99 89 79 73 75 82 84 82 79 90 90 91 88 93 97 98
49 45 38 30 28 32 33 33 30 25 22 29 33 43 54 60 63 81 91 91 92 90 88 84 99 99 99 88 84 75 80 90 80 94 94 60 90 73 72 78 79 94 98
45 41 32 29 32 34 34 33 28 20 15 21 42 40 52 62 69 79 89 89 88 93 96 98 94 100 96 84 81 87 88 100 98 85 97 73 78 69 78 72 86 96 99
43 34 30 32 35 35 34 29 20 14 14 30 41 58 68 72 80 84 85 85 89 90 93 92 97 90 88 86 84 87 99 99 100 90 97 86 76 75 74 74 85 95 89
35 30 33 35 36 36 31 19 15 14 18 38 62 72 77 78 82 84 87 91 86 87 92 87 87 88 85 90 97 98 98 90 87 88 100 99 82 77 88 80 60 58 63
30 32 34 36 37 30 21 15 14 14 26 51 70 73 76 82 79 87 93 92 94 89 83 84 90 96 100 97 95 94 86 97 96 89 88 100 96 95 81 65 63 67 72
32 33 35 38 33 20 18 16 15 17 36 69 72 79 78 79 86 92 95 98 92 91 88 86 90 90 92 87 98 97 96 97 95 100 86 97 98 100 97 86 76 64 65

GFSMA_850_rhum_048.txt.gz
RH
66 82 86 84 88 90 86 84 81 79 77 74 69 52 35 30 29 31 28 28 26 27 26 28 26 26 24 25 28 30 31 28 23 19 16 16 16 19 25 33 42 52 59
79 86 84 87 85 81 80 83 80 79 69 55 41 32 30 26 21 21 20 21 24 24 24 24 24 26 30 32 30 23 17 13 11 8 8 7 7 7 7 9 14 20 20
87 86 84 78 75 72 77 80 82 78 54 32 33 25 19 16 16 18 24 22 24 23 24 25 28 27 22 19 18 17 14 10 8 7 7 6 6 6 6 6 6 6 7
88 79 72 72 74 76 74 78 74 48 33 35 30 22 17 15 15 21 24 26 24 24 23 21 22 17 13 14 14 10 8 7 7 7 7 7 7 7 8 8 10 10 10
82 73 69 73 79 76 78 78 55 34 37 36 31 23 17 15 14 19 23 25 24 24 26 20 16 13 10 9 8 9 8 8 8 8 8 7 8 9 10 11 18 48 62
78 73 74 80 79 79 80 73 34 38 39 37 31 20 17 15 12 14 19 23 22 19 20 17 16 13 11 10 9 9 9 8 8 8 8 9 10 15 34 69 87 93 94
80 74 79 82 85 82 81 39 36 40 41 38 31 21 17 20 20 22 19 25 24 26 19 17 14 14 13 12 11 11 10 9 9 8 9 12 22 38 68 87 94 92 93
86 83 84 86 88 82 68 35 40 42 43 39 29 21 21 23 28 30 22 22 27 20 20 19 20 17 17 15 14 12 13 13 12 11 14 26 39 78 88 94 94 93 92
88 88 92 93 89 83 50 39 42 44 44 39 28 20 17 27 24 19 24 26 23 23 24 26 20 21 20 17 16 15 17 17 20 31 73 78 90 94 95 94 93 91 90
97 99 100 99 87 73 39 40 44 46 44 37 28 19 14 14 14 15 20 26 26 30 26 21 23 21 21 20 22 24 26 28 45 67 85 92 94 95 94 92 90 91 88
98 98 99 98 82 49 40 44 46 47 44 34 23 16 15 15 17 25 26 19 18 19 17 20 23 26 29 34 37 40 38 47 67 81 89 92 93 93 92 92 96 94 96
100 100 98 91 63 43 42 46 48 47 40 28 19 16 16 16 20 27 30 20 20 18 21 19 19 27 35 40 41 41 42 55 75 80 85 88 90 89 90 90 93 92 95
100 96 85 63 48 44 45 48 48 44 33 23 18 17 17 17 18 20 27 27 33 22 20 20 25 26 34 37 40 42 44 63 70 80 82 88 88 87 86 88 88 89 93
96 87 74 55 46 45 48 48 46 38 28 20 18 19 19 20 21 23 29 39 39 35 30 28 24 23 34 40 44 43 43 52 72 80 84 86 86 86 85 84 88 87 92
92 81 57 48 46 48 49 47 39 31 23 20 20 21 22 22 23 25 29 34 49 66 60 42 45 40 36 39 48 52 58 57 79 82 85 85 83 85 85 84 89 94 98
82 64 58 46 48 50 47 41 32 24 22 22 23 24 25 24 24 25 26 29 38 54 63 51 49 52 61 72 69 66 65 77 72 85 87 85 85 85 86 88 92 97 98
66 53 54 54 48 47 43 35 26 23 24 26 27 27 26 26 26 24 28 35 42 54 64 60 63 77 80 81 75 80 68 80 86 85 83 85 84 84 87 91 92 95 97
57 53 48 49 45 44 38 29 25 25 27 28 28 28 27 28 25 28 38 47 58 62 70 79 84 85 88 76 71 77 82 76 71 77 85 82 87 90 92 93 94 95 93
54 55 50 47 46 39 30 26 27 29 29 29 29 28 28 30 29 38 48 55 59 63 75 87 85 81 74 77 85 85 76 74 80 75 80 85 88 93 97 95 94 91 93
59 55 45 46 41 33 28 28 30 30 30 27 24 28 30 37 47 57 62 70 85 90 91 86 91 91 97 98 92 95 87 84 76 75 72 63 96 70 82 86 74 81 98
49 45 48 44 35 28 29 30 32 31 27 20 17 19 31 42 50 69 80 82 89 92 90 97 100 100 100 100 99 92 92 84 73 78 100 69 80 63 58 59 61 60 96
51 50 47 36 29 29 32 32 32 28 19 16 16 21 31 41 51 76 84 88 87 89 92 88 97 100 98 94 95 95 84 82 100 94 100 79 72 63 64 69 67 91 96
51 49 39 30 30 31 33 33 27 18 16 15 18 30 46 58 66 75 82 86 87 93 93 96 94 91 95 94 94 89 89 100 100 92 96 94 69 74 73 72 66 67 83
54 38 30 30 32 33 34 27 18 16 15 15 20 38 67 73 77 84 83 91 96 86 83 94 96 95 95 93 97 98 98 99 81 78 96 100 79 80 73 72 63 59 62
44 36 31 32 34 36 29 19 17 16 14 16 25 45 58 77 83 86 91 86 87 86 86 83 96 100 100 100 100 98 91 96 90 92 86 100 94 94 78 66 60 68 71
30 30 31 36 36 27 22 23 19 18 19 23 31 51 70 90 91 92 91 97 99 88 85 94 86 76 73 78 81 89 99 97 98 99 80 100 95 98 98 83 75 70 63

GFSMA_850_rhum_051.txt.gz
RH
80 68 66 76 73 84 88 85 87 82 77 72 62 52 38 31 28 25 22 22 24 26 29 29 28 25 24 26 29 30 27 20 16 13 10 9 8 8 9 10 13 18 25
74 58 74 84 78 85 86 90 86 79 76 65 53 34 31 26 20 15 15 18 20 23 26 25 24 26 28 27 22 18 17 16 15 10 8 7 7 7 7 8 8 8 8
70 80 84 82 83 88 85 83 84 80 66 43 34 30 25 19 17 14 15 16 19 22 22 22 24 21 19 14 13 14 14 10 8 8 7 7 7 8 7 7 8 10 10
82 87 86 82 86 80 75 78 79 79 50 34 34 30 23 17 15 14 15 16 20 20 20 18 18 16 13 11 9 8 9 9 8 8 8 8 9 10 10 11 10 15 27
87 88 86 82 76 73 74 77 73 46 34 37 36 32 24 17 14 14 15 16 17 18 17 16 15 13 12 11 10 10 10 9 9 9 9 9 10 16 42 50 59 78 88
88 91 87 78 74 75 76 77 68 33 38 39 38 33 24 18 17 15 17 17 16 17 17 17 14 13 13 13 12 11 11 11 12 13 11 11 17 35 66 80 90 92 94
84 84 82 76 75 78 79 79 57 34 39 41 40 32 24 21 21 23 18 18 20 21 20 17 16 19 16 16 15 14 13 12 13 18 20 45 77 90 91 95 93 96 93
82 82 80 76 78 81 81 77 48 36 41 42 40 34 21 26 23 25 24 20 23 27 23 22 22 20 16 16 17 17 17 17 18 46 58 76 95 94 94 95 94 94 93
87 83 90 82 83 86 84 78 40 38 43 44 41 34 19 19 18 17 21 31 36 25 23 22 25 20 18 18 18 19 20 23 24 68 86 92 95 93 95 94 92 91 90
82 85 96 90 91 92 85 67 40 40 45 45 42 32 22 16 14 14 18 19 21 22 22 22 20 18 18 20 23 22 27 28 36 73 80 90 92 93 93 92 90 94 96
93 99 98 94 95 94 79 51 39 43 46 46 40 28 20 16 15 16 17 17 17 17 17 16 16 16 18 25 29 36 40 46 63 70 78 84 88 89 88 88 92 91 94
84 100 98 96 97 93 64 46 43 46 47 44 34 25 19 17 16 18 20 18 18 17 17 16 15 15 22 24 30 36 40 43 67 76 77 82 87 87 86 90 88 90 94
100 94 95 98 97 82 52 46 45 48 46 39 30 22 18 18 18 19 20 22 25 20 18 15 17 19 22 25 33 38 43 42 40 66 80 85 89 89 86 89 85 88 89
99 94 94 97 85 62 50 45 47 47 42 33 25 20 19 20 21 23 25 28 29 26 22 20 20 21 27 32 26 25 28 33 36 80 89 90 89 90 88 85 83 91 88
100 96 97 91 66 57 48 47 48 44 36 28 22 21 22 23 24 24 26 28 37 55 50 36 34 28 28 30 34 50 63 58 82 91 90 92 92 89 88 86 86 96 96
97 95 91 70 61 48 45 45 43 37 31 25 22 24 25 26 26 26 26 27 33 47 61 42 39 41 40 42 51 59 59 60 65 78 94 93 91 90 89 92 93 92 98
97 88 80 77 58 45 43 48 38 30 26 24 26 27 27 28 27 26 26 29 36 43 54 48 52 52 60 58 58 62 67 64 62 61 93 93 92 91 90 89 94 95 96
92 86 60 52 54 60 48 57 67 38 26 27 28 28 29 28 26 28 31 36 40 44 56 64 64 67 72 77 76 75 71 68 68 60 91 90 89 92 94 97 98 98 96
79 67 62 56 44 44 46 35 28 27 29 29 29 28 25 24 26 33 40 44 51 67 69 78 87 88 88 77 84 84 82 72 70 77 83 86 88 91 100 100 98 99 96
63 52 48 47 52 49 40 39 29 30 30 29 26 21 19 24 36 45 50 66 79 82 87 92 93 90 87 93 93 94 85 78 74 72 75 73 87 74 77 70 73 67 72
54 57 64 76 80 55 33 29 30 30 29 25 18 16 19 29 40 46 73 83 85 87 88 95 93 90 98 99 94 92 96 79 71 77 90 92 85 67 58 58 62 60 68
65 71 67 71 43 32 30 31 31 30 24 18 16 16 20 26 39 60 79 86 89 89 91 92 94 100 95 89 90 97 88 86 99 77 100 97 69 66 62 64 66 84 89
65 54 51 38 31 32 31 32 31 23 18 16 15 15 18 33 56 67 70 85 89 93 95 95 91 90 97 94 92 91 95 99 93 76 87 100 68 77 69 74 68 61 62
78 59 35 50 33 30 32 32 22 18 18 16 14 16 28 40 47 75 90 95 96 90 82 89 97 98 97 95 98 98 97 99 89 75 82 100 86 86 77 74 65 60 61
66 64 38 31 31 34 30 22 19 19 17 14 15 26 40 46 72 94 92 90 96 92 90 82 88 98 100 97 90 100 91 97 89 82 74 100 87 89 82 72 66 69 70
54 38 30 32 35 27 23 24 22 18 20 22 20 32 49 77 95 94 95 98 98 90 85 92 82 75 72 73 78 87 94 100 98 99 77 98 90 98 98 86 80 73 64

GFSMA_850_rhum_054.txt.gz
RH
59 68 72 58 59 65 76 77 82 85 84 79 73 63 52 39 31 27 24 21 21 25 27 31 30 25 24 27 28 25 21 18 16 15 13 10 8 8 8 8 8 9 10
65 69 72 65 74 74 82 85 88 88 82 77 64 51 36 30 24 19 18 18 20 23 26 25 24 24 25 23 18 15 14 14 13 11 8 8 8 8 8 9 9 10 11
65 72 58 68 75 75 81 88 90 88 82 73 54 35 31 25 20 16 16 18 21 23 24 23 23 20 18 14 12 11 10 9 9 9 8 8 8 9 10 14 14 16 32
72 76 68 75 80 83 86 88 84 83 80 66 36 34 29 23 18 16 16 18 20 23 22 21 18 16 14 14 12 11 14 11 10 9 9 9 10 10 12 21 41 71 82
86 76 76 83 85 84 85 79 77 75 71 39 36 35 30 23 18 14 14 16 19 20 19 18 17 15 13 13 12 12 13 13 11 11 10 11 13 25 44 66 72 78 91
88 82 85 88 87 85 84 76 76 75 47 37 38 36 30 24 18 17 18 18 18 21 20 20 18 16 17 16 15 14 14 13 13 13 15 13 20 53 77 93 94 94 95
85 84 89 90 90 87 77 76 76 77 35 39 40 38 31 24 22 20 23 21 24 25 23 20 19 19 19 17 15 15 14 13 14 15 28 42 75 95 95 95 96 94 94
80 74 82 91 92 87 80 80 79 75 35 39 41 37 31 30 28 24 25 24 24 27 26 22 22 22 21 16 16 15 14 15 14 26 62 87 95 95 95 94 94 93 92
79 73 79 83 88 85 80 81 82 72 36 40 43 39 30 26 24 22 20 21 28 33 29 24 24 24 20 17 16 15 16 15 17 53 83 91 92 92 93 93 92 92 90
79 67 75 86 90 86 85 88 84 58 40 42 43 42 35 29 18 16 20 23 27 28 24 23 21 19 18 16 16 18 17 20 37 73 80 85 89 92 92 92 92 90 93
74 65 64 81 87 93 90 90 84 62 44 43 45 42 34 29 22 17 16 18 20 21 20 18 18 17 16 16 18 17 20 25 34 73 82 88 91 89 92 91 89 92 96
70 66 65 79 96 95 91 89 82 56 45 45 45 40 32 25 20 17 18 18 18 17 18 17 17 16 17 17 18 22 26 27 30 59 82 87 90 91 89 91 86 92 88
65 64 66 84 99 90 92 93 66 50 46 45 43 36 32 23 19 18 19 21 23 21 20 17 17 17 18 19 20 22 21 18 21 29 71 89 93 92 92 90 87 94 88
59 62 84 100 99 91 94 87 61 50 45 42 38 29 26 21 20 21 23 25 27 26 23 19 19 19 24 26 22 21 20 23 26 66 90 95 94 94 92 90 88 89 89
65 81 100 100 98 93 93 75 58 53 44 40 34 28 24 22 23 24 25 27 30 41 36 27 24 23 25 26 26 30 34 38 38 49 72 92 94 94 92 90 86 91 97
88 100 100 100 96 90 78 59 53 45 41 33 31 25 24 24 26 26 27 27 29 36 52 36 28 28 31 32 34 42 47 44 47 48 60 96 96 94 92 92 98 92 92
99 100 100 98 83 70 64 54 56 45 30 29 37 44 29 27 28 28 26 27 30 35 44 41 41 47 48 42 38 41 41 46 44 38 48 97 98 96 95 92 94 97 96
100 100 96 81 70 66 69 56 41 50 78 54 29 28 28 29 28 26 26 30 32 35 43 53 64 65 72 68 67 64 54 45 46 42 55 98 98 97 97 100 100 100 98
100 91 80 73 76 58 49 61 57 34 31 42 57 34 29 26 22 23 29 32 34 44 60 75 80 82 84 75 75 64 68 57 57 57 64 71 65 81 96 100 100 100 98
88 78 68 60 62 48 40 44 57 74 78 52 31 27 22 20 21 28 30 35 54 70 72 78 87 93 86 81 77 86 79 67 66 65 67 76 68 75 66 80 70 61 60
78 77 79 59 41 55 88 89 84 70 52 32 23 18 18 20 22 28 45 66 76 77 85 93 96 91 92 84 81 74 85 80 80 69 69 100 66 70 60 62 62 63 59
66 65 77 93 94 92 78 50 36 31 29 21 18 17 16 15 18 28 42 54 86 93 94 95 93 94 89 82 77 90 94 95 100 75 81 81 69 70 64 63 64 64 86
87 91 96 82 62 67 68 36 34 28 20 18 17 15 13 17 24 29 38 56 83 90 93 95 97 88 84 76 94 98 98 100 98 71 80 88 71 67 62 66 64 61 63
96 86 88 92 86 42 36 34 28 21 21 18 16 17 21 22 23 35 77 94 92 90 91 86 84 90 98 95 97 100 98 94 91 81 78 100 73 72 71 67 62 60 61
98 96 98 64 38 35 33 26 21 20 18 17 18 20 24 26 36 93 96 100 100 92 84 81 83 97 97 89 85 91 84 97 91 89 73 92 80 79 76 68 64 67 68
100 92 41 36 35 31 25 27 26 21 21 15 14 23 29 42 87 97 96 98 97 85 86 95 82 76 71 72 75 84 91 100 100 100 82 97 94 88 99 89 79 77 67

GFSMA_850_rhum_057.txt.gz
RH
58 70 65 62 53 59 65 73 77 78 82 82 80 74 64 56 41 31 26 21 19 24 27 30 31 27 25 26 26 21 17 16 15 15 14 12 9 8 9 8 8 9 9
54 69 71 69 60 65 74 82 82 85 87 83 79 68 57 40 31 24 19 17 18 21 24 27 25 24 25 22 18 13 11 10 9 9 9 9 8 9 10 12 10 10 11
50 65 72 73 71 76 84 86 88 90 90 85 80 61 38 32 26 20 17 17 19 21 23 22 22 20 18 16 15 17 17 10 10 10 9 9 9 10 11 13 20 25 48
50 66 72 66 71 83 83 86 87 88 89 85 79 46 35 30 25 20 16 17 19 20 21 20 19 17 15 14 12 12 14 13 11 10 10 10 11 12 17 26 43 57 72
69 73 74 72 76 83 82 86 87 86 85 82 71 36 35 32 25 20 16 16 17 18 18 19 19 16 14 14 15 14 14 14 13 13 12 12 12 20 37 60 70 77 86
74 82 79 79 82 85 85 87 88 84 79 69 39 37 36 32 27 20 19 19 19 19 19 20 20 17 17 18 17 14 14 14 13 14 21 22 22 50 80 92 95 95 95
79 79 86 81 84 85 86 88 88 80 78 66 36 39 37 32 28 23 22 23 22 25 22 22 21 19 18 18 17 15 14 12 13 18 48 72 81 93 96 96 96 95 94
77 77 78 80 83 85 91 92 88 78 78 63 36 40 34 34 30 27 25 26 28 26 26 26 24 22 21 20 17 15 14 13 13 20 55 89 93 94 94 94 93 94 93
70 78 71 72 80 86 89 92 86 80 80 68 38 40 36 34 29 29 27 27 28 27 31 31 26 25 22 18 17 16 15 14 14 37 80 90 92 93 92 93 93 92 94
67 67 67 63 72 83 92 98 89 83 83 67 40 41 42 39 29 24 25 22 23 28 32 29 26 21 18 18 16 16 16 16 15 42 78 93 94 94 93 94 92 93 89
63 62 63 64 73 86 96 100 92 89 86 61 44 43 43 40 35 26 19 22 23 23 25 25 20 19 18 16 16 15 15 15 16 16 57 89 92 94 94 94 92 92 92
60 61 63 62 63 72 90 100 94 89 83 68 58 44 43 38 36 27 22 20 19 20 19 19 19 19 18 17 16 17 18 16 14 13 30 82 94 94 94 95 93 92 89
56 57 60 62 67 74 92 100 95 90 77 74 52 44 41 34 33 24 21 20 20 20 20 20 19 19 18 18 19 18 16 14 13 11 16 72 94 96 96 96 94 93 90
57 55 59 63 65 98 100 99 87 89 83 58 44 37 42 30 27 23 22 23 24 24 22 20 20 20 22 25 22 21 20 18 17 16 18 34 75 95 97 96 95 93 88
60 60 59 64 84 100 99 94 84 74 69 61 51 52 31 28 25 24 23 25 28 32 30 23 24 23 24 23 22 23 24 29 32 30 27 41 79 95 96 95 93 91 92
53 60 63 78 99 100 97 88 74 69 59 53 44 46 35 26 26 32 37 30 28 34 45 35 28 23 24 24 25 29 32 35 34 32 30 53 96 98 98 95 94 99 98
58 62 72 94 100 99 91 83 76 62 56 43 45 61 50 62 37 28 28 28 28 31 42 36 32 29 33 29 24 30 32 35 29 23 26 50 99 100 97 96 95 96 99
85 90 100 100 100 90 80 74 57 52 60 69 70 68 50 42 45 42 31 25 26 33 40 40 44 47 55 48 53 54 50 38 31 29 38 74 98 96 100 100 100 100 99
100 100 100 99 80 81 65 56 63 71 69 70 51 74 78 48 36 25 22 24 29 33 36 54 64 66 75 74 71 65 58 46 42 45 48 55 58 54 72 97 100 100 100
100 100 98 94 87 66 65 66 70 61 57 84 82 79 67 46 26 19 20 27 31 35 55 63 72 91 94 81 79 77 75 56 63 55 53 62 58 59 64 56 60 60 62
100 98 88 66 68 65 59 53 62 94 98 84 39 30 22 19 18 18 21 27 57 75 71 87 98 94 87 83 85 80 76 80 80 63 56 68 62 62 55 58 58 59 58
83 69 71 74 77 79 93 100 97 97 72 29 23 21 18 17 16 17 23 34 51 86 97 98 96 96 93 92 83 80 90 94 100 78 68 74 68 64 58 60 59 57 58
75 83 84 84 92 98 97 98 98 74 40 30 21 18 17 16 20 23 26 33 56 74 96 97 96 93 90 81 92 95 98 99 100 82 77 77 76 67 60 65 59 57 55
92 95 100 100 100 99 90 49 35 27 23 21 19 20 24 24 22 25 42 78 86 90 91 87 85 89 96 95 96 100 100 93 88 82 79 81 75 71 70 68 59 57 59
100 100 100 99 90 44 36 32 25 24 25 24 28 31 31 25 27 36 88 98 99 90 80 79 77 84 84 86 83 84 81 91 89 86 81 81 72 84 77 72 65 63 68
100 97 90 44 38 35 32 24 40 42 33 31 20 23 30 34 47 100 98 96 93 71 80 79 65 67 68 71 74 82 88 96 99 100 92 95 96 98 94 88 86 78 67

GFSMA_850_rhum_063.txt.gz
RH
50 60 71 64 41 45 50 55 59 66 71 72 76 76 75 69 55 45 33 28 27 30 29 24 21 22 21 20 16 14 12 11 10 9 8 8 8 8 8 8 8 9 9
45 58 66 75 56 48 54 60 64 69 76 78 80 78 75 65 54 37 30 23 22 23 23 25 23 21 20 15 13 12 11 10 10 9 9 9 9 9 8 9 9 9 10
42 49 60 72 71 65 56 62 69 77 80 85 86 83 79 65 46 34 27 22 20 22 24 24 22 20 17 15 13 12 11 10 10 10 10 10 9 9 9 10 11 11 13
56 48 55 70 73 74 60 64 72 83 84 88 88 85 82 69 38 32 27 22 19 20 22 23 20 18 16 14 13 12 13 12 12 11 10 10 10 10 11 14 20 30 41
78 74 59 59 79 86 78 72 75 84 88 90 89 86 82 75 37 32 28 24 19 19 19 18 16 16 16 14 14 15 14 13 12 12 12 12 13 14 16 32 68 82 94
84 87 81 56 72 89 86 80 84 88 89 94 92 86 80 67 36 34 30 26 21 20 20 18 19 19 18 15 16 15 15 14 13 13 13 14 21 30 50 83 94 95 95
70 70 75 67 58 78 80 72 83 89 92 93 91 85 79 53 36 36 33 28 24 23 23 22 23 22 20 19 18 18 16 15 14 13 13 17 35 64 92 95 94 94 93
63 66 68 75 69 72 79 74 74 86 90 94 90 84 63 51 36 37 37 33 28 26 26 26 26 25 24 23 21 19 16 16 14 14 13 21 60 94 94 93 94 93 96
58 61 64 66 73 76 78 77 72 82 88 90 91 79 60 49 38 37 37 36 32 29 28 30 28 28 27 26 23 20 18 17 15 14 14 18 45 89 94 94 94 92 92
58 63 64 62 63 68 77 79 78 78 89 94 92 88 79 58 38 38 37 35 34 33 31 31 30 29 29 28 24 19 18 17 15 15 15 21 43 77 90 93 95 94 94
45 61 63 61 60 63 63 70 80 83 88 97 94 91 83 72 53 42 37 38 37 34 32 32 31 30 31 27 22 21 19 18 17 16 14 14 26 89 95 96 96 96 95
42 60 64 66 65 60 60 62 68 87 89 97 100 94 92 88 83 69 43 38 35 32 32 30 31 29 26 22 21 21 20 19 18 17 13 12 27 90 94 96 95 95 96
47 47 59 63 64 66 65 62 68 82 93 99 100 97 95 92 82 55 65 44 35 30 26 25 23 23 23 23 22 22 21 21 18 15 12 9 13 24 52 91 94 97 97
45 53 55 57 60 66 69 68 68 84 100 100 100 99 94 88 59 59 44 66 28 28 38 25 31 28 24 27 27 25 23 20 17 14 10 8 9 11 25 58 92 95 96
35 44 59 62 66 65 70 70 78 88 100 100 100 97 88 72 52 59 66 32 35 37 47 51 43 47 30 26 23 23 22 20 17 13 17 20 21 50 93 94 97 97 95
27 32 41 59 67 83 95 100 100 100 100 100 99 93 66 53 44 44 51 52 53 70 84 69 47 37 28 22 22 24 24 23 22 26 28 29 39 91 95 97 98 100 100
30 42 48 54 87 99 100 100 100 100 100 99 81 59 48 51 55 52 57 81 91 89 94 86 54 29 23 22 19 19 18 22 24 22 26 27 37 93 100 100 100 100 100
47 62 89 100 99 100 100 100 100 100 94 71 53 48 54 69 75 84 96 98 93 94 74 38 28 22 21 21 26 20 27 33 37 31 23 24 37 48 51 78 99 100 100
100 100 98 100 100 100 100 100 97 83 61 51 54 67 80 92 99 100 99 99 90 45 32 38 32 20 22 21 38 43 42 36 29 22 29 46 48 50 50 53 90 99 98
99 100 100 100 100 100 97 87 70 59 56 70 83 87 97 98 99 99 85 36 25 26 24 26 33 39 56 55 58 57 69 52 48 43 45 49 48 50 49 51 55 55 53
100 100 100 100 99 91 75 66 69 74 76 86 99 100 100 100 84 24 19 20 21 20 22 44 61 78 76 93 96 86 87 95 92 56 52 56 52 54 50 54 53 51 53
100 100 99 90 78 74 80 78 83 93 100 100 100 100 90 24 22 22 25 26 27 27 65 76 77 90 94 98 97 97 100 100 100 62 68 82 64 58 57 60 58 56 55
100 96 93 85 87 93 99 98 99 100 100 98 52 25 26 27 27 25 20 18 26 43 57 80 95 97 96 69 86 93 92 96 96 63 78 87 66 67 64 61 57 54 52
99 100 100 98 99 99 99 100 100 88 37 30 31 30 25 21 18 17 27 38 37 45 58 67 66 56 73 96 100 100 86 87 84 70 88 98 65 71 74 67 58 57 55
96 97 99 99 100 100 96 47 32 33 36 30 23 19 18 18 21 40 82 68 48 43 42 41 51 65 68 68 73 79 79 90 88 71 77 90 75 86 75 64 65 64 68
99 99 99 99 88 46 29 23 24 28 20 17 19 21 22 22 25 91 89 59 47 39 45 54 59 60 66 68 74 82 86 90 93 91 86 97 88 90 100 86 79 70 66

GFSMA_850_rhum_066.txt.gz
RH
87 94 94 70 59 77 82 86 86 75 78 73 73 76 75 73 68 56 54 33 39 42 37 25 21 21 20 18 15 12 11 11 10 9 9 9 9 9 9 9 9 9 9
74 93 96 91 76 48 70 85 87 72 72 72 73 77 77 73 62 52 56 50 28 34 34 27 26 23 20 16 13 11 10 10 10 10 10 9 9 9 9 9 9 10 10
52 73 93 95 84 68 57 69 82 70 71 76 78 81 80 75 65 51 35 82 34 26 25 24 23 21 20 16 14 13 11 11 10 10 11 10 10 10 9 10 10 12 16
50 47 59 90 94 94 76 67 64 65 77 78 83 85 84 79 70 45 33 29 34 42 22 23 22 20 17 15 14 13 14 13 12 12 11 11 11 10 10 10 12 22 48
67 62 62 65 77 96 94 73 69 68 78 84 87 87 85 81 78 48 33 30 26 24 27 20 21 18 17 16 14 14 14 14 14 13 13 12 12 15 16 18 23 60 88
78 74 76 77 73 92 90 86 73 68 74 87 92 90 87 82 77 55 34 32 29 24 22 21 20 19 18 18 16 16 16 16 15 14 13 13 14 20 52 76 91 96 95
61 72 78 82 82 75 82 86 80 75 79 89 96 94 88 83 76 55 35 34 32 28 24 23 22 21 22 21 20 19 18 18 16 15 14 13 15 24 70 94 95 94 95
55 58 64 68 74 73 83 79 85 82 84 91 94 79 69 72 77 64 38 35 35 32 29 26 25 25 26 25 24 24 21 19 17 16 15 14 16 32 56 92 93 95 93
58 57 60 62 64 70 68 59 72 82 81 83 95 82 74 68 58 61 51 37 36 35 32 29 28 30 31 30 29 28 24 21 18 17 15 14 14 20 59 93 94 94 93
49 58 56 64 65 63 66 64 67 76 86 77 92 92 85 62 51 49 45 39 37 36 35 32 32 33 35 34 33 32 26 21 19 18 16 15 16 26 63 93 95 95 94
34 48 55 62 66 67 66 64 65 78 82 87 79 88 91 88 79 62 52 48 43 38 37 36 36 36 37 36 34 31 25 21 20 18 17 15 14 15 49 93 94 95 95
36 40 46 54 62 66 64 66 68 78 78 94 86 90 94 90 87 83 71 54 46 41 40 40 39 41 39 38 35 29 22 22 20 20 16 15 13 18 39 46 67 93 94
52 42 47 51 55 57 66 68 68 70 77 86 84 89 98 99 92 88 79 71 56 42 56 54 39 42 39 35 34 25 24 25 24 18 16 13 11 9 7 7 33 65 93
52 51 61 73 79 79 72 62 68 70 71 80 98 99 100 100 97 92 74 63 53 58 45 40 54 55 42 46 39 36 30 23 24 18 14 11 8 8 8 9 25 57 94
41 40 45 53 64 78 89 94 92 82 80 99 99 100 100 100 98 91 81 70 65 61 64 55 45 58 60 58 74 74 63 28 20 15 10 9 11 12 11 21 58 82 96
24 26 28 32 41 53 66 86 99 100 100 100 100 100 99 99 92 84 91 71 64 49 57 77 85 90 95 95 95 68 28 23 19 12 10 14 17 18 30 59 87 96 95
30 31 32 37 52 86 98 100 100 100 100 100 100 100 100 95 82 67 48 52 65 72 91 100 100 99 96 61 32 27 23 23 22 21 18 23 22 22 65 83 95 98 100
33 41 46 64 86 99 98 98 100 100 100 100 100 96 92 70 50 51 62 78 92 99 100 100 99 62 30 26 21 19 17 23 27 21 18 20 30 38 41 44 60 93 98
55 78 98 98 98 99 99 100 100 100 100 99 87 74 51 52 66 83 95 100 100 100 97 59 40 33 26 27 40 62 48 34 50 20 36 41 40 43 44 45 53 82 69
99 98 98 98 99 98 100 100 100 100 94 70 54 57 70 85 98 99 99 100 94 44 39 47 55 73 76 75 77 84 83 80 77 55 68 48 47 47 45 47 47 49 50
99 100 100 100 100 100 100 98 86 76 67 58 72 87 97 100 100 99 84 26 22 22 25 38 85 91 92 85 86 88 86 85 89 79 89 88 83 78 59 55 49 49 51
99 99 98 97 86 82 87 81 76 78 84 87 98 99 100 99 40 23 21 22 20 32 70 97 99 96 88 84 85 85 95 100 100 69 94 94 85 78 52 55 49 49 51
99 99 100 97 95 94 97 98 99 100 100 100 100 89 36 24 25 24 19 17 23 34 46 87 96 91 88 87 93 87 100 100 100 96 98 95 81 88 79 80 53 51 49
100 98 98 99 99 98 99 99 100 99 96 58 26 26 26 22 19 17 20 36 37 55 64 60 77 86 92 95 100 100 100 100 99 91 100 97 88 93 90 80 57 51 51
98 98 98 98 99 99 99 94 49 29 28 26 21 17 15 18 24 24 66 61 76 54 40 33 42 55 62 65 70 74 77 100 95 81 88 93 90 100 88 62 63 62 60
100 99 99 99 71 33 30 25 22 22 19 17 17 19 24 27 32 66 54 58 36 39 50 58 64 62 62 64 68 74 81 87 95 94 92 93 79 96 100 76 78 72 67

GFSMA_850_rhum_069.txt.gz
RH
85 82 76 79 86 84 82 90 88 87 92 86 76 76 77 77 71 66 63 51 37 34 32 28 21 18 19 18 16 12 12 11 10 9 9 9 9 9 9 9 9 9 9
82 85 89 86 82 81 81 86 88 88 87 86 76 75 72 71 70 62 60 55 36 33 32 30 22 20 18 17 13 11 10 10 10 10 10 10 10 9 9 10 10 10 10
83 85 88 97 98 87 82 85 87 87 84 82 73 68 69 69 69 64 55 78 57 35 33 30 22 22 20 17 14 12 11 12 11 11 11 11 11 10 10 9 9 10 13
79 85 92 90 94 98 88 85 87 92 84 78 72 68 72 76 74 70 56 62 76 49 33 23 20 19 19 17 15 14 13 13 13 14 14 13 11 11 10 10 10 17 31
82 79 90 90 90 94 98 90 89 90 82 78 74 71 77 80 79 74 64 46 47 55 37 26 20 19 19 18 16 15 14 15 15 15 15 14 13 12 12 15 20 30 59
91 92 88 91 92 93 97 98 93 91 85 78 76 72 81 83 82 78 74 48 39 34 32 29 24 21 20 18 18 17 17 17 17 17 16 15 14 13 17 23 45 79 96
90 94 94 94 95 92 87 99 97 95 82 86 84 76 80 85 83 81 74 57 38 36 32 30 26 24 22 21 21 20 19 20 19 18 17 16 15 18 22 52 86 94 94
69 60 80 90 95 92 95 96 98 100 90 79 76 77 79 79 84 82 76 65 43 39 36 33 30 28 27 25 25 24 24 24 23 20 18 18 16 15 16 36 57 86 95
84 79 62 76 92 98 92 91 89 97 83 82 77 79 80 74 65 64 72 70 50 46 42 38 34 32 31 31 30 29 28 28 27 22 19 18 17 15 15 26 65 93 95
50 60 86 80 76 90 99 88 93 83 86 82 80 79 82 70 67 60 62 61 58 52 47 44 39 36 32 34 33 33 31 32 29 24 20 19 17 17 21 37 83 93 96
54 46 52 61 69 80 75 84 96 100 89 85 73 81 84 85 73 56 54 56 52 48 48 45 41 38 35 36 36 37 36 34 29 23 22 20 22 21 31 59 79 91 93
91 82 51 46 52 63 78 67 64 97 100 98 87 87 87 82 85 86 74 66 61 60 51 45 43 42 40 39 42 41 37 35 28 23 22 26 20 22 38 39 39 44 52
91 99 82 69 62 70 100 96 92 86 86 100 96 88 94 99 92 90 91 80 65 65 60 55 48 48 49 47 44 47 46 49 53 46 37 27 31 16 12 8 12 36 41
95 92 79 63 56 62 84 100 100 100 100 100 100 100 100 100 100 98 93 82 74 63 59 62 76 70 76 55 55 61 58 53 68 61 74 41 18 11 9 7 7 11 31
97 97 83 76 57 79 90 91 100 100 100 100 100 100 99 100 100 100 98 92 94 86 83 85 84 64 65 70 66 75 84 87 94 90 38 17 10 8 7 7 10 17 40
56 42 33 38 42 48 74 99 99 100 99 99 100 100 100 100 100 100 100 100 91 98 86 82 74 77 76 93 96 100 99 95 59 24 16 10 9 10 11 12 22 57 95
35 34 33 34 36 39 54 96 99 99 100 100 100 100 100 100 98 100 98 99 95 92 81 79 86 88 97 98 99 98 58 23 22 15 13 16 13 13 18 30 52 69 86
40 39 40 41 48 66 95 99 99 98 98 99 100 100 100 100 100 98 90 78 76 78 89 100 99 99 100 99 63 35 30 20 22 18 23 23 15 38 38 39 42 51 82
54 62 75 86 96 99 99 100 99 100 100 100 100 100 100 96 85 60 69 89 94 99 99 99 99 81 34 25 24 24 26 33 46 46 57 47 48 57 42 44 44 49 60
93 98 98 98 98 98 99 98 100 100 99 99 98 89 79 73 75 84 98 100 99 100 94 63 28 41 40 39 61 63 80 80 49 50 59 48 79 50 56 49 46 56 54
93 96 99 99 99 99 100 100 100 100 98 89 78 76 85 90 98 100 99 98 73 27 21 26 30 67 77 79 83 83 82 78 52 57 56 58 72 61 52 51 57 55 72
98 98 99 98 97 96 95 90 83 80 78 84 95 100 100 100 100 98 72 20 16 15 20 40 57 52 80 86 83 80 81 61 69 52 76 53 64 60 51 53 52 63 71
98 95 92 91 93 96 97 95 98 100 100 99 99 99 95 55 28 20 17 14 15 20 28 40 50 80 91 83 79 62 68 90 76 69 99 83 61 71 59 57 54 56 57
92 92 96 98 100 99 100 97 98 99 99 98 93 73 30 20 16 14 16 31 40 42 57 60 62 54 59 70 77 80 74 78 73 73 96 88 66 74 59 60 57 55 55
98 100 100 100 96 96 100 98 86 43 28 24 20 19 18 18 18 17 30 54 45 65 63 36 28 38 50 56 60 64 65 83 92 66 73 81 78 83 64 53 54 58 64
95 97 94 65 31 25 23 20 19 30 46 36 27 22 20 23 20 19 22 31 46 39 38 55 60 59 62 63 67 70 76 85 94 88 87 88 78 87 98 63 66 67 64

GFSMA_850_rhum_072.txt.gz
RH
73 58 48 51 41 41 48 53 58 77 79 78 77 78 79 79 75 72 66 56 44 34 33 27 22 15 14 14 14 11 10 10 9 9 10 10 10 10 9 9 9 9 9
75 68 78 71 68 79 71 85 77 89 88 84 80 75 76 72 69 67 62 51 46 37 30 26 23 17 15 14 12 12 11 10 11 11 11 11 11 10 10 10 10 9 10
73 75 84 88 77 75 78 81 85 86 88 84 86 76 70 66 68 69 63 56 45 42 32 28 24 19 16 14 13 12 12 13 13 13 14 15 14 13 12 11 10 9 10
65 70 75 88 89 74 82 80 82 87 87 83 81 75 68 66 68 69 68 58 49 42 37 32 26 20 19 17 16 14 14 14 16 18 19 20 20 18 16 13 11 11 14
67 66 66 75 84 92 83 82 83 83 88 83 80 72 70 66 72 75 72 64 51 39 36 37 30 21 20 18 17 16 16 16 17 18 19 20 21 20 18 15 15 16 42
80 77 74 70 80 88 88 89 83 86 88 82 78 73 73 69 74 78 76 73 62 46 37 36 34 29 22 20 18 18 18 17 18 19 20 20 20 19 19 18 20 33 70
84 82 79 80 76 82 80 86 89 94 90 89 85 79 72 70 76 80 80 77 72 61 43 36 35 32 27 23 21 20 20 20 20 21 21 20 21 20 18 18 17 26 57
79 77 77 77 84 88 91 82 92 96 98 92 88 86 76 70 74 79 81 81 77 69 49 41 36 34 32 28 25 23 24 23 23 24 24 22 21 21 20 18 21 38 68
73 72 67 70 69 85 95 95 74 83 94 100 93 82 77 76 70 69 73 81 78 72 63 47 42 38 36 33 30 28 27 28 27 27 27 24 21 21 20 22 30 52 86
47 68 68 73 77 80 93 75 90 70 85 99 100 91 80 76 73 68 66 64 70 69 65 56 48 46 46 40 35 33 32 33 33 32 30 26 22 22 22 38 32 40 82
53 56 60 74 88 91 96 100 100 100 78 81 98 96 86 84 77 67 63 62 63 63 61 60 55 51 49 44 42 38 36 38 38 36 32 27 23 24 30 54 62 58 48
88 88 90 91 78 98 100 98 100 100 98 85 95 100 99 90 87 80 67 64 60 61 60 60 60 57 53 50 45 40 41 42 42 37 34 26 39 51 48 46 38 20 27
88 91 89 90 99 99 99 98 98 99 100 100 100 100 100 100 98 94 90 76 72 66 63 68 69 65 61 60 56 58 66 76 76 51 48 60 58 45 62 36 17 13 19
94 95 90 92 100 100 100 99 97 100 100 100 100 100 100 99 100 100 99 97 90 78 82 85 84 74 68 80 74 97 88 85 68 72 83 90 92 84 56 20 9 8 11
91 97 98 95 96 98 99 98 97 98 99 99 100 100 100 100 100 100 100 100 99 98 89 77 88 99 99 93 91 86 83 80 90 94 97 94 43 16 11 9 9 19 24
67 69 72 68 58 80 83 85 99 99 100 100 100 100 100 100 100 100 100 100 99 96 99 100 97 98 99 94 92 88 96 99 100 98 60 22 17 15 28 18 12 16 46
42 43 42 42 41 45 50 58 79 98 98 98 98 99 100 100 100 100 100 100 100 99 99 97 90 90 92 96 98 100 100 98 75 50 32 16 15 29 16 15 23 46 86
45 49 53 50 52 54 63 73 93 98 99 98 99 100 99 100 100 100 100 99 93 87 88 93 90 97 100 99 100 98 60 27 18 21 26 42 62 46 42 40 50 60 78
57 57 59 66 73 86 98 98 98 97 96 99 99 100 100 100 99 98 89 83 86 94 98 100 100 100 87 39 28 23 29 31 32 39 33 25 42 38 43 66 50 78 92
78 76 83 92 95 95 93 90 90 99 99 100 100 100 99 93 81 84 92 99 100 100 99 87 50 19 23 37 42 39 43 44 32 26 33 43 45 46 48 48 48 53 56
97 98 99 98 95 98 98 100 99 99 99 97 94 87 82 84 98 99 97 99 82 60 47 18 19 29 40 48 62 73 66 33 25 42 46 47 51 46 46 47 51 53 55
92 90 87 92 94 92 88 87 85 87 84 83 88 99 100 100 100 98 97 83 27 20 18 17 20 29 55 73 80 67 41 34 46 54 57 36 51 48 48 50 53 56 64
87 85 86 92 91 91 95 93 93 94 96 98 99 98 99 99 96 69 26 20 16 22 24 27 36 44 55 53 39 31 47 52 53 53 70 42 54 52 51 53 55 56 59
86 85 89 92 88 92 97 97 99 99 99 99 90 72 39 20 19 21 18 23 42 46 52 43 33 31 24 29 43 56 58 58 54 56 70 63 59 57 55 54 56 56 59
85 84 88 90 89 97 95 81 43 24 21 19 17 17 17 19 20 19 35 43 50 47 44 30 24 39 49 54 56 56 59 65 58 54 60 73 73 74 59 52 56 58 62
86 87 58 31 25 21 18 17 17 21 22 20 19 20 22 23 21 20 20 26 32 35 28 38 62 56 56 57 60 63 64 66 73 71 74 81 77 90 90 59 61 60 60

GFSMA_850_rhum_078.txt.gz
RH
40 48 50 44 34 27 27 32 36 34 33 50 59 57 65 79 78 81 80 72 63 58 46 37 30 23 16 13 12 12 11 10 10 10 11 11 12 12 12 12 12 11 11
56 51 56 49 38 39 34 35 36 40 39 48 56 62 62 69 74 78 80 73 66 62 52 43 34 27 21 15 13 11 12 11 11 12 13 14 15 16 16 15 14 13 13
62 58 60 56 50 51 54 54 52 58 66 71 72 76 76 73 71 73 74 72 68 65 58 51 41 33 28 19 14 13 12 13 13 13 14 17 19 19 19 18 17 17 15
72 66 67 63 58 60 64 65 65 65 66 74 79 82 84 80 76 73 72 69 67 68 64 59 48 42 34 26 19 15 14 14 14 15 17 20 22 22 22 22 21 20 19
68 65 62 60 61 63 70 74 78 75 71 75 80 86 85 84 84 78 70 63 63 68 69 66 58 49 43 37 26 22 17 16 16 16 17 19 22 23 24 24 25 24 26
71 66 64 63 64 63 66 76 83 86 82 77 83 88 89 86 85 82 74 66 63 66 72 71 67 59 47 46 38 50 39 19 18 17 17 19 20 22 24 25 26 29 32
78 73 72 72 72 69 67 71 80 90 88 88 84 86 88 90 88 85 79 70 67 66 71 74 72 70 61 48 43 39 73 55 24 20 20 20 21 21 22 23 25 26 30
74 82 77 75 77 76 76 78 83 85 86 94 95 90 91 90 85 78 78 75 70 70 69 74 74 73 71 62 52 48 45 86 76 29 24 24 25 27 27 26 30 45 62
72 73 73 69 75 85 87 84 85 87 88 85 94 96 91 89 78 70 66 70 74 73 70 72 75 73 72 70 66 65 59 52 57 51 74 60 51 38 40 49 72 90 97
72 73 74 76 81 88 93 90 95 96 98 98 95 97 98 93 86 80 74 72 72 72 76 78 78 79 77 81 80 76 72 78 60 53 82 92 95 94 96 98 96 98 100
69 67 75 79 82 85 84 90 97 94 96 96 93 87 92 99 95 92 89 88 88 82 78 83 88 91 90 96 97 80 78 83 74 71 67 86 91 87 92 99 99 99 100
64 84 83 77 72 62 85 88 99 97 89 92 99 99 95 97 92 96 89 94 95 91 89 85 83 90 96 98 87 95 96 91 78 86 92 87 92 97 97 98 98 96 99
65 69 89 83 77 87 94 94 97 92 90 88 88 94 86 99 96 100 100 100 100 99 98 91 83 85 93 100 100 97 87 86 95 99 96 100 99 100 100 99 98 98 98
77 84 89 88 84 87 95 97 97 97 97 96 93 89 89 87 89 98 100 100 99 100 100 100 94 98 97 100 98 96 88 92 97 100 100 100 100 99 100 99 98 98 96
72 89 91 88 89 93 95 98 99 91 87 97 98 94 90 89 98 99 99 100 100 100 98 98 100 94 91 94 90 86 99 100 100 99 100 100 98 99 100 99 98 98 95
62 74 83 88 91 98 97 89 93 61 57 66 88 80 96 84 92 87 98 100 100 100 100 100 99 99 100 100 99 99 100 100 99 100 100 99 98 98 91 73 64 70 69
54 56 60 63 62 62 59 55 52 51 54 60 72 77 93 94 92 86 91 98 100 100 100 100 100 100 100 100 98 100 100 99 100 99 100 98 83 56 34 57 93 86 86
56 55 53 50 49 48 48 50 53 57 65 70 79 89 95 88 89 87 93 98 99 99 100 100 100 100 100 99 100 100 100 99 99 84 43 33 32 32 29 32 30 40 64
60 58 56 56 54 54 58 64 70 75 82 84 86 85 84 84 96 100 99 99 96 94 92 93 96 100 99 100 100 99 94 53 36 37 40 31 21 22 29 37 42 65 61
67 65 62 62 67 73 77 79 86 88 85 84 82 81 82 92 98 96 92 90 91 95 96 98 100 100 100 92 56 42 41 38 39 39 24 25 36 41 44 43 44 45 46
79 80 81 81 81 90 87 91 93 91 87 86 88 89 89 86 86 88 92 93 95 98 99 99 98 88 39 40 36 35 47 48 36 28 37 42 44 44 45 47 48 49 49
86 83 84 84 86 81 80 84 84 82 81 82 83 86 92 96 95 99 97 96 98 92 89 52 23 23 32 28 36 46 44 32 36 43 44 41 42 44 45 49 52 53 54
83 81 81 80 76 77 82 82 83 85 87 91 90 92 92 98 98 93 76 45 20 15 20 21 24 30 36 42 40 32 28 41 47 50 46 40 45 46 49 50 47 47 52
82 81 76 74 75 80 83 81 83 81 76 73 68 53 30 21 17 15 16 18 24 32 37 43 45 40 36 33 28 30 46 52 55 53 51 48 50 43 43 43 43 53 58
82 76 79 80 65 49 38 18 17 16 17 16 16 17 17 17 17 13 13 14 20 30 35 32 30 29 34 52 62 55 55 57 57 60 60 60 55 41 35 44 51 57 63
80 62 25 20 17 15 14 14 13 14 14 13 14 16 17 16 16 17 17 18 21 28 30 35 35 55 63 63 63 60 60 65 68 65 70 77 70 66 44 41 48 52 56

GFSMA_850_rhum_081.txt.gz
RH
39 38 35 34 34 32 28 31 38 39 34 32 40 44 47 58 68 74 76 75 74 71 65 59 43 34 27 19 14 13 12 12 11 10 11 11 12 12 12 13 13 13 13
50 47 52 48 44 39 31 29 33 36 36 34 43 51 59 61 62 67 73 75 73 73 67 64 55 44 33 26 17 15 13 12 12 11 12 13 14 15 15 15 15 15 15
64 60 58 56 53 50 50 46 45 44 48 50 51 59 65 64 65 65 71 77 76 74 69 68 62 57 45 37 28 18 15 14 13 13 13 14 17 17 18 17 16 17 18
70 68 65 62 63 58 59 58 60 60 59 61 63 68 76 78 79 76 77 76 75 73 69 68 68 66 58 49 42 33 19 15 14 14 15 16 18 19 18 19 20 20 22
72 68 66 66 69 66 62 65 69 73 75 74 73 74 79 80 83 84 79 78 77 72 67 65 69 70 67 62 57 78 71 34 17 17 16 17 18 20 20 22 25 28 42
74 70 67 67 71 70 67 67 68 76 79 85 87 84 82 84 88 87 84 84 82 77 71 67 67 73 72 71 70 84 97 99 65 25 20 19 20 21 22 26 41 56 79
79 77 68 70 73 71 68 72 74 76 79 87 97 93 89 86 85 84 87 86 84 82 76 70 69 70 74 74 73 75 94 96 100 67 39 32 27 28 37 55 78 84 93
76 76 75 73 77 80 78 77 79 80 82 88 99 97 93 86 88 80 76 78 80 85 81 77 74 71 73 74 77 88 87 94 100 98 79 74 89 79 78 90 96 96 98
72 77 76 80 83 88 88 88 89 89 88 89 94 100 92 82 84 77 76 75 75 73 78 77 74 72 74 84 92 91 86 85 94 98 96 91 79 84 95 95 96 97 97
75 78 78 79 83 88 92 92 90 91 95 90 90 94 96 98 99 94 89 83 80 77 80 84 79 74 76 80 88 99 94 90 93 87 84 76 88 95 77 68 73 84 96
79 84 85 78 70 76 82 83 85 96 87 88 86 83 89 95 100 100 100 96 91 85 86 88 88 83 80 86 90 98 100 93 99 100 99 96 92 90 98 97 93 93 97
60 63 68 70 77 79 77 71 85 87 92 92 98 94 96 99 98 99 100 96 98 88 93 91 93 96 94 91 93 100 100 100 99 99 100 98 97 98 99 97 98 99 98
49 53 59 74 68 77 77 74 84 91 95 86 85 89 88 91 95 99 100 99 99 99 99 98 97 99 97 95 96 98 88 90 99 100 100 100 98 99 99 99 98 99 100
46 46 49 64 82 82 80 85 83 82 89 94 93 93 88 89 88 87 93 97 98 93 96 90 96 98 98 92 99 95 99 97 99 99 100 99 100 100 100 100 99 99 98
44 56 71 87 90 91 89 89 89 95 99 99 96 82 96 94 94 100 99 97 92 100 97 89 100 98 97 98 100 98 100 99 100 99 100 99 100 100 100 100 99 100 99
53 64 81 89 96 98 94 98 96 98 93 92 66 72 88 95 86 98 85 88 86 98 100 99 99 99 99 100 100 100 100 99 98 100 100 100 100 100 99 99 99 94 81
56 62 73 81 88 93 90 92 97 89 74 59 60 65 73 74 87 86 96 87 83 86 99 98 100 99 98 99 100 100 100 100 100 100 100 100 100 99 89 60 59 52 51
60 62 64 66 64 60 54 49 49 51 55 57 62 71 75 85 89 88 87 84 84 86 89 94 98 98 99 99 99 99 99 100 100 98 98 97 56 26 24 26 23 29 59
65 63 61 59 56 54 53 53 55 59 63 70 71 74 84 87 85 85 98 100 100 95 93 92 92 94 97 100 100 100 100 99 93 56 28 28 28 26 19 30 36 43 44
69 68 66 65 64 66 67 70 72 76 81 76 77 83 90 91 94 95 92 90 90 89 91 95 97 99 100 99 100 89 54 35 29 31 33 26 19 27 37 39 40 40 40
79 79 79 80 81 82 84 85 89 92 86 81 85 89 89 86 87 90 91 93 94 95 99 100 99 98 92 58 38 38 35 36 37 28 17 25 37 40 40 40 42 44 44
91 90 87 85 84 87 88 86 87 84 80 80 83 85 86 90 91 93 96 93 97 95 92 90 69 32 27 34 32 38 46 40 22 32 39 43 47 44 46 48 51 49 48
88 86 84 82 79 79 84 81 78 79 82 86 86 87 87 86 86 75 62 40 25 18 16 18 19 21 24 28 35 41 37 27 38 51 48 40 44 44 48 51 49 43 41
82 81 82 79 78 78 80 80 69 53 40 30 26 19 16 15 15 16 18 19 20 23 26 27 29 34 32 30 34 36 35 50 51 51 51 46 45 44 43 41 37 41 47
83 81 80 82 76 43 18 15 14 14 12 12 12 12 12 13 14 12 13 13 16 23 30 29 28 27 25 27 90 79 69 65 56 56 56 55 49 44 36 32 44 50 57
82 84 57 26 16 13 12 11 10 9 9 10 10 11 13 14 17 18 16 16 17 18 21 25 29 31 49 58 59 61 62 65 68 62 57 62 57 55 42 41 49 52 51

GFSMA_850_rhum_084.txt.gz
RH
45 26 25 26 26 30 32 32 39 45 45 36 34 40 46 51 56 64 67 69 74 76 74 71 67 60 50 35 26 16 15 13 13 13 12 12 13 13 13 14 16 17 30
61 44 45 47 47 40 39 33 32 36 39 37 33 43 53 59 61 63 65 68 69 73 74 73 70 67 62 50 39 27 17 15 14 14 14 14 14 15 16 16 17 17 22
65 55 53 56 58 50 49 46 42 43 41 46 44 44 52 61 65 66 68 69 72 74 74 74 73 70 68 66 54 43 30 17 15 14 14 14 16 17 18 18 17 20 23
68 69 65 60 67 64 58 58 58 57 58 59 60 63 64 65 66 72 73 75 76 79 78 75 70 68 70 72 69 74 56 40 22 16 16 16 17 18 18 19 22 26 30
74 72 70 68 71 71 67 65 66 68 71 74 78 79 75 73 72 76 77 79 80 81 82 81 75 69 68 74 76 86 100 92 76 43 26 20 19 21 25 28 38 42 52
77 75 70 70 72 74 75 74 72 73 73 78 83 84 84 84 82 80 80 82 83 87 88 87 82 75 69 71 78 83 97 98 98 89 62 42 31 25 32 40 67 94 99
78 82 74 72 73 73 72 79 81 79 77 80 87 81 85 91 92 85 84 82 82 85 89 89 86 78 72 72 75 82 89 91 100 95 95 70 66 54 52 88 90 94 96
71 73 71 72 75 80 80 81 83 83 84 84 90 93 95 81 78 79 78 78 76 75 76 76 81 81 77 74 76 83 96 99 100 97 88 91 81 71 52 72 95 96 97
67 71 75 77 81 86 86 87 89 91 92 92 93 98 100 85 82 78 74 74 76 80 79 76 75 78 78 74 73 81 89 94 95 99 99 95 98 99 100 98 86 68 84
78 79 83 87 89 88 82 81 87 92 96 93 88 83 87 92 100 97 93 90 92 91 92 90 88 90 86 81 77 78 89 100 99 98 100 99 97 98 97 93 99 99 100
76 77 77 77 76 75 76 73 78 90 94 100 100 95 86 94 100 100 100 90 92 96 91 87 87 86 88 92 84 87 92 100 100 99 92 94 91 96 99 99 97 98 97
62 71 74 70 74 74 71 70 80 81 81 90 90 87 100 100 98 100 99 91 99 90 86 85 86 95 98 94 97 98 96 98 96 100 99 98 96 97 97 98 96 94 100
46 50 54 57 63 78 78 71 83 81 84 84 91 83 81 86 85 89 95 87 94 97 96 78 81 84 90 96 90 96 98 99 100 100 100 99 99 99 99 99 99 98 99
45 48 49 51 55 85 83 79 86 84 90 88 79 87 91 86 87 86 94 100 99 98 95 82 80 85 88 89 82 83 92 100 99 99 99 100 100 98 100 100 100 98 100
39 39 40 42 49 60 96 86 85 90 84 83 90 85 88 90 79 91 100 98 99 99 98 93 89 85 86 82 77 84 96 98 99 98 98 98 99 97 99 99 99 99 99
45 47 57 70 85 96 88 85 86 90 91 92 79 80 70 64 77 89 90 91 93 94 97 95 99 82 79 80 86 90 97 99 99 100 99 99 98 99 98 100 100 99 98
54 54 61 80 98 99 93 93 92 100 98 91 70 62 57 63 71 76 85 81 89 86 85 86 79 92 95 98 97 98 100 99 98 99 99 99 100 100 100 99 98 76 40
59 60 61 65 70 77 80 81 79 71 64 58 55 58 64 70 78 86 90 89 92 89 88 94 99 100 100 100 98 98 99 100 100 99 100 99 98 97 79 40 25 21 19
65 64 63 64 63 61 60 58 57 58 60 61 64 74 73 86 90 88 93 99 100 96 93 94 94 93 94 96 98 95 96 99 100 98 88 44 31 31 32 23 20 27 35
66 66 67 68 68 66 65 66 69 70 71 76 80 81 90 91 84 86 90 89 88 87 93 96 97 98 100 100 99 99 96 79 45 30 27 27 28 23 20 36 40 40 38
77 75 74 74 72 74 78 80 83 86 89 88 84 87 86 82 80 83 87 89 90 94 97 98 100 99 96 89 69 48 37 32 30 27 25 19 23 28 39 40 40 39 40
84 83 83 85 86 85 85 88 92 93 90 87 82 80 79 79 85 87 91 92 92 93 92 89 80 67 43 33 32 31 28 28 24 19 20 36 41 41 42 41 42 43 45
95 92 88 85 84 86 89 87 84 83 82 82 79 77 74 72 61 43 28 18 16 16 16 17 18 20 23 27 32 32 30 23 20 32 38 38 43 43 44 45 45 42 40
93 90 87 84 82 86 86 84 82 70 47 28 16 12 13 14 14 15 14 15 15 16 17 18 20 24 25 25 27 27 27 25 40 45 48 45 44 44 47 46 39 35 38
92 89 89 88 87 80 51 23 14 11 10 10 10 11 11 12 11 11 11 12 14 16 19 19 21 23 28 34 30 40 49 52 48 52 56 56 51 44 42 37 36 45 51
96 95 90 83 40 15 14 12 9 9 9 9 9 11 11 11 12 14 14 13 13 14 17 19 22 24 29 46 56 57 58 58 61 60 58 60 54 52 47 44 50 48 54

GFSMA_850_rhum_087.txt.gz
RH
32 26 30 31 29 33 38 38 40 45 48 46 35 35 41 47 52 56 64 70 72 76 75 71 69 67 66 63 46 35 21 16 14 14 13 13 14 15 15 16 18 19 23
59 52 32 32 36 40 39 38 34 34 40 42 41 35 43 52 60 64 67 70 69 70 72 74 74 70 68 69 66 53 40 23 16 14 16 17 17 16 17 17 19 20 26
63 64 47 50 56 56 45 46 40 40 42 43 47 43 46 54 64 71 72 74 74 73 74 76 78 76 71 70 74 74 64 48 29 18 16 17 19 22 22 20 21 23 29
67 67 62 58 62 64 58 54 57 55 57 58 61 64 65 68 70 71 71 76 78 79 82 83 83 80 74 72 76 100 99 82 64 47 20 16 17 21 27 24 25 30 39
74 72 71 70 71 69 67 64 62 62 66 71 75 78 77 75 76 78 78 80 81 83 86 88 88 84 78 73 74 87 95 94 93 84 76 30 19 18 24 40 50 52 61
76 76 74 73 76 75 73 71 71 72 73 76 76 76 77 79 82 83 83 81 80 83 85 87 90 88 83 76 72 75 84 95 94 95 92 83 69 56 46 28 55 85 89
78 77 79 76 75 73 73 77 80 80 79 80 84 79 77 79 80 74 75 71 73 77 76 77 81 86 85 81 76 75 79 87 100 100 99 95 92 95 89 78 59 49 55
78 78 75 78 80 82 82 81 82 83 85 86 91 91 90 80 78 73 67 68 71 72 72 80 78 78 80 79 77 77 81 86 92 99 98 95 84 88 90 86 93 92 95
70 75 73 76 78 81 78 85 88 89 90 91 94 97 99 88 83 83 79 75 82 85 86 83 89 85 82 84 80 77 82 92 94 97 99 98 97 96 91 89 84 89 99
78 80 80 77 79 81 79 78 82 81 91 92 94 85 90 96 98 93 88 89 84 89 87 94 91 92 88 88 87 88 84 95 100 100 99 100 97 99 99 89 93 92 89
80 78 75 76 75 76 74 73 76 77 79 93 98 95 97 100 99 100 99 97 87 80 86 87 84 84 77 91 94 93 89 93 96 95 99 100 99 100 99 97 92 93 99
74 69 66 66 69 71 74 81 80 71 76 89 88 86 90 93 95 99 97 89 91 87 82 86 80 81 72 84 85 92 92 94 98 95 92 99 99 99 99 92 99 98 98
43 46 55 65 66 62 65 73 79 76 76 83 82 86 83 84 82 93 89 97 99 93 88 87 91 88 79 79 80 84 78 86 95 97 92 97 100 99 99 99 96 98 98
37 41 45 48 52 55 62 75 90 81 88 89 93 95 88 81 90 89 93 98 96 89 90 89 91 87 76 78 83 79 73 81 94 98 98 94 100 100 95 92 88 97 99
40 41 42 44 46 48 53 93 97 88 80 90 91 88 84 88 87 88 87 92 93 98 92 91 96 85 81 75 78 78 82 92 89 98 99 99 100 100 97 95 98 99 100
37 37 37 39 45 65 91 98 99 92 97 89 86 88 90 82 82 69 81 87 94 97 100 99 92 86 79 74 77 76 87 98 99 100 100 99 97 96 97 99 98 97 92
49 49 50 56 90 98 99 95 99 93 86 91 93 85 70 68 61 67 74 78 83 78 93 99 90 88 83 82 84 92 100 99 99 99 99 100 99 99 99 100 98 95 93
60 61 61 64 73 93 99 100 94 91 94 99 99 79 59 58 62 69 73 78 84 92 93 93 97 100 100 99 99 99 100 99 100 100 100 100 100 99 99 93 58 23 19
63 65 67 66 68 72 72 75 73 69 65 60 57 56 58 64 68 74 78 84 97 97 96 92 93 93 91 91 93 95 97 96 96 98 96 91 60 32 26 25 19 12 18
66 66 68 67 67 68 66 64 63 62 61 61 62 66 70 72 78 80 88 88 85 84 84 85 90 94 97 96 94 95 96 92 81 63 36 22 24 22 22 17 27 35 37
74 72 70 70 70 70 68 69 69 69 73 75 80 80 80 82 83 83 82 80 81 82 83 85 95 98 95 93 82 63 45 31 22 19 18 17 16 18 26 31 37 38 38
82 81 80 78 79 79 78 82 84 88 91 91 84 83 83 81 84 85 80 76 77 65 61 59 62 60 45 35 26 22 20 20 20 15 15 22 30 37 39 40 40 40 41
90 90 89 89 89 87 89 92 89 92 90 83 81 80 78 77 64 38 16 11 12 13 13 16 17 19 20 22 21 22 21 19 18 21 26 36 41 43 42 41 40 41 41
98 97 92 88 87 86 90 87 84 83 82 78 58 29 18 11 10 9 9 9 10 11 14 14 15 17 18 17 16 18 21 22 30 42 44 42 42 43 46 43 39 35 34
99 97 90 87 86 87 90 86 69 34 16 10 9 10 9 8 8 8 8 9 10 12 14 13 13 14 16 15 21 34 48 48 48 49 50 51 46 43 44 40 36 35 44
100 98 92 93 91 66 22 14 12 10 9 8 8 9 8 9 8 9 9 11 11 13 14 15 17 19 20 28 41 48 50 52 54 57 57 57 53 53 51 48 44 50 45

GFSMA_850_rhum_090.txt.gz
RH
27 43 77 83 89 88 90 73 55 68 63 58 46 33 34 41 47 55 68 64 66 69 74 72 72 70 67 67 68 59 42 27 18 14 14 13 14 16 17 21 29 35 51
39 33 39 42 43 34 43 49 53 40 43 47 47 37 34 44 54 60 68 73 70 69 72 77 81 78 72 68 67 70 69 49 33 19 15 15 15 15 16 18 20 24 30
59 61 50 36 42 50 54 45 45 37 37 38 43 47 44 52 59 66 70 74 76 75 77 78 81 84 83 77 75 81 76 77 68 47 27 16 15 15 16 17 20 22 30
64 65 64 49 57 60 61 52 54 53 53 55 58 62 62 65 68 72 72 74 76 81 81 82 84 86 87 84 85 96 94 87 86 88 78 42 20 17 17 17 18 20 24
70 68 70 69 66 64 67 65 60 61 64 66 69 73 74 76 77 79 81 82 80 79 82 85 87 89 88 84 81 83 90 89 88 91 88 83 62 51 56 57 62 37 22
78 75 74 75 75 73 71 70 71 70 70 70 72 72 74 74 77 78 79 72 69 72 77 79 83 84 87 87 83 77 80 95 92 96 99 96 88 79 85 83 79 71 39
80 80 78 78 75 74 73 75 78 78 76 76 81 80 80 76 77 79 74 72 69 67 68 73 78 81 84 83 83 79 77 80 95 100 99 93 92 92 92 88 89 88 83
83 79 79 79 81 80 79 80 79 81 80 82 88 97 93 82 87 83 74 71 75 74 77 80 81 82 82 81 79 78 78 79 87 99 100 91 88 91 96 96 94 92 91
72 77 80 81 82 83 82 83 86 85 89 88 91 97 96 87 82 83 81 84 78 85 86 81 88 86 87 84 83 84 81 79 83 88 99 99 97 99 83 96 98 91 84
80 81 80 82 81 82 81 81 83 82 90 88 88 90 96 95 91 94 89 86 79 84 89 81 89 88 85 87 83 85 89 87 85 86 97 100 100 94 95 97 98 96 93
80 74 74 76 79 81 79 81 79 81 80 84 89 91 93 88 92 99 98 87 84 86 89 86 90 85 82 80 74 82 88 90 88 93 91 95 99 97 98 98 98 94 94
68 79 80 75 69 70 69 70 76 80 84 86 84 94 97 99 91 90 95 96 95 85 83 79 84 86 88 88 76 78 79 87 95 97 97 98 99 100 100 99 97 97 99
45 47 51 53 59 68 70 79 80 84 84 83 83 86 90 90 91 86 88 98 96 88 91 86 84 78 87 80 76 80 84 81 82 89 98 99 99 99 100 98 92 88 95
34 35 37 41 43 48 56 68 74 80 88 91 86 89 90 89 89 89 87 99 100 93 95 89 90 85 83 83 81 75 76 79 75 82 92 89 90 88 100 100 99 94 92
30 33 38 44 48 50 55 60 70 98 99 95 90 84 90 85 89 90 94 100 97 95 95 92 90 90 90 81 83 77 79 76 86 99 100 100 100 100 100 99 99 94 90
34 36 38 40 41 41 43 47 55 87 97 99 100 99 88 86 90 94 92 84 83 97 99 100 95 96 87 81 79 76 79 78 88 98 98 98 98 99 96 88 90 91 89
41 40 38 40 42 44 68 90 91 95 98 99 99 96 93 91 87 76 72 70 77 83 90 91 99 96 86 84 84 85 81 89 99 98 97 93 95 96 95 94 91 90 92
52 54 54 55 57 68 96 98 99 100 100 99 92 96 97 87 66 58 63 71 78 84 88 92 96 95 91 94 94 97 98 95 95 90 86 85 86 94 93 94 92 72 32
57 59 61 63 66 73 86 96 99 99 99 100 100 99 80 59 56 63 72 79 81 84 94 96 94 92 88 87 87 88 88 90 93 93 92 89 88 77 48 25 19 17 12
61 61 63 65 67 69 71 72 76 78 77 74 66 63 60 63 69 75 80 80 81 82 84 84 83 83 88 91 93 89 88 89 86 75 59 37 23 19 20 18 16 19 30
69 70 69 71 70 68 71 70 70 70 71 69 68 69 76 79 79 80 76 74 76 80 81 83 83 84 90 92 91 79 65 47 32 21 17 16 14 14 16 24 25 34 36
77 80 80 76 77 76 76 76 76 79 80 82 83 83 82 81 81 78 74 73 76 76 69 66 60 64 54 41 28 23 20 20 42 14 13 14 13 23 31 35 36 36 36
86 84 84 85 85 85 84 86 91 90 92 95 90 84 80 77 74 65 43 27 16 12 10 11 14 16 16 17 17 18 18 18 19 18 17 30 34 38 38 38 37 38 40
98 98 94 92 91 89 90 97 93 93 92 86 81 78 71 41 15 10 11 9 9 9 9 11 12 12 12 14 13 14 17 19 23 32 38 40 39 41 42 41 38 36 36
99 100 99 93 89 87 92 89 86 84 84 75 42 15 10 9 9 8 8 8 8 10 9 9 9 9 9 10 13 21 36 42 53 48 44 48 48 45 44 41 39 38 38
100 100 100 97 93 92 94 90 73 36 16 10 10 9 8 8 9 7 8 9 9 9 10 10 11 12 13 15 26 38 44 46 48 58 48 50 47 50 49 48 45 43 47

GFSMA_850_rhum_093.txt.gz
RH
77 74 80 92 95 96 96 96 93 92 95 92 77 48 47 60 73 69 80 64 60 62 67 79 73 70 67 62 63 68 66 48 32 20 15 15 15 15 16 17 19 21 23
75 82 86 89 90 92 91 91 89 86 86 88 85 73 51 53 48 61 68 78 67 68 68 72 81 81 80 76 68 63 67 72 65 45 26 17 16 15 16 17 19 21 22
75 75 81 86 84 87 83 86 87 66 76 75 74 76 67 67 74 71 71 76 86 70 74 75 77 85 90 87 83 80 75 74 76 77 76 51 25 19 17 17 18 20 23
79 71 72 72 78 84 74 84 82 85 77 82 81 82 67 64 69 83 88 77 76 78 78 79 82 84 85 90 92 94 87 85 82 80 79 79 75 39 35 48 50 57 37
94 79 82 84 75 77 71 72 76 82 88 84 78 76 79 76 84 83 74 82 89 76 79 92 84 87 88 88 86 86 88 96 93 94 89 87 85 80 73 82 83 72 66
97 82 93 96 91 78 68 73 77 75 66 83 87 68 70 74 79 76 88 90 90 82 69 78 81 77 82 86 87 85 86 88 99 96 98 97 93 89 86 88 88 83 81
98 98 96 98 98 90 86 89 82 75 74 72 77 75 77 76 76 84 90 91 88 84 73 74 80 81 92 86 84 81 80 77 85 99 98 86 93 89 91 90 91 91 90
88 85 86 87 96 98 88 91 84 78 77 84 81 95 91 85 86 83 87 83 81 80 79 79 86 86 85 91 87 77 77 77 76 86 99 98 100 89 93 92 97 99 92
79 84 82 81 83 84 83 84 84 82 83 86 85 90 96 88 81 81 81 81 84 85 79 85 89 89 88 89 87 85 85 84 80 79 86 100 99 94 92 95 93 90 89
73 71 70 75 80 80 80 82 84 85 86 90 97 88 92 97 93 82 82 84 84 85 83 88 90 88 90 87 85 81 79 77 83 85 84 98 99 96 99 95 96 96 95
54 68 69 65 66 82 78 83 86 86 88 88 95 98 89 93 93 87 78 77 90 82 85 88 89 89 87 88 84 79 73 77 83 87 85 95 97 99 98 98 100 90 89
46 64 66 59 63 67 74 78 81 86 88 90 88 96 99 90 96 96 96 94 88 96 88 81 84 84 83 84 83 86 78 76 78 83 88 98 94 87 100 100 98 98 90
55 38 42 55 67 74 75 74 78 84 86 90 91 94 95 99 100 98 98 95 91 99 92 86 82 86 83 81 82 82 76 75 81 78 93 100 98 98 98 99 99 98 95
52 42 41 43 43 46 52 71 94 98 98 94 92 93 95 95 94 91 88 96 93 95 92 95 94 87 86 83 86 83 79 74 74 76 77 77 83 94 94 98 99 98 96
36 35 34 34 37 42 47 55 73 97 100 100 100 98 96 96 95 85 83 99 100 100 88 92 90 83 89 89 88 81 78 76 75 74 79 86 88 95 99 92 92 98 96
32 33 33 36 40 42 44 48 53 68 98 98 100 96 98 99 99 86 85 89 97 99 97 96 93 95 94 90 86 79 78 80 82 77 81 95 96 94 94 92 93 86 86
38 39 39 39 41 41 45 48 59 67 95 99 99 99 79 100 99 88 88 84 82 83 100 100 97 94 94 83 80 82 82 82 84 87 87 92 88 88 87 91 92 91 89
50 51 52 51 52 57 56 62 75 99 100 99 98 99 96 100 93 91 79 64 66 77 86 85 87 96 94 91 91 90 92 93 95 88 88 86 80 82 83 90 89 85 79
55 57 59 61 64 67 73 78 91 96 97 100 100 100 100 100 98 79 62 69 74 81 84 87 98 97 98 94 92 86 85 87 88 86 87 84 82 80 79 65 34 17 12
55 56 59 62 66 68 73 79 92 99 100 100 99 100 100 89 66 64 69 74 78 82 87 87 86 85 87 87 90 88 85 83 81 80 72 58 37 19 12 11 10 11 12
60 62 63 66 66 70 70 71 73 76 80 82 80 74 69 67 67 72 77 79 77 80 82 77 79 84 86 87 84 76 83 70 44 24 15 12 10 9 9 12 18 22 27
65 68 72 72 73 73 72 74 76 76 75 74 73 72 72 73 78 79 80 77 76 78 76 76 74 78 73 61 49 34 21 18 32 16 12 11 10 13 18 28 31 34 34
68 72 77 78 77 79 80 79 80 81 82 83 86 86 85 82 84 83 79 77 68 51 31 20 22 27 23 14 12 13 14 13 13 15 12 18 24 31 35 36 34 35 36
73 79 88 88 88 88 87 84 91 96 98 97 95 91 86 81 79 69 29 11 9 8 8 9 10 11 11 12 11 11 11 12 14 19 28 32 39 38 39 39 35 36 36
79 97 99 100 97 92 91 93 99 100 99 98 92 87 81 50 17 9 8 7 7 7 8 8 9 9 8 8 8 12 19 25 35 40 35 40 42 39 40 40 39 39 39
91 98 98 100 99 93 91 94 93 92 90 89 80 32 12 9 9 8 6 7 8 8 9 10 10 9 9 12 14 21 28 32 34 45 43 47 41 43 43 48 47 41 42

GFSMA_850_rhum_096.txt.gz
RH
52 69 82 78 68 76 72 74 93 93 72 70 61 47 46 51 65 64 59 64 64 63 62 60 66 72 73 70 64 60 64 67 56 39 26 19 16 16 16 17 20 23 26
76 75 81 88 90 94 94 95 86 73 80 76 78 74 52 44 49 56 62 66 68 68 68 69 70 76 80 81 79 76 70 68 72 73 70 49 31 21 17 17 19 22 25
76 79 84 88 86 87 80 75 82 76 61 70 66 68 74 60 66 63 66 69 69 68 71 75 78 80 85 86 85 81 81 77 77 76 76 76 70 42 34 54 59 67 54
64 62 72 81 70 79 67 69 61 53 51 59 62 67 70 62 61 67 81 79 75 72 75 77 79 84 84 88 91 95 88 84 84 85 83 80 80 74 69 77 79 75 70
84 73 68 72 69 71 64 63 61 61 68 69 71 69 70 67 67 71 76 80 81 84 77 72 75 83 83 84 86 87 91 97 98 96 90 86 85 83 80 82 84 82 78
84 85 88 87 84 75 65 60 64 66 64 71 70 69 64 65 68 68 74 85 92 90 79 72 74 80 80 82 85 86 85 87 99 96 95 87 91 94 89 86 79 84 84
97 88 81 94 99 89 78 75 75 72 66 68 72 69 69 71 72 76 77 84 88 89 87 78 80 85 87 81 84 84 82 85 88 96 98 91 83 98 94 93 88 80 89
92 97 88 93 100 98 94 89 92 79 75 74 74 81 85 77 80 83 86 91 90 89 85 83 81 86 86 86 85 86 88 84 78 83 92 99 97 96 97 88 93 90 86
86 81 82 80 84 94 92 84 86 84 78 82 83 86 92 88 85 84 89 88 82 82 87 87 86 90 90 88 88 83 85 85 85 83 81 90 98 93 99 94 98 85 84
85 82 81 79 78 81 78 80 81 77 78 78 94 89 95 94 92 90 87 85 81 84 88 93 91 89 87 92 89 85 79 78 78 77 80 92 94 98 100 95 99 91 98
67 62 68 68 63 58 60 67 78 83 76 89 94 92 93 98 100 100 99 96 91 89 95 92 93 92 86 86 83 84 85 81 75 71 79 80 85 87 99 99 100 100 96
72 68 64 70 69 58 57 59 62 74 72 83 93 99 98 96 90 99 98 96 100 99 93 96 96 91 83 82 84 80 80 84 76 70 82 88 94 86 90 100 100 99 97
68 61 68 67 65 42 46 48 52 68 89 96 97 99 100 99 98 98 97 99 96 95 88 79 85 90 89 89 84 83 79 83 75 78 91 92 93 94 99 100 98 97 98
52 50 54 50 46 44 40 38 78 99 100 99 98 100 99 98 98 99 99 93 99 100 100 90 83 87 86 86 85 82 83 82 79 77 79 77 81 79 84 100 100 99 85
64 60 76 67 45 35 33 37 48 63 98 97 98 98 98 100 98 97 100 98 94 98 98 92 88 88 87 82 83 86 84 83 78 78 76 75 78 78 82 82 85 87 80
52 45 37 35 32 33 37 42 47 50 72 96 98 87 98 73 100 100 100 97 92 92 100 98 94 98 98 95 87 88 89 82 80 80 77 79 80 80 81 80 79 83 89
36 34 37 39 40 41 44 43 43 48 64 81 99 100 77 98 97 100 98 97 90 90 100 100 100 100 99 98 87 85 88 82 83 82 86 89 88 87 88 87 85 86 88
39 44 46 48 50 51 51 52 56 84 99 98 98 96 97 98 96 100 98 94 87 68 70 90 99 100 100 99 92 87 91 89 92 96 96 89 88 84 84 82 85 88 86
50 50 52 53 54 56 60 65 72 85 100 98 99 99 100 99 99 99 89 89 59 62 69 75 90 95 100 100 96 90 90 91 90 89 86 86 85 80 78 75 66 45 23
49 49 52 53 55 58 62 65 71 86 100 100 99 100 99 98 97 99 90 63 66 72 77 80 85 97 97 93 88 84 88 86 82 80 74 68 59 38 22 13 10 9 9
54 56 55 56 57 60 65 70 74 75 85 99 98 98 99 100 96 75 67 69 74 79 81 79 79 80 82 83 83 82 84 80 65 42 22 12 10 10 8 8 11 16 19
59 60 62 63 65 65 68 72 76 78 78 80 80 81 80 74 74 73 76 81 80 76 75 74 75 78 75 63 66 61 59 40 19 14 11 9 8 11 13 18 25 28 30
65 65 66 68 72 73 74 76 76 79 81 81 81 82 84 82 87 88 87 83 79 79 80 74 67 44 31 24 22 17 14 12 12 9 9 12 20 25 25 29 31 33 34
67 68 70 71 76 83 83 81 83 87 92 94 95 94 93 90 88 87 85 82 72 53 31 21 12 11 12 11 10 10 10 10 10 10 18 27 29 32 32 32 31 34 35
72 72 76 82 93 97 94 92 94 99 100 100 100 100 95 89 85 79 49 16 10 10 10 8 9 9 9 8 8 8 8 12 15 24 31 33 29 33 35 35 35 36 38
77 77 84 96 98 100 99 96 100 100 100 100 100 95 90 80 39 13 10 9 9 9 9 8 7 6 6 6 7 8 14 22 27 31 32 37 34 36 37 36 40 40 41

GFSMA_850_rhum_099.txt.gz
RH
54 48 48 53 50 46 44 53 58 58 66 57 57 48 42 46 55 52 53 57 62 64 65 65 66 69 74 77 77 73 64 63 67 64 50 31 22 18 18 18 20 23 25
52 48 54 65 66 66 72 76 69 74 73 60 65 58 50 39 42 47 53 59 64 68 70 73 72 73 77 80 82 81 77 74 72 72 73 68 52 28 27 41 59 63 57
68 70 72 82 79 81 83 86 89 69 62 57 60 55 53 52 50 58 60 61 66 71 74 76 80 80 84 82 81 84 85 83 80 80 78 77 72 56 66 74 74 70 67
72 78 76 84 90 89 93 86 75 69 68 61 55 53 56 58 57 58 64 66 72 76 78 76 74 77 82 85 88 94 92 88 86 87 88 84 80 76 73 78 78 76 74
54 59 69 73 72 71 65 68 63 64 58 59 58 60 59 59 61 65 70 76 81 82 83 79 73 75 80 80 81 82 89 98 100 100 97 85 86 85 82 80 76 74 75
72 69 66 68 69 72 71 66 66 68 61 66 73 68 64 62 62 63 72 81 86 94 93 89 78 76 81 80 81 82 85 93 100 99 98 100 95 90 93 85 83 73 75
85 83 74 69 77 79 69 69 70 74 76 73 72 69 67 66 66 70 82 86 90 90 93 91 84 82 80 85 80 76 85 80 80 90 94 95 92 92 99 93 88 86 82
86 85 84 83 91 95 91 84 78 82 82 79 77 80 77 70 70 77 88 90 92 88 89 90 85 86 85 88 82 82 82 74 76 85 86 89 93 92 95 99 85 84 80
90 89 94 85 94 100 98 89 86 87 85 84 81 86 88 84 82 81 88 95 92 88 87 85 88 86 88 93 91 86 78 76 75 80 82 84 86 96 97 100 96 96 85
89 93 93 86 88 91 85 85 83 90 92 85 86 90 91 96 92 88 93 94 91 87 87 89 93 93 92 89 89 89 87 82 75 78 77 76 87 91 97 97 98 100 90
87 85 80 89 86 84 80 76 76 76 74 74 72 78 85 87 100 99 96 90 86 89 94 96 94 93 94 88 83 78 76 76 78 82 77 70 66 75 87 92 99 100 97
74 73 73 74 86 88 82 73 74 71 70 67 70 70 80 76 96 99 100 99 96 92 93 100 100 94 92 91 86 86 82 79 84 80 66 82 92 80 79 92 99 100 100
75 79 80 83 76 72 63 62 62 69 55 45 43 71 77 97 99 94 99 92 87 95 93 88 91 85 86 88 86 88 80 78 83 80 95 98 80 82 99 98 99 99 99
58 57 61 75 76 66 74 72 65 54 53 46 48 57 82 87 89 95 93 97 96 98 94 98 86 89 88 88 86 76 81 84 88 80 71 78 76 82 84 97 100 100 100
60 64 65 75 54 55 56 56 63 60 53 54 55 75 88 88 87 86 91 90 99 99 98 98 89 90 90 93 90 84 81 85 84 80 82 76 74 76 78 82 82 86 79
81 81 79 78 72 68 46 39 37 38 35 41 48 81 92 93 93 89 91 87 99 100 100 99 98 96 97 99 97 86 88 89 85 80 83 78 77 80 81 80 79 79 80
67 62 52 42 38 35 35 34 34 34 36 39 54 84 98 87 100 98 98 89 91 94 100 100 99 98 99 98 100 79 87 85 85 85 78 80 84 86 88 84 87 86 84
41 40 40 43 43 44 45 46 49 48 47 47 64 79 95 97 82 88 95 100 95 100 99 100 100 99 99 99 100 98 94 88 91 98 86 83 86 88 88 87 86 84 85
43 44 47 50 53 54 55 54 57 63 66 79 81 97 92 97 96 95 99 99 99 94 86 74 91 98 100 100 100 100 99 96 91 91 86 86 87 88 86 80 77 72 49
51 52 50 49 51 52 54 58 59 65 74 95 99 98 96 96 98 99 99 99 99 84 66 72 85 99 100 100 100 99 94 90 87 84 81 77 72 65 52 35 22 12 10
54 53 53 54 55 56 54 57 63 63 72 90 99 98 98 99 98 98 98 99 83 68 74 78 86 88 98 99 95 90 91 86 77 68 49 27 17 14 12 10 9 11 14
56 58 60 61 61 60 62 64 66 70 76 80 88 99 99 98 99 100 96 78 74 74 74 83 81 80 81 83 83 82 80 67 51 21 17 12 10 10 12 14 19 25 27
61 62 62 61 62 62 62 66 72 75 79 82 84 84 87 86 80 77 78 81 84 83 81 79 77 76 73 66 55 54 51 38 15 12 11 10 13 18 22 26 28 30 32
66 66 66 66 66 66 63 68 77 81 84 91 91 91 88 90 89 92 92 94 92 86 84 78 73 59 35 34 22 19 15 12 10 9 10 15 24 31 32 32 32 34 35
69 69 71 71 71 71 70 75 86 92 100 100 100 100 100 98 97 93 90 89 86 74 50 23 18 11 13 15 14 11 9 8 8 12 23 27 26 32 35 34 34 35 37
73 75 76 76 78 80 89 88 96 100 100 99 100 100 100 99 97 89 86 53 18 12 11 10 10 8 8 9 9 7 8 9 15 23 25 29 31 33 33 35 38 40 40

GFSMA_850_rhum_102.txt.gz
RH
41 40 49 45 42 40 41 44 51 61 58 49 48 47 49 47 48 46 48 55 61 64 66 68 69 72 75 79 81 77 73 69 70 68 58 42 28 21 20 25 42 54 56
48 41 40 48 49 53 53 64 70 67 67 65 71 61 54 46 41 45 51 58 64 68 71 72 71 74 79 81 84 85 83 78 75 73 72 69 49 38 61 70 68 64 62
47 38 45 56 66 69 73 71 69 70 72 70 54 54 59 58 50 54 59 64 69 74 76 77 76 83 84 83 80 85 90 89 86 83 81 78 70 65 73 74 71 69 68
50 52 58 60 76 72 75 77 77 72 70 66 58 57 54 58 59 56 58 65 72 80 83 81 75 75 74 77 84 91 97 95 95 92 89 86 81 76 76 75 73 69 72
51 55 62 70 79 80 83 82 83 74 68 65 58 58 59 62 64 66 66 70 76 83 87 89 84 75 75 76 77 83 88 99 98 98 99 90 88 88 82 80 72 69 70
58 59 68 77 81 86 84 77 67 68 67 65 70 65 64 62 63 64 68 78 85 89 92 95 92 85 79 80 79 68 74 88 98 98 98 100 98 94 93 82 83 75 72
82 78 70 67 71 71 72 69 71 71 70 70 75 74 67 65 66 68 77 80 92 94 90 92 90 90 84 82 82 82 78 79 89 89 90 99 100 96 96 95 89 82 74
84 84 84 81 74 77 80 84 80 73 73 80 85 83 82 70 66 72 80 89 93 93 89 89 86 91 88 86 87 88 83 74 73 73 71 85 92 99 94 95 96 88 83
90 87 95 94 90 79 64 70 73 73 80 83 88 95 91 87 83 81 77 91 95 89 94 94 85 88 82 86 89 88 87 83 81 79 78 80 83 88 94 99 98 97 88
91 96 96 90 87 92 76 77 79 74 80 79 93 97 96 93 96 91 90 82 97 96 96 93 91 92 92 89 87 87 83 85 80 82 79 79 77 78 81 95 99 98 100
100 99 95 96 100 96 96 97 89 85 84 80 79 87 86 88 83 90 97 91 94 94 89 81 89 88 94 95 89 86 79 79 73 70 76 79 72 63 58 73 95 99 100
92 88 89 81 77 95 98 90 88 87 86 82 80 77 84 88 73 75 86 91 97 95 90 82 89 99 99 88 83 88 87 82 73 75 78 72 87 83 72 72 81 99 100
71 70 71 70 61 66 67 84 85 77 76 71 65 75 74 65 65 62 77 82 89 96 93 82 83 89 93 88 86 86 80 76 79 78 89 98 93 76 86 92 97 100 100
69 71 76 76 78 79 75 81 81 90 82 81 76 60 59 68 67 75 71 85 93 100 97 93 79 90 92 91 90 91 84 82 91 91 86 87 83 74 79 98 96 98 98
62 58 61 62 62 64 59 56 63 58 57 56 75 75 75 70 84 92 91 89 88 99 96 94 89 93 96 95 95 92 90 86 88 96 86 74 82 81 79 78 82 86 94
61 58 62 68 69 68 64 68 76 61 46 39 39 41 48 58 79 93 82 85 87 95 100 97 97 98 100 96 97 99 99 92 89 91 87 82 80 76 80 80 79 78 78
64 68 73 76 77 76 61 46 38 38 39 40 40 39 44 72 83 92 88 96 94 93 99 97 100 99 99 100 99 98 98 87 94 88 82 83 84 84 85 85 85 82 81
44 40 46 44 41 42 42 45 45 46 47 49 51 50 51 70 84 87 91 92 99 99 98 99 100 100 100 99 99 99 100 96 97 99 88 88 89 90 90 88 86 85 84
44 44 44 47 51 51 50 50 52 53 53 54 61 65 72 82 92 92 89 99 98 99 99 100 100 100 99 99 98 98 97 100 99 98 92 89 91 91 86 85 83 81 78
46 43 44 47 49 48 49 49 50 50 56 53 62 98 99 99 100 100 100 100 99 99 100 99 93 96 100 100 100 99 99 100 99 95 92 87 81 81 80 74 62 42 21
48 48 50 52 54 55 56 56 57 58 58 68 63 82 99 98 99 98 98 98 100 98 98 94 78 98 100 100 100 100 100 100 93 87 80 68 53 38 26 15 11 10 10
52 53 54 56 58 59 58 58 58 61 65 67 72 84 97 99 98 97 97 97 97 100 84 80 88 90 92 96 100 99 97 92 83 73 62 29 17 14 12 11 12 17 20
57 58 60 61 62 62 62 61 60 60 67 72 76 86 91 98 100 100 98 97 93 82 81 87 89 86 86 88 90 87 83 80 73 40 20 17 13 14 17 20 24 26 28
63 65 67 67 67 68 68 66 64 62 72 81 89 94 98 98 97 96 95 96 99 97 93 87 84 81 78 76 77 69 66 53 41 20 15 14 18 25 27 30 30 30 30
70 71 72 72 74 76 76 74 68 66 83 98 100 100 100 100 100 100 100 100 97 97 93 88 84 81 65 39 35 26 22 17 16 13 14 20 26 30 30 32 31 30 31
74 74 74 75 76 78 82 78 74 76 94 99 99 100 99 99 100 100 98 98 90 83 64 39 26 16 13 12 14 13 13 11 11 11 22 30 29 29 31 30 34 35 36

GFSMA_850_rhum_105.txt.gz
RH
34 33 32 33 34 34 35 37 38 44 48 48 48 50 52 55 54 54 55 59 64 68 69 69 71 74 77 80 82 81 79 73 70 68 60 48 32 27 38 64 64 62 61
45 41 42 44 46 46 48 48 56 65 68 60 56 56 54 48 46 48 55 61 69 74 73 72 71 79 80 80 82 87 88 84 79 75 73 69 49 58 70 69 66 64 65
43 46 49 49 57 58 59 60 67 66 66 64 63 69 67 62 52 48 57 63 69 77 81 81 79 83 74 78 83 84 92 94 91 86 82 78 70 68 73 70 68 65 65
47 41 40 52 67 69 71 73 76 74 72 66 67 63 65 66 65 57 58 64 72 78 82 86 83 77 74 75 82 93 93 99 99 95 90 85 80 76 76 73 68 65 65
46 50 54 61 72 77 79 78 79 80 78 79 78 71 61 60 64 68 68 68 73 81 88 91 89 84 76 77 81 80 82 92 92 97 94 94 85 83 82 81 72 69 68
58 53 60 67 72 77 82 85 83 82 81 76 72 66 63 64 70 71 73 78 82 87 89 94 90 88 84 82 77 79 85 85 86 92 98 99 98 91 90 82 81 75 71
72 65 58 63 71 76 82 84 82 80 74 72 74 70 69 69 67 71 76 79 85 91 90 86 81 83 89 88 88 83 84 83 86 88 92 94 98 98 91 87 86 82 73
79 80 80 80 78 77 79 79 74 67 66 74 79 80 78 71 72 71 75 79 87 92 93 88 88 92 78 85 81 81 89 87 78 76 76 76 79 96 96 95 93 94 85
84 79 81 86 86 91 86 85 86 90 71 81 86 93 93 87 83 82 82 80 84 82 80 82 95 89 86 84 86 90 88 85 83 86 85 81 75 80 88 97 88 95 97
85 85 87 88 92 81 83 82 90 94 82 84 88 88 85 89 87 91 88 85 86 83 89 90 99 91 79 81 85 88 89 87 80 79 72 79 78 78 76 86 94 97 99
87 90 96 86 78 78 83 84 80 100 96 93 92 97 94 98 98 98 92 86 90 92 81 92 97 89 85 85 92 87 87 85 81 79 67 70 75 71 65 64 81 97 99
80 81 88 75 78 79 73 84 87 65 80 80 91 96 94 91 93 98 92 78 75 85 82 94 94 89 78 83 86 82 82 82 78 75 69 70 77 88 80 73 74 79 99
66 66 68 69 75 80 88 97 92 84 84 80 80 84 80 79 84 75 91 98 79 85 88 95 98 87 83 84 86 87 88 86 70 74 87 98 94 89 73 80 70 83 100
68 70 70 75 86 89 87 86 90 86 84 90 98 80 80 84 72 70 73 81 86 94 98 99 94 91 90 88 94 92 94 92 81 89 82 92 97 92 76 71 100 99 99
68 66 64 76 82 73 72 78 75 68 63 70 73 76 77 76 72 79 84 87 90 100 99 98 98 93 93 92 100 95 95 95 88 100 100 83 83 85 80 78 90 94 99
60 63 64 62 65 71 77 76 71 71 77 69 59 51 49 47 48 73 100 100 99 100 100 99 99 95 97 98 99 96 94 100 96 94 98 90 82 84 82 81 80 80 77
64 64 67 68 66 73 77 74 67 52 43 42 42 45 47 48 45 56 98 98 100 100 100 98 100 96 100 100 99 100 97 100 99 100 98 92 84 82 79 85 80 81 79
70 70 58 52 49 46 43 42 42 45 49 52 51 51 57 60 61 93 92 97 100 100 100 100 98 100 100 100 100 100 100 98 100 100 100 90 87 84 89 89 86 86 85
62 50 46 46 44 44 46 48 49 49 49 49 52 55 60 64 76 95 100 99 96 100 98 99 100 100 100 100 100 99 99 97 100 100 100 96 86 89 92 93 89 86 83
50 51 51 50 49 49 49 50 52 53 54 55 56 57 62 76 93 98 100 98 99 100 100 99 100 100 99 100 100 100 99 98 99 100 100 94 92 89 86 86 84 79 72
53 52 52 52 53 53 54 55 56 57 57 58 60 63 66 74 92 96 98 100 100 100 100 100 100 99 100 96 94 98 100 98 99 100 98 90 83 76 67 59 51 34 19
53 54 56 57 58 59 58 58 58 59 60 58 58 64 73 80 99 98 96 94 98 99 95 96 98 97 85 100 100 99 100 99 99 90 87 78 64 37 20 13 10 9 10
57 59 60 61 62 63 62 61 62 64 65 62 60 66 78 89 100 99 98 99 98 98 98 99 98 88 90 92 99 100 100 99 98 85 53 63 30 16 13 11 11 16 20
62 63 65 66 67 66 66 66 68 68 69 65 63 75 98 100 100 100 100 100 95 89 94 98 97 95 96 94 98 98 96 97 92 76 52 17 14 13 18 18 21 25 27
67 69 70 70 70 70 71 70 70 73 74 70 72 95 99 99 99 99 99 100 100 100 100 99 99 92 90 88 83 81 73 72 64 47 25 16 12 19 25 29 30 28 30
72 72 73 74 73 73 73 74 75 78 80 78 90 100 100 99 100 99 100 100 100 99 98 94 94 92 85 83 63 46 46 38 28 18 13 15 20 26 31 29 30 31 33

GFSMA_850_rhum_108.txt.gz
RH
29 31 33 34 35 34 33 34 36 42 50 56 57 55 54 52 52 54 56 58 62 66 68 71 73 73 75 76 80 82 81 76 72 70 66 57 45 52 66 64 62 62 61
27 28 29 30 32 35 38 41 42 50 58 57 55 55 57 54 52 51 55 59 65 69 72 75 79 79 74 74 83 86 88 86 82 78 74 70 61 67 68 65 63 61 61
40 38 38 39 45 46 48 51 57 65 70 67 64 65 67 68 68 54 54 63 72 78 82 84 83 80 82 82 89 86 85 85 89 89 83 78 71 69 72 67 64 63 62
45 45 48 51 59 58 61 60 66 71 73 71 68 66 61 63 65 66 60 63 69 78 85 89 90 82 77 75 79 87 94 99 98 94 89 87 81 76 75 72 69 67 65
46 45 40 44 60 69 72 74 78 77 77 74 70 71 69 64 63 63 69 72 70 75 84 91 93 88 79 74 75 78 84 90 88 86 96 91 90 84 80 80 73 70 68
50 51 53 58 64 69 73 73 75 80 78 72 71 69 64 63 63 68 72 74 78 81 86 89 84 83 79 84 84 83 84 87 87 87 92 95 97 88 88 81 75 74 70
65 58 56 58 64 63 66 75 83 79 77 79 78 70 62 71 67 63 66 72 77 82 88 88 85 82 82 76 84 74 79 82 87 83 81 90 98 88 96 92 83 75 77
78 75 74 69 68 72 76 81 85 84 85 84 89 88 74 77 74 72 72 73 75 80 87 87 83 81 89 80 79 78 83 81 83 86 79 79 80 85 93 95 91 90 88
87 80 86 84 84 86 86 88 87 87 87 88 94 99 89 88 86 78 74 77 77 75 77 78 81 80 96 89 83 71 79 79 82 83 81 81 83 80 80 92 97 91 89
77 83 87 91 88 83 88 98 98 95 81 79 96 91 93 94 98 92 86 86 85 85 89 77 86 96 94 90 76 75 83 82 80 82 73 72 66 66 71 79 84 97 90
76 86 97 100 100 90 86 90 86 80 87 85 78 69 87 95 100 100 100 91 88 89 84 83 89 96 96 89 79 77 80 76 74 78 78 73 62 63 60 58 62 80 99
80 85 82 83 75 75 93 92 90 87 91 89 93 96 98 94 88 94 97 97 85 83 89 83 78 90 100 95 86 80 83 78 77 74 70 68 71 85 91 84 76 72 77
71 75 77 76 79 75 78 79 81 87 94 90 95 94 93 94 92 94 94 87 80 81 99 84 78 85 99 100 88 88 93 81 82 83 87 86 93 94 86 67 61 74 79
75 70 68 67 63 73 81 83 82 97 97 99 95 97 98 89 88 90 93 90 86 89 93 91 85 95 100 100 98 94 96 89 91 85 77 100 100 98 94 76 69 79 96
71 71 69 64 74 82 75 67 71 84 84 72 72 82 81 80 82 84 97 100 99 100 99 96 98 96 99 100 100 100 100 94 95 95 100 92 84 83 90 75 85 100 100
75 70 65 65 62 61 65 75 81 82 81 84 74 49 47 49 48 50 53 64 91 96 100 96 92 96 92 100 100 100 100 95 93 98 100 100 93 82 91 84 72 87 90
71 64 63 62 66 71 71 71 69 59 50 46 44 44 46 50 52 54 55 63 73 99 96 100 100 100 100 100 100 99 100 99 97 99 88 100 100 91 84 86 83 78 80
65 66 67 65 56 49 44 44 44 44 46 47 48 49 50 53 59 64 66 98 100 99 100 98 98 93 100 100 100 100 100 100 98 100 98 100 100 92 85 85 85 85 82
70 75 73 50 46 47 48 48 48 48 48 48 50 51 51 53 54 58 68 92 98 100 98 100 100 100 100 100 100 99 100 100 99 99 100 100 100 91 94 94 90 89 88
80 62 50 50 51 50 49 50 52 54 54 54 54 53 54 57 61 65 82 96 100 99 100 100 100 100 100 100 99 99 100 99 99 99 100 100 100 98 98 99 94 89 85
53 53 53 51 50 51 53 55 56 57 57 57 58 58 58 59 62 70 85 94 95 100 100 100 100 100 100 100 98 99 100 100 100 98 99 100 100 99 89 84 81 78 75
57 54 52 53 55 56 57 58 60 60 61 62 64 64 62 62 64 77 99 99 97 94 99 100 100 99 99 100 100 100 100 100 100 99 99 98 92 83 69 54 42 29 19
55 54 56 58 61 63 64 65 65 67 67 66 66 66 63 62 65 85 100 99 98 98 94 97 98 97 98 95 98 100 100 100 99 99 92 92 83 69 39 21 13 11 11
58 61 62 65 67 68 68 69 69 71 70 69 70 70 66 65 89 98 97 98 97 99 100 100 100 99 100 100 100 100 100 100 100 100 97 65 52 39 18 15 11 14 18
64 68 69 69 70 72 73 73 70 70 70 72 73 73 70 82 100 95 93 97 99 98 98 98 99 100 100 100 97 96 100 99 99 99 91 73 26 15 16 18 20 24 26
70 71 71 72 72 72 71 70 71 73 76 75 80 80 89 98 100 98 93 98 100 100 100 100 99 100 100 98 92 89 99 94 90 89 66 50 22 16 21 23 28 30 30

GFSMA_850_rhum_111.txt.gz
RH
36 37 37 38 37 37 39 40 41 41 44 50 53 52 53 52 53 53 55 58 64 67 69 72 74 77 71 68 75 79 79 77 73 70 67 60 53 65 64 62 60 57 56
33 34 35 36 36 37 38 37 39 43 50 54 55 54 54 52 50 49 51 56 63 69 72 77 83 81 74 70 74 80 82 82 82 80 76 71 64 67 68 65 62 62 59
33 33 33 33 32 32 35 39 42 49 64 71 68 65 68 67 66 61 51 56 63 69 76 82 85 82 78 78 79 78 82 81 85 86 87 80 73 70 72 68 64 64 63
32 31 32 34 39 43 46 50 54 65 71 72 71 70 65 62 64 66 64 61 66 71 77 84 88 85 78 73 76 82 82 90 95 86 79 79 82 77 75 73 68 67 66
48 46 48 56 55 59 60 62 64 71 75 76 75 71 70 68 61 58 62 66 68 68 73 82 88 89 83 76 77 80 80 79 81 87 86 92 88 84 81 77 74 69 67
53 54 57 63 63 71 72 72 75 80 82 79 76 73 73 70 68 64 65 71 73 73 76 84 87 79 72 76 81 80 70 81 81 82 84 89 96 89 88 84 81 74 69
58 61 59 59 66 70 72 83 89 89 88 84 81 73 73 72 70 76 72 71 74 72 75 82 84 85 86 85 89 82 77 72 76 80 83 77 80 95 88 89 87 77 77
64 60 61 66 70 74 78 85 91 93 89 84 74 71 79 77 78 76 74 74 75 78 81 82 83 82 83 90 91 80 81 77 75 76 81 85 81 79 89 88 88 88 85
78 77 74 72 73 78 82 86 90 94 87 76 81 88 91 83 82 84 80 76 73 76 85 85 78 82 82 87 91 89 80 83 82 81 83 79 76 81 83 79 84 93 86
78 84 87 87 88 91 98 94 94 92 78 70 78 86 95 87 93 94 87 92 91 89 90 90 88 84 88 98 94 90 80 78 76 74 67 72 70 67 66 73 73 85 99
75 90 79 95 92 93 76 87 90 82 85 83 85 88 89 92 93 99 99 100 98 94 92 89 79 88 80 83 97 88 86 87 80 78 66 63 68 63 58 54 60 72 80
76 82 76 99 86 85 76 81 87 98 93 97 96 95 97 100 100 99 99 90 89 88 90 79 82 78 80 78 86 100 94 88 83 81 75 63 69 82 85 82 83 76 74
76 72 81 87 83 84 85 88 90 86 86 95 94 94 95 94 99 98 95 97 94 86 75 75 88 85 81 88 96 100 99 95 89 85 90 71 76 89 88 80 69 55 67
84 83 83 90 88 77 78 81 77 78 89 89 90 89 82 79 89 93 95 94 97 99 88 91 98 96 93 98 99 100 100 100 98 91 87 82 76 99 98 88 64 46 79
76 78 79 72 68 74 72 66 66 70 75 78 68 67 75 77 66 70 80 93 98 99 97 98 94 88 81 94 100 100 100 99 99 95 91 91 86 84 83 88 74 95 94
71 73 70 67 67 65 65 71 79 82 82 83 82 70 46 45 46 48 51 52 59 91 100 92 90 87 92 91 91 96 100 100 100 97 95 98 99 100 92 78 74 88 100
76 73 68 66 66 66 64 60 57 54 49 45 43 44 47 48 47 48 53 58 64 82 99 99 100 91 99 92 95 98 100 100 100 100 96 100 95 100 97 82 82 76 80
77 70 67 66 66 54 43 42 43 42 44 46 47 47 46 48 50 51 53 54 60 97 100 98 99 99 98 98 91 99 100 100 99 100 100 98 99 100 98 89 90 81 85
71 67 66 72 55 45 46 46 45 45 46 47 49 50 50 49 50 53 55 58 64 92 98 100 100 97 99 100 100 100 99 100 100 99 100 100 100 100 99 94 96 92 89
72 73 79 59 49 50 49 46 45 49 50 52 52 53 53 54 55 55 55 58 67 81 95 97 99 99 99 100 100 100 99 100 100 100 100 99 100 100 100 100 100 96 94
77 74 54 52 53 50 47 48 51 56 57 57 57 57 59 59 60 59 59 62 70 86 98 98 100 100 100 100 99 99 100 100 100 100 100 98 100 100 100 100 100 98 94
59 54 56 54 52 51 52 55 57 60 60 61 62 63 64 64 63 62 59 60 82 97 95 96 100 100 100 100 100 100 100 100 100 100 100 99 98 100 98 91 83 80 76
61 59 57 57 55 55 57 60 63 65 67 67 66 64 66 68 66 62 62 80 98 100 99 97 97 96 100 100 100 100 100 100 100 100 100 99 100 100 88 73 58 38 27
62 60 59 57 60 64 65 66 68 69 68 67 66 66 66 68 71 66 77 87 94 98 98 98 98 99 98 100 100 100 100 100 100 100 100 99 96 92 79 58 29 18 14
60 62 64 68 68 69 70 68 66 67 68 70 70 69 69 71 74 72 87 92 92 93 98 99 98 97 98 99 100 99 99 99 100 100 99 100 90 61 46 31 20 17 16
68 69 71 71 72 68 65 65 66 71 74 75 77 78 82 82 99 99 100 95 96 98 97 98 99 99 100 99 100 100 100 100 100 98 99 100 88 43 22 18 18 24 28

GFSMA_850_rhum_114.txt.gz
RH
94 95 93 94 92 66 46 43 47 48 54 59 55 59 56 66 58 61 88 58 61 64 68 70 71 68 63 64 71 73 73 74 74 71 68 58 59 65 64 61 59 58 55
92 92 86 79 61 46 45 46 48 46 46 65 62 52 51 50 51 52 64 64 61 66 72 76 82 79 74 67 72 77 80 77 79 80 78 73 65 68 68 65 61 62 60
73 47 44 45 44 42 42 42 42 54 78 66 80 62 63 65 58 56 49 65 65 67 72 78 86 81 71 67 68 73 78 78 83 81 82 82 77 70 71 69 65 65 63
44 41 41 40 41 41 37 38 44 65 90 80 85 76 70 62 65 66 64 57 61 69 71 80 83 84 77 69 71 69 69 75 80 77 80 80 83 79 74 73 70 67 65
42 41 42 40 37 39 46 53 58 79 79 81 79 72 69 69 68 63 60 64 65 65 68 77 85 87 85 78 78 80 75 68 77 78 83 80 91 90 82 78 77 70 67
36 38 40 43 50 62 64 66 70 80 87 85 79 71 68 62 56 56 57 61 68 72 73 76 88 84 83 88 84 82 80 72 72 73 76 79 83 95 87 82 81 78 71
51 57 65 74 77 76 78 84 88 88 86 79 74 82 64 64 69 73 75 75 77 73 73 82 92 88 86 87 88 92 86 81 74 81 78 76 78 77 99 90 88 86 77
70 68 70 72 72 76 84 85 88 87 86 71 76 87 86 90 75 71 70 80 90 80 74 79 84 89 93 88 83 95 88 86 78 82 84 77 81 80 77 89 91 93 89
56 66 71 74 72 78 81 81 85 89 82 74 78 88 92 84 92 82 80 78 77 82 79 88 88 85 83 84 88 98 94 92 83 84 90 83 77 77 77 78 82 87 95
67 70 72 77 77 80 84 84 84 81 74 72 86 81 84 94 98 91 91 85 85 95 92 96 91 92 89 98 97 99 97 94 90 86 76 82 76 75 69 67 74 76 85
82 80 81 79 81 84 87 80 71 60 70 82 84 86 89 88 89 95 98 100 94 82 88 88 88 79 78 79 84 86 92 97 91 87 83 79 74 83 67 64 56 68 76
75 84 94 92 94 96 93 86 79 77 75 87 86 92 92 90 86 91 99 95 88 81 83 82 77 77 80 79 83 90 95 100 98 96 84 81 72 76 77 80 77 86 77
81 76 84 84 97 97 80 89 84 81 93 96 99 98 92 85 88 87 94 97 95 90 81 77 79 76 77 72 74 79 88 98 98 98 90 93 79 72 80 85 82 79 68
86 80 78 84 90 90 92 92 89 92 91 94 96 95 96 86 80 95 100 99 100 93 95 73 62 69 75 76 81 87 94 100 95 100 100 91 88 83 88 82 62 55 46
86 81 73 89 98 98 91 83 79 75 80 81 85 87 75 68 78 65 68 83 98 96 89 89 92 78 86 91 90 93 82 84 88 99 100 98 91 94 90 90 77 64 52
74 79 97 100 96 78 78 69 64 66 72 74 74 74 77 56 45 46 47 50 57 76 99 91 93 84 97 86 91 98 94 99 100 99 100 99 95 97 93 93 84 87 100
85 81 99 83 71 65 61 62 68 74 78 74 61 45 44 45 46 46 47 49 54 66 91 92 95 87 97 98 92 99 96 100 100 100 99 100 97 98 86 100 89 83 80
83 82 72 66 66 65 66 64 57 49 46 47 48 48 46 47 48 46 47 50 52 55 63 98 95 98 93 90 97 100 100 99 99 100 100 100 98 97 89 99 97 94 91
80 80 69 67 68 68 55 47 46 46 47 46 46 46 45 48 48 48 50 53 54 56 73 78 91 92 98 94 100 100 100 100 100 100 100 100 100 97 92 99 100 100 98
79 72 71 73 76 53 48 49 48 45 45 46 47 49 49 50 52 55 56 57 60 61 64 78 99 99 94 94 99 99 99 100 99 100 100 100 100 97 95 98 100 100 100
82 79 80 79 57 51 51 49 47 49 51 52 53 54 54 56 60 60 61 60 62 63 66 76 98 99 100 99 100 100 100 100 100 100 100 100 100 99 100 99 98 100 100
82 82 76 58 53 53 50 50 53 55 58 60 60 60 61 63 64 64 64 61 58 57 59 88 100 99 99 100 100 100 100 100 100 99 100 100 100 99 100 99 100 99 99
75 66 57 56 55 53 55 59 61 63 64 64 64 63 62 62 66 68 65 63 64 67 85 99 98 98 99 100 100 100 100 100 100 99 100 100 100 99 100 100 97 84 76
60 59 60 57 58 59 62 65 67 68 66 64 64 63 65 66 69 65 64 67 75 82 86 98 99 97 98 98 100 100 100 100 100 100 100 99 100 99 99 97 85 69 48
65 62 60 60 62 64 66 68 66 64 63 64 65 68 68 68 70 66 69 78 86 86 89 93 98 94 93 97 99 100 99 100 99 99 99 100 99 98 95 88 78 56 24
65 64 65 67 70 71 69 64 63 62 64 69 73 76 78 82 81 79 95 97 96 92 90 95 95 96 99 99 100 100 100 100 100 100 100 100 99 100 76 57 42 29 20

GFSMA_850_rhum_117.txt.gz
RH
87 98 99 98 95 91 88 87 82 85 82 78 77 76 79 82 84 86 78 54 56 59 63 67 69 67 63 63 67 70 69 72 74 73 70 63 62 65 64 62 60 60 56
86 92 98 99 94 92 89 82 79 80 80 78 76 75 69 70 77 83 87 62 55 58 63 68 77 76 72 63 62 68 75 77 78 80 80 77 69 68 69 66 63 63 58
91 92 93 92 92 92 83 78 76 75 76 81 82 76 73 73 65 68 78 84 64 59 65 70 85 82 71 59 64 64 64 71 75 75 77 79 79 73 71 71 67 64 62
93 95 93 93 93 85 82 78 73 74 88 96 94 92 83 77 83 82 71 69 78 78 68 71 77 81 79 68 76 74 69 66 68 71 77 80 81 82 76 75 73 68 66
96 93 90 88 86 81 78 75 74 87 95 95 82 83 73 67 61 78 82 82 80 77 91 92 82 81 83 79 78 77 79 78 80 74 73 81 83 87 89 81 76 75 69
91 88 85 84 78 74 74 70 91 92 98 96 71 67 63 67 78 75 83 86 85 82 79 94 94 84 85 83 84 83 81 81 77 81 74 77 79 82 92 90 82 80 77
78 71 79 86 80 73 89 76 77 71 75 73 74 76 82 92 85 75 72 72 85 73 78 94 99 99 96 88 86 88 90 88 82 77 79 77 81 82 83 88 88 84 86
57 60 84 91 91 97 98 86 83 78 80 73 81 87 85 87 86 73 72 73 82 83 79 78 86 86 89 95 100 99 98 98 88 84 80 83 75 82 82 85 87 96 93
72 61 97 98 90 79 92 78 74 77 82 95 94 93 83 82 89 91 80 79 87 82 81 79 83 92 94 87 84 89 99 100 98 88 87 88 78 79 73 75 80 90 99
88 78 85 63 62 59 72 74 76 75 85 94 89 84 82 79 91 90 92 88 85 86 86 89 87 88 86 84 86 90 84 91 88 92 91 92 80 72 71 68 68 80 84
56 54 61 67 71 76 80 82 82 83 86 90 79 87 81 84 89 97 98 94 92 86 78 80 85 82 76 76 76 75 72 75 85 88 93 90 81 87 87 69 75 84 77
54 71 76 74 74 80 82 84 87 81 82 91 81 88 89 97 98 87 88 93 95 90 80 76 75 77 73 78 82 80 83 86 87 85 78 82 86 92 88 81 74 81 84
73 76 80 82 82 85 91 88 70 65 82 85 85 92 95 97 96 98 100 98 99 98 87 70 72 78 81 79 82 88 88 87 91 95 89 77 96 91 90 88 81 77 81
98 94 88 84 79 80 75 68 63 78 98 98 99 100 98 94 89 83 75 91 95 96 92 90 84 69 68 73 79 84 88 95 96 98 91 67 87 89 89 89 84 69 55
98 89 89 84 78 73 75 73 87 97 99 97 92 88 87 87 80 69 75 76 98 97 87 80 96 88 84 73 87 93 98 98 99 100 100 100 99 97 91 89 83 66 58
91 95 92 81 84 74 71 91 98 88 90 73 73 76 79 72 72 61 42 47 52 68 99 66 81 72 69 80 78 96 95 100 100 99 100 100 100 98 95 93 83 75 75
82 91 94 92 78 74 90 90 80 68 66 68 74 75 75 62 44 45 45 46 52 72 98 92 69 68 70 92 91 93 91 100 99 98 99 99 99 99 95 92 81 76 82
78 67 80 93 96 91 92 86 70 69 71 68 61 50 42 43 47 49 50 51 50 57 71 80 81 71 83 94 92 87 99 99 98 98 99 100 100 100 96 94 80 86 97
87 89 98 100 98 90 90 73 70 63 52 43 43 44 45 47 48 48 49 51 52 54 59 64 77 76 84 91 91 86 93 100 100 100 99 100 100 100 98 92 91 91 100
98 100 100 91 89 80 74 71 53 45 45 46 45 45 48 51 52 52 54 56 55 56 58 63 69 76 91 99 100 94 95 99 100 100 100 99 100 99 97 92 87 99 100
100 82 78 74 73 72 69 53 47 49 48 47 49 52 53 54 57 58 59 61 59 58 59 59 67 94 96 97 99 100 100 100 99 100 100 99 99 100 99 96 94 97 99
89 86 76 75 75 76 57 50 51 49 49 52 53 55 57 58 59 60 59 61 62 63 63 68 68 91 98 100 97 100 100 100 100 99 100 99 100 100 100 99 97 97 100
88 81 79 80 79 61 54 53 53 55 56 58 60 61 62 61 60 61 62 60 60 61 63 66 74 87 98 94 98 100 100 100 100 100 100 99 100 100 100 99 100 99 97
89 87 83 73 60 57 56 58 61 62 64 65 64 63 63 64 64 66 68 67 66 68 72 76 81 85 89 97 99 100 100 100 99 99 100 100 100 99 100 99 100 100 87
84 76 66 62 60 58 60 64 66 68 65 62 61 65 68 72 72 70 69 70 69 72 73 81 82 86 94 95 96 99 99 100 99 99 100 100 100 100 99 98 99 98 80
66 65 65 64 62 62 66 68 68 62 60 61 65 68 70 72 76 80 80 81 82 80 82 84 86 88 93 93 98 100 99 100 100 100 99 100 100 100 99 97 94 80 74

GFSMA_850_rhum_120.txt.gz
RH
85 86 82 61 56 54 54 56 68 85 83 79 76 78 81 80 84 68 69 53 53 56 60 64 67 66 59 59 60 66 69 71 72 73 73 69 65 68 67 64 62 61 53
81 93 88 69 66 81 67 74 84 76 80 78 74 73 61 82 77 81 71 66 54 57 61 65 73 76 69 57 57 64 70 70 75 77 76 77 76 70 69 68 64 62 57
78 96 89 72 82 90 88 80 77 77 71 78 78 74 66 66 64 63 73 73 74 65 63 68 75 82 75 62 63 61 61 62 65 72 76 78 76 78 74 71 69 66 62
85 93 95 86 90 92 86 76 73 70 77 69 82 84 82 79 78 81 78 75 76 75 75 75 75 78 81 74 77 77 72 75 73 74 76 82 85 84 86 77 76 73 69
92 80 87 92 94 85 81 70 61 59 78 79 83 86 78 74 73 81 85 83 82 79 78 88 90 82 82 87 86 82 86 91 87 88 86 78 80 90 92 94 83 78 76
91 94 93 92 87 75 67 57 50 66 77 78 73 70 73 81 85 81 78 83 82 82 77 78 80 80 78 80 80 83 80 79 82 81 80 82 84 84 83 88 89 83 80
92 93 89 79 73 57 49 44 50 63 79 88 83 78 84 82 75 76 76 80 85 86 78 83 87 77 83 78 82 85 89 88 87 85 83 81 85 79 84 87 86 90 87
91 78 78 75 62 54 48 53 60 65 75 81 80 92 86 90 90 85 78 74 76 83 84 86 90 90 88 89 90 87 82 89 96 96 89 75 70 73 81 78 87 90 93
75 80 77 61 56 57 54 61 74 77 80 97 97 85 82 85 94 90 87 82 81 84 83 81 83 86 86 89 90 84 88 93 94 96 88 79 72 69 68 70 74 79 89
80 80 71 67 49 64 66 74 83 86 89 99 99 88 80 77 76 95 93 85 83 79 81 76 80 91 93 92 84 77 85 82 90 91 88 87 80 69 71 85 84 79 80
78 70 74 54 53 69 73 80 75 73 84 91 93 82 81 82 80 97 95 92 80 90 87 76 73 81 87 82 84 82 83 88 91 92 92 97 94 84 73 69 67 66 66
88 88 77 64 72 72 71 70 72 78 81 79 87 83 81 92 92 95 91 94 97 88 82 82 77 74 76 75 74 78 85 94 96 92 93 93 77 82 81 78 74 75 70
93 87 77 70 73 71 73 73 80 74 57 57 73 73 85 96 99 100 99 99 93 90 98 80 75 68 71 76 74 80 91 95 94 96 92 95 95 97 94 87 87 78 73
69 60 65 78 77 80 82 77 69 63 62 59 69 75 98 99 100 100 98 79 82 84 88 76 83 83 76 67 63 66 83 93 97 93 100 99 99 100 99 92 87 79 65
59 71 85 87 88 87 80 69 66 64 69 57 76 93 99 98 96 99 81 74 84 78 71 75 75 81 85 83 69 68 77 84 99 99 99 99 100 99 100 99 92 81 72
89 91 93 90 90 81 76 74 64 63 62 81 79 95 84 95 91 74 70 52 44 54 68 64 67 69 73 75 68 83 88 98 95 96 97 94 88 96 91 98 90 84 67
91 92 89 88 86 84 86 82 56 67 90 93 88 83 77 77 76 65 43 45 46 51 66 60 68 64 73 72 74 82 92 96 96 99 99 99 98 97 99 97 90 83 62
93 86 91 92 93 88 88 83 68 65 83 85 74 77 79 74 49 43 43 44 47 52 59 60 60 57 57 58 65 82 88 88 95 96 98 96 98 97 100 98 92 84 76
96 100 100 94 88 79 82 77 90 98 93 81 82 82 58 44 44 44 47 48 50 54 56 61 66 65 62 63 72 77 99 96 92 96 100 98 100 99 99 99 92 84 80
99 98 98 94 84 78 89 88 94 98 81 76 61 48 44 44 44 46 49 52 54 57 61 60 63 66 60 66 71 86 96 100 91 98 98 98 100 100 100 99 96 88 83
96 98 85 78 84 96 100 98 94 82 76 64 51 50 46 48 50 52 56 59 60 60 59 62 62 63 64 69 82 95 94 99 98 99 100 99 100 100 99 99 100 94 90
85 90 96 100 99 95 94 88 79 77 57 51 50 47 49 53 56 58 61 62 60 59 62 64 63 65 73 79 87 93 95 97 99 99 100 99 100 100 99 100 100 96 93
100 100 100 97 88 93 82 82 75 53 52 50 50 51 54 57 58 60 59 58 59 60 62 64 70 76 76 81 86 89 94 100 99 100 100 99 99 100 100 99 100 98 92
99 100 99 89 86 82 84 72 57 55 53 53 56 60 62 62 61 62 64 65 65 66 65 71 79 83 81 82 84 82 89 98 99 99 100 99 99 99 100 99 99 98 95
100 99 95 92 88 83 69 59 57 55 56 61 64 63 62 62 63 66 68 69 70 72 72 79 86 84 83 84 85 86 89 98 98 98 100 100 99 99 99 99 100 98 94
100 98 94 86 75 65 60 59 60 62 66 66 62 60 58 62 64 63 64 72 78 81 80 82 86 86 82 83 86 88 95 97 100 99 98 100 99 100 99 98 96 96 98

GFSMA_850_rhum_123.txt.gz
RH
84 82 72 43 38 42 47 54 65 71 75 76 81 80 81 78 74 66 65 55 56 59 62 66 69 68 60 59 61 66 71 74 77 79 78 75 70 71 72 69 65 60 52
81 82 69 47 44 47 52 57 60 67 78 80 78 79 83 81 80 71 73 73 63 58 62 65 70 76 72 60 61 61 63 67 73 78 79 82 80 76 73 69 65 63 56
83 80 64 57 50 50 56 66 71 71 70 74 72 66 60 70 74 67 70 70 67 68 60 65 69 79 77 70 63 66 62 64 65 68 76 80 84 78 74 74 73 69 64
83 80 66 61 67 70 74 66 76 65 67 72 77 74 72 74 78 81 80 76 70 69 66 70 74 73 76 80 77 83 79 88 86 80 76 72 75 79 84 84 79 76 72
82 85 82 64 82 82 87 68 61 58 60 67 77 89 84 85 84 82 85 84 80 78 72 73 73 83 81 82 85 80 83 88 81 80 84 84 84 80 82 90 90 84 79
77 85 88 79 79 92 85 63 56 58 61 73 84 91 86 78 71 74 80 82 81 80 81 69 75 78 79 79 83 86 87 86 87 88 85 85 81 82 85 86 87 88 85
79 86 88 80 82 92 70 56 54 55 73 85 85 81 81 79 86 81 76 80 79 81 83 80 79 80 81 91 87 91 95 99 100 100 98 92 82 76 74 77 93 88 88
80 82 79 80 91 84 67 49 48 59 88 84 85 84 86 93 95 91 85 80 77 81 89 91 90 89 93 94 96 97 98 94 96 100 100 99 84 78 76 70 75 79 93
80 90 90 92 90 72 46 44 50 61 68 81 87 80 87 87 93 86 88 83 80 79 83 86 87 88 91 92 94 96 90 89 86 89 91 89 89 86 80 74 71 72 77
82 91 92 90 75 52 47 48 58 61 71 80 98 86 79 75 76 83 84 84 81 80 82 85 80 84 94 96 94 81 78 79 76 79 85 88 89 92 86 87 81 80 80
92 93 90 73 57 55 58 58 58 70 74 88 98 94 83 78 72 80 83 86 86 73 82 87 85 77 78 85 81 84 81 77 78 80 81 83 93 92 94 90 88 72 65
95 87 77 65 64 70 68 60 65 71 72 82 90 88 75 78 78 89 90 98 88 77 72 77 73 70 80 83 80 80 78 84 87 90 89 86 90 93 87 88 87 84 77
87 86 79 85 81 73 69 68 72 74 79 85 75 70 70 86 95 92 89 92 93 82 85 84 81 68 77 71 70 67 66 78 88 85 83 88 93 89 90 96 92 88 82
76 75 78 86 70 80 82 78 78 81 86 76 65 67 78 89 96 97 97 96 89 81 81 72 71 79 80 78 65 63 58 66 81 79 81 98 97 90 93 99 96 95 79
77 76 79 91 92 82 80 80 83 82 68 65 78 82 99 85 99 100 100 90 78 82 67 62 75 76 78 68 66 58 54 70 93 97 99 92 87 98 96 97 87 91 82
72 90 94 100 87 84 83 87 84 78 76 71 73 90 76 68 90 99 99 79 70 48 51 55 63 74 68 56 52 53 61 72 86 97 91 93 100 98 84 81 82 87 83
70 81 90 86 88 88 89 82 77 75 63 63 65 65 70 69 79 85 79 70 46 45 42 53 55 59 57 49 49 57 64 80 90 91 90 97 100 99 95 94 97 95 83
79 84 82 94 96 92 91 76 74 72 72 75 76 67 69 78 80 77 63 49 49 46 45 45 48 50 51 53 56 56 58 78 87 87 86 89 90 97 97 97 97 93 82
99 99 100 99 96 90 82 82 82 82 72 76 65 73 75 82 77 60 50 50 51 49 49 50 52 56 54 56 57 58 59 62 83 100 94 88 100 98 99 96 98 92 85
95 100 100 99 95 90 90 94 96 83 90 86 75 79 78 81 60 50 48 49 49 51 54 58 62 58 59 61 59 55 57 72 87 96 90 94 98 94 99 97 97 92 84
96 99 95 99 100 100 100 100 86 97 87 95 98 82 80 57 52 50 51 51 52 55 60 63 63 63 62 61 59 60 69 83 88 90 95 99 98 99 99 100 100 97 93
100 100 92 97 97 100 100 99 83 87 97 100 80 81 59 53 51 53 53 55 56 60 60 60 61 62 60 61 62 69 78 88 90 93 99 99 98 99 99 100 100 100 98
100 100 100 100 100 100 99 100 99 100 99 83 79 57 53 53 54 53 55 59 60 60 60 61 62 64 64 67 68 74 82 89 88 92 99 98 100 99 99 100 99 100 100
100 99 99 100 99 99 100 100 100 93 87 70 56 54 54 54 56 59 60 59 59 60 62 63 65 65 68 75 77 83 84 84 88 91 97 98 98 99 100 100 99 99 99
99 100 100 100 98 100 97 97 96 85 63 57 56 57 59 60 61 59 59 60 63 65 67 68 69 70 76 82 84 84 85 91 90 90 100 99 98 99 100 100 99 99 99
99 98 99 100 100 100 97 98 87 73 66 60 61 62 64 62 58 57 58 57 58 66 72 78 79 80 83 83 81 84 87 91 99 99 98 99 98 100 99 98 100 100 100

GFSMA_850_rhum_126.txt.gz
RH
78 73 70 46 29 30 39 42 42 47 62 70 78 76 74 71 68 62 60 55 56 58 59 63 68 68 59 55 58 59 62 64 68 70 70 71 71 72 72 70 65 59 53
72 66 67 45 32 32 41 44 45 52 64 76 79 81 81 81 76 74 67 64 57 55 59 65 70 77 75 62 62 59 56 60 64 65 69 75 80 78 77 76 72 67 60
72 57 59 44 34 40 47 54 63 70 74 78 80 82 82 81 77 72 63 62 63 64 63 64 71 76 80 77 66 70 68 74 77 73 72 72 73 81 83 82 79 73 69
72 53 55 44 39 45 51 53 61 71 81 80 77 72 68 68 70 74 69 73 75 69 68 72 73 73 74 79 84 88 90 86 91 86 83 82 79 75 80 86 89 82 77
67 48 56 45 43 49 52 54 62 66 72 74 76 76 76 78 81 80 75 79 79 74 75 77 79 81 85 84 83 86 91 92 92 90 89 90 87 84 87 85 86 88 86
57 77 65 51 49 55 52 63 64 75 67 73 79 88 91 86 83 78 80 76 77 76 76 79 78 80 83 82 89 92 94 94 96 99 99 96 89 82 78 80 87 86 86
56 85 77 59 52 60 57 63 72 66 66 77 84 96 91 80 82 80 78 78 79 78 79 84 86 85 86 86 89 91 94 95 93 100 95 100 95 80 81 76 71 80 92
70 90 84 60 61 70 71 85 66 64 68 81 85 86 87 87 89 88 90 88 87 81 83 88 92 90 89 90 92 95 94 95 94 96 99 95 91 85 79 77 75 77 68
77 86 82 69 68 78 82 78 62 55 51 76 85 74 89 88 89 92 92 88 83 83 82 85 85 85 87 94 97 99 95 89 87 81 87 83 87 88 90 89 80 83 76
88 74 79 79 65 78 78 72 60 47 50 62 86 76 78 74 86 85 87 87 87 87 83 85 83 78 81 93 98 90 77 76 79 74 76 77 80 90 92 89 90 90 74
93 74 74 81 77 81 75 74 56 48 55 67 71 74 83 76 72 72 76 86 84 81 78 89 88 83 79 81 83 76 78 80 78 80 78 79 80 87 98 93 88 87 86
87 78 81 79 80 89 88 74 52 52 63 71 76 70 79 77 73 65 74 85 91 78 76 83 76 70 63 69 75 81 80 79 78 79 80 81 82 90 99 92 87 90 83
87 86 82 89 91 90 84 61 56 69 75 78 79 90 88 74 67 72 83 89 88 78 77 77 72 69 59 65 64 62 60 58 59 68 69 69 74 95 95 97 91 95 82
82 84 83 85 90 86 71 59 75 83 87 90 90 93 78 77 76 80 88 89 90 81 74 78 64 62 73 73 65 58 55 49 48 56 72 71 96 99 96 91 98 91 86
80 76 77 88 88 77 64 76 89 88 91 90 93 77 70 78 91 95 98 98 92 78 75 69 63 64 68 66 60 54 49 48 57 60 60 91 93 100 99 97 90 84 77
81 80 89 86 75 72 81 92 93 96 92 94 88 73 77 95 97 87 99 100 88 75 72 54 59 72 63 54 48 46 47 50 53 65 77 84 100 94 95 97 89 73 73
86 84 82 79 77 83 82 91 95 94 96 87 75 78 90 100 78 70 76 84 66 66 43 50 63 64 57 50 49 52 51 49 49 60 71 74 87 91 97 91 76 78 85
82 86 77 76 72 85 82 92 98 98 94 86 78 76 99 93 70 73 71 76 60 43 48 56 58 52 50 52 54 51 53 51 49 51 76 84 85 90 84 81 88 90 91
74 76 80 77 70 68 68 82 92 100 94 83 86 90 96 91 71 74 63 65 49 47 49 50 50 54 54 54 50 50 48 48 51 59 67 96 92 88 90 93 99 90 96
92 92 86 80 71 69 68 81 87 96 87 80 85 84 82 79 75 70 74 56 48 47 50 51 54 56 55 51 52 52 51 52 54 65 80 94 89 87 84 93 99 96 92
99 91 80 86 82 70 74 88 100 88 84 85 93 89 93 95 87 75 64 51 50 50 53 54 55 54 54 55 55 56 56 57 60 67 83 87 89 88 94 94 90 89 98
92 96 100 100 92 85 99 99 100 99 92 98 100 98 94 97 99 77 53 56 57 56 58 60 60 57 58 58 60 60 61 65 64 72 89 93 97 93 96 100 100 100 100
100 97 98 100 98 92 92 96 97 100 100 100 100 98 94 99 80 52 54 56 57 59 61 61 61 61 63 64 68 68 70 71 72 78 88 83 88 93 98 99 99 98 100
100 100 100 100 100 99 100 100 100 100 100 100 100 100 95 81 56 55 56 57 61 62 61 61 64 67 70 73 74 76 80 77 77 78 88 94 83 88 100 100 100 100 99
98 99 100 100 100 91 99 100 100 99 100 99 98 90 70 60 61 62 61 62 62 61 60 64 71 72 74 75 76 80 78 79 78 78 89 100 94 96 98 100 99 99 99
96 98 99 99 99 99 100 99 100 98 99 88 75 69 71 66 65 69 67 61 60 56 57 61 62 71 77 78 81 81 79 78 83 96 95 100 100 100 99 98 98 99 100

GFSMA_850_rhum_129.txt.gz
RH
89 68 85 73 34 27 31 37 39 44 55 60 60 66 67 68 65 61 53 51 53 56 60 66 69 71 63 56 59 57 53 58 60 64 65 67 70 71 73 73 69 65 58
89 75 69 70 37 27 34 39 38 44 60 69 70 71 75 77 74 70 63 62 57 56 59 64 70 76 78 69 62 65 62 66 71 69 70 69 70 70 75 79 77 72 68
89 89 55 60 34 27 37 42 44 56 70 75 74 75 80 80 76 74 64 63 64 65 66 64 68 71 77 80 78 71 84 78 85 88 82 82 78 75 74 79 81 80 76
98 94 60 58 35 29 39 45 46 56 72 75 75 77 80 76 72 65 68 69 70 68 71 72 73 75 79 85 91 91 95 94 92 94 90 89 87 84 86 84 84 80 86
94 98 68 55 37 31 41 48 56 64 71 74 79 79 74 65 66 73 77 74 76 75 75 74 75 80 81 81 83 88 90 91 95 96 96 97 94 90 87 84 83 85 85
93 95 79 66 42 34 45 55 58 65 71 77 79 78 77 77 84 85 78 77 76 77 77 80 80 78 79 83 86 91 93 93 91 88 92 95 96 93 79 74 74 76 79
79 96 90 68 52 36 43 53 62 71 76 78 77 83 92 94 92 84 75 75 76 79 80 82 84 86 84 88 90 93 96 94 84 92 93 94 96 92 83 79 75 72 70
83 92 97 70 59 42 49 56 65 73 77 77 77 85 99 94 88 86 82 79 82 82 79 83 89 90 89 89 90 92 91 88 91 89 94 95 89 87 84 86 82 76 80
98 92 98 78 69 52 46 54 63 65 65 70 72 80 88 82 81 85 88 91 89 82 80 79 83 83 85 84 88 92 93 93 82 78 79 71 87 88 88 86 87 83 82
98 99 98 77 68 66 55 60 63 63 63 60 82 87 74 73 86 90 90 95 91 88 84 82 81 79 78 77 83 90 84 76 74 76 76 76 80 86 90 88 92 91 88
82 94 91 97 86 74 56 71 69 75 67 58 57 78 84 80 79 72 81 88 92 90 86 71 84 82 79 74 74 79 75 73 71 69 72 76 83 82 92 96 99 86 86
81 85 88 90 80 74 65 74 73 79 68 60 58 73 75 74 74 69 67 71 86 88 81 76 78 76 72 63 64 72 72 65 57 49 50 60 71 80 86 100 99 89 90
77 90 98 90 83 94 77 80 79 82 74 57 61 80 81 76 74 72 66 70 83 88 82 75 72 67 62 54 56 54 54 50 48 45 43 48 48 66 96 99 95 90 99
76 85 92 95 81 84 83 78 79 84 75 60 66 79 84 79 84 75 68 73 85 84 74 68 69 67 54 54 59 59 50 46 42 42 45 45 44 68 100 100 98 94 89
84 87 87 95 85 80 85 86 89 90 74 62 76 91 88 87 81 76 75 81 82 82 72 66 68 57 52 59 64 56 50 43 43 44 46 46 46 76 99 100 99 98 84
100 90 83 93 87 80 82 89 92 86 68 75 90 99 85 85 76 77 75 91 86 76 62 64 64 44 51 57 55 53 48 45 46 46 50 60 73 84 94 99 100 98 93
99 91 93 82 81 82 85 90 89 73 72 84 99 100 97 81 75 82 74 99 91 76 51 69 53 45 48 56 56 50 47 50 46 46 48 59 68 76 99 100 100 98 80
84 81 79 76 80 87 84 89 82 68 81 88 100 100 98 80 84 83 76 70 76 64 56 61 47 47 51 54 53 51 53 50 47 48 49 51 76 86 95 100 98 96 93
83 86 80 85 87 83 84 80 70 62 60 73 98 99 81 86 93 94 87 72 70 62 55 45 48 50 49 53 55 57 55 52 52 51 54 62 69 89 96 96 97 98 98
77 71 68 69 73 79 84 73 63 63 68 69 68 79 82 82 84 87 88 82 76 72 57 49 50 51 53 57 60 60 57 52 53 54 54 63 76 92 90 86 84 89 94
88 80 73 74 79 77 75 76 75 70 66 69 69 77 84 78 85 97 92 85 81 73 56 54 53 58 56 59 61 59 58 56 55 53 52 60 75 87 87 84 92 89 88
97 98 100 93 90 90 91 87 85 77 76 77 78 81 86 85 89 98 99 99 94 82 73 54 55 59 61 62 61 60 58 56 57 57 57 64 80 86 94 88 91 92 94
99 98 100 97 98 93 87 89 85 90 90 88 88 94 93 100 100 100 93 100 99 87 71 61 62 60 63 61 61 58 59 60 59 63 63 65 75 86 92 96 98 99 99
97 99 99 100 100 100 98 99 100 100 100 99 99 100 100 100 100 100 100 100 90 69 67 64 64 63 60 60 62 65 66 66 66 67 70 66 72 77 83 92 98 99 100
91 95 98 96 93 98 86 96 94 96 99 100 100 100 100 100 100 100 100 90 80 72 69 70 65 66 63 64 67 70 71 73 72 72 78 79 74 78 82 90 94 98 99
98 99 98 98 98 99 93 89 94 94 96 99 99 100 100 99 98 88 81 74 76 77 72 70 61 63 66 67 72 76 81 81 81 78 78 88 87 96 99 95 100 100 100

GFSMA_850_rhum_135.txt.gz
RH
88 87 78 56 63 52 34 32 34 43 45 42 43 45 44 44 44 46 49 51 53 56 59 62 65 71 69 65 64 66 63 71 76 78 77 77 78 79 77 74 73 74 72
84 84 79 65 54 62 42 32 33 42 45 49 48 46 50 52 50 51 53 54 54 55 59 61 64 69 77 77 76 70 75 80 83 86 84 82 83 85 83 81 76 73 77
78 79 80 75 69 48 49 35 32 46 52 53 54 56 57 60 61 63 62 62 60 62 64 62 63 68 78 87 90 95 94 94 91 87 91 86 86 85 86 78 74 76 79
80 76 77 84 75 66 38 33 32 41 49 53 57 59 67 70 71 70 67 63 64 65 67 68 68 78 83 83 82 80 80 84 85 87 81 84 84 84 86 76 67 66 72
86 81 72 76 82 80 53 30 32 41 46 52 58 70 72 74 75 74 66 69 70 72 69 72 72 73 72 71 75 77 79 84 83 79 82 86 86 83 82 68 67 71 68
90 88 82 76 86 87 85 40 32 42 48 55 67 74 80 77 75 70 68 76 75 74 75 76 76 76 78 78 78 80 79 82 81 80 84 82 78 81 78 72 72 73 69
91 92 88 79 84 90 84 65 33 45 51 68 80 82 83 80 74 68 70 78 77 74 76 76 76 76 78 81 84 84 85 86 85 84 85 75 77 78 67 67 73 80 74
98 93 91 80 78 86 94 82 36 44 56 70 82 81 85 80 76 76 77 81 77 73 75 76 74 74 78 80 84 84 82 86 90 86 82 70 73 74 67 72 72 77 80
98 97 97 83 80 81 90 86 54 39 48 64 77 79 83 85 74 75 82 81 76 75 75 80 76 75 76 74 78 83 81 81 87 87 71 64 77 82 79 74 79 82 85
84 95 95 90 82 83 86 90 81 38 49 55 83 84 75 65 72 74 81 80 75 74 77 80 76 74 74 66 71 74 71 69 73 75 71 66 68 69 83 79 88 95 86
81 81 93 88 82 83 82 86 94 54 44 59 72 77 81 77 73 64 63 68 74 74 79 80 74 76 73 63 66 69 60 60 60 65 72 70 69 61 70 79 87 97 99
75 90 94 92 84 84 80 84 92 88 50 65 78 77 68 74 75 75 72 64 63 69 76 79 75 76 75 64 65 75 70 56 60 54 56 50 45 44 47 78 88 94 99
82 97 93 96 97 94 73 82 87 91 70 64 70 72 75 73 70 73 76 71 68 69 77 73 74 80 76 63 58 61 55 47 53 48 46 42 41 41 43 72 86 95 98
48 70 95 88 94 86 87 82 90 100 80 58 77 65 65 75 76 76 81 78 75 71 71 66 67 75 76 59 56 57 48 43 47 45 43 39 39 40 49 62 86 94 97
48 46 98 96 95 99 89 82 92 100 82 71 60 72 69 64 72 78 78 81 87 82 75 69 66 70 68 54 50 49 42 40 42 42 41 40 38 40 44 51 55 72 99
58 62 66 94 98 98 99 99 96 99 97 75 67 79 72 70 64 82 77 74 88 88 87 70 66 67 61 55 56 56 45 44 43 40 39 38 40 40 43 52 65 68 75
56 59 62 79 87 98 100 100 98 100 95 69 89 82 70 69 65 77 80 74 89 82 76 64 69 69 68 64 59 58 50 49 50 43 40 41 39 41 44 51 69 70 76
58 53 51 63 78 97 99 100 100 99 100 99 89 73 63 75 67 71 81 70 74 71 73 74 76 74 67 75 68 60 59 48 49 48 42 41 42 41 44 46 50 61 81
62 60 56 75 82 95 96 99 99 99 100 90 76 64 61 65 64 62 70 68 69 67 72 74 75 82 79 85 74 67 64 60 53 55 41 44 44 47 48 53 53 80 92
78 83 82 84 84 94 92 99 100 100 100 78 79 77 57 62 62 64 63 67 60 66 70 80 82 88 84 98 85 70 66 61 64 54 49 47 47 48 49 54 67 77 100
86 78 94 99 99 100 100 100 100 100 97 92 84 96 89 84 80 80 74 69 68 72 74 78 74 83 91 98 83 75 71 80 68 58 54 51 51 52 52 56 68 87 89
96 100 100 100 100 96 96 96 100 98 100 99 98 87 84 86 87 80 80 80 78 78 80 80 80 78 78 88 92 86 80 88 74 61 58 56 55 54 53 55 64 80 89
99 99 96 100 92 92 83 94 89 91 91 91 91 88 90 86 86 96 93 96 96 91 88 89 100 99 98 96 98 92 94 86 76 68 65 62 60 60 59 58 66 87 100
91 95 100 100 100 96 97 97 91 95 99 98 99 97 98 98 99 100 100 97 100 100 100 100 99 96 100 100 100 99 95 92 80 73 71 71 67 65 63 64 73 96 100
100 100 99 99 100 100 100 100 99 98 98 97 94 98 91 84 89 85 84 96 95 97 100 100 100 100 100 100 100 100 98 99 92 81 73 77 74 71 69 71 78 90 100
94 96 96 96 98 99 100 99 96 96 96 95 100 100 98 99 98 100 98 86 83 83 91 95 97 97 95 98 100 100 100 96 96 88 76 83 80 81 81 74 76 84 96

GFSMA_850_rhum_138.txt.gz
RH
88 92 83 71 83 96 89 89 83 82 74 84 84 80 68 70 61 61 89 51 52 57 60 64 66 69 66 63 63 64 63 73 78 79 78 78 78 80 81 76 71 69 69
85 89 83 81 94 83 71 68 59 75 82 81 82 75 70 57 62 63 79 50 51 54 58 60 63 70 75 74 75 70 72 78 87 85 85 83 82 81 80 75 71 70 72
85 83 85 83 94 89 68 46 65 58 77 75 81 79 76 85 61 59 71 88 59 55 58 58 59 66 71 79 88 93 93 88 89 90 86 81 84 81 81 78 72 66 65
87 84 82 84 96 98 76 59 48 66 71 62 78 84 84 77 81 82 70 68 65 67 64 62 64 72 86 88 81 79 74 77 81 83 78 77 81 83 76 74 67 67 64
87 89 82 81 89 97 83 57 52 53 77 81 82 84 78 77 78 85 74 72 66 65 71 66 66 69 70 70 70 75 75 80 83 81 76 80 82 75 76 71 68 65 62
89 96 94 82 97 94 87 73 51 40 72 80 84 81 81 70 80 79 83 72 73 70 71 72 70 72 73 74 74 74 75 76 83 84 80 82 82 74 80 78 70 74 64
96 100 99 86 87 86 92 84 60 36 47 79 84 86 89 79 77 74 69 64 66 72 73 71 75 74 73 75 76 80 80 80 86 86 85 84 74 74 73 76 73 75 73
98 100 99 92 87 85 99 94 87 63 69 73 83 78 79 83 92 79 70 63 62 69 70 69 73 76 75 76 74 78 80 78 83 85 82 80 72 71 70 76 84 76 74
98 99 98 99 97 84 96 90 90 84 55 74 67 76 72 69 71 88 68 63 63 65 67 67 71 77 76 77 73 72 76 78 78 80 82 68 58 63 70 79 79 83 85
99 97 99 99 100 91 92 85 87 88 75 70 65 84 79 82 84 84 80 69 62 65 63 67 67 77 79 78 74 68 71 72 74 77 76 66 57 59 61 72 82 88 92
100 100 95 99 98 99 91 84 85 94 89 60 55 80 92 85 84 82 84 58 62 63 67 66 66 79 80 77 75 63 68 65 61 64 69 62 60 48 45 53 78 88 92
98 100 99 100 100 98 88 88 82 88 98 86 58 61 82 83 88 79 76 69 59 56 61 63 66 76 78 75 75 63 64 60 56 53 66 59 48 43 41 39 57 80 82
89 92 84 97 99 94 88 91 87 90 97 93 81 64 73 58 69 74 81 78 77 67 64 65 66 71 76 72 72 66 54 53 50 43 57 49 40 41 38 36 40 51 72
79 91 67 98 100 98 98 84 90 87 92 91 94 82 54 46 63 70 83 83 85 80 75 67 62 70 70 68 72 71 55 54 52 46 46 47 41 41 38 38 40 44 59
73 80 60 96 98 100 96 86 93 91 94 93 87 99 79 55 51 88 77 88 84 85 86 72 70 68 67 66 70 72 56 55 53 46 46 48 43 39 40 40 42 48 52
75 77 88 89 89 99 100 99 99 98 100 100 85 99 96 69 58 66 74 86 76 80 87 83 76 67 76 76 74 74 63 58 57 50 44 45 45 41 40 42 41 40 48
60 85 91 96 96 86 99 100 98 100 100 99 98 92 99 88 72 75 92 74 75 80 85 79 74 68 70 72 81 77 71 61 62 60 56 51 50 44 41 39 38 43 49
81 72 93 95 94 94 86 85 89 98 100 100 100 100 100 97 76 69 68 82 78 74 70 74 73 65 68 73 74 74 71 68 71 60 60 62 55 50 45 42 40 40 44
69 73 81 86 93 90 96 86 78 82 98 99 99 96 100 98 99 68 81 88 68 68 72 79 84 73 74 77 83 83 73 71 85 74 76 63 61 54 49 45 44 43 44
80 71 76 76 59 66 77 77 78 90 92 97 100 99 96 96 100 100 95 69 79 93 86 78 83 84 78 85 96 95 92 82 83 84 82 76 62 55 54 50 47 47 47
59 56 65 70 62 73 74 86 90 90 92 95 88 100 100 100 95 92 79 68 78 90 100 98 92 96 83 87 93 89 97 90 87 89 85 84 72 58 57 54 52 51 51
84 75 74 96 90 87 94 98 98 100 98 99 100 100 100 100 99 95 98 100 93 100 92 94 86 100 92 95 92 91 94 97 97 94 93 89 81 71 62 56 54 54 60
99 96 98 96 100 100 100 100 100 99 97 88 84 84 83 81 83 97 97 93 91 87 98 99 95 98 95 96 89 88 96 100 99 93 100 95 86 78 64 60 56 57 63
99 100 100 99 100 95 95 97 97 93 92 75 80 87 98 96 100 100 94 88 89 85 97 97 99 99 98 100 100 100 100 100 100 99 100 96 84 76 68 64 61 61 62
100 100 100 100 100 100 100 100 100 99 99 99 100 100 100 100 98 95 94 90 89 82 84 85 85 86 92 92 87 87 97 100 100 100 100 97 92 87 76 68 65 72 77
100 99 98 98 99 98 98 100 100 99 98 99 98 98 98 98 98 98 98 99 99 99 92 90 88 90 92 92 88 91 85 90 97 98 98 100 100 98 88 74 75 76 79